<?xml version="1.0" encoding="UTF-8" standalone="no" ?>
<gpx xmlns="http://www.topografix.com/GPX/1/1" xmlns:xsi="http://www.w3.org/2001/XMLSchema-instance" xsi:schemaLocation="http://www.topografix.com/GPX/1/1 http://www.topografix.com/GPX/1/1/gpx.xsd" version="1.1" creator="VisuGPX - https://www.visugpx.com">
  <metadata>
    <name>Peillon tout de la Lourquiere</name>
    <desc><![CDATA[De St Martin de Peille à Peillon par le tour de la Louquière]]></desc>
  </metadata>
  <trk>
    <name><![CDATA[08/05/2012 8:04]]></name>
    <desc><![CDATA[]]></desc>
    <trkseg>
      <trkpt lat="43.76867" lon="7.39977">
        <ele>658</ele>
        <time>2012-05-08T06:04:57.000Z</time>
      </trkpt>
      <trkpt lat="43.76867" lon="7.39977">
        <ele>658</ele>
        <time>2012-05-08T06:04:57.000Z</time>
      </trkpt>
      <trkpt lat="43.76867" lon="7.39977">
        <ele>658</ele>
        <time>2012-05-08T06:05:19.000Z</time>
      </trkpt>
      <trkpt lat="43.7687" lon="7.39982">
        <ele>649</ele>
        <time>2012-05-08T06:05:20.000Z</time>
      </trkpt>
      <trkpt lat="43.7687" lon="7.39982">
        <ele>649</ele>
        <time>2012-05-08T06:05:20.000Z</time>
      </trkpt>
      <trkpt lat="43.7687" lon="7.39982">
        <ele>649</ele>
        <time>2012-05-08T06:05:21.000Z</time>
      </trkpt>
      <trkpt lat="43.76873" lon="7.39987">
        <ele>667</ele>
        <time>2012-05-08T06:08:31.000Z</time>
      </trkpt>
      <trkpt lat="43.76877" lon="7.39991">
        <ele>665</ele>
        <time>2012-05-08T06:09:00.000Z</time>
      </trkpt>
      <trkpt lat="43.76873" lon="7.39995">
        <ele>669</ele>
        <time>2012-05-08T06:10:46.000Z</time>
      </trkpt>
      <trkpt lat="43.76873" lon="7.39995">
        <ele>669</ele>
        <time>2012-05-08T06:10:46.000Z</time>
      </trkpt>
      <trkpt lat="43.76873" lon="7.39995">
        <ele>669</ele>
        <time>2012-05-08T06:10:48.000Z</time>
      </trkpt>
      <trkpt lat="43.76869" lon="7.39991">
        <ele>661</ele>
        <time>2012-05-08T06:13:17.000Z</time>
      </trkpt>
      <trkpt lat="43.76864" lon="7.39994">
        <ele>660</ele>
        <time>2012-05-08T06:13:23.000Z</time>
      </trkpt>
      <trkpt lat="43.7686" lon="7.39998">
        <ele>660</ele>
        <time>2012-05-08T06:13:26.000Z</time>
      </trkpt>
      <trkpt lat="43.76856" lon="7.40003">
        <ele>663</ele>
        <time>2012-05-08T06:13:29.000Z</time>
      </trkpt>
      <trkpt lat="43.76853" lon="7.40008">
        <ele>664</ele>
        <time>2012-05-08T06:13:33.000Z</time>
      </trkpt>
      <trkpt lat="43.76849" lon="7.40011">
        <ele>664</ele>
        <time>2012-05-08T06:13:37.000Z</time>
      </trkpt>
      <trkpt lat="43.76845" lon="7.40016">
        <ele>664</ele>
        <time>2012-05-08T06:13:42.000Z</time>
      </trkpt>
      <trkpt lat="43.7684" lon="7.4002">
        <ele>668</ele>
        <time>2012-05-08T06:13:47.000Z</time>
      </trkpt>
      <trkpt lat="43.76835" lon="7.40023">
        <ele>664</ele>
        <time>2012-05-08T06:13:52.000Z</time>
      </trkpt>
      <trkpt lat="43.7683" lon="7.40025">
        <ele>661</ele>
        <time>2012-05-08T06:13:58.000Z</time>
      </trkpt>
      <trkpt lat="43.76826" lon="7.4002">
        <ele>658</ele>
        <time>2012-05-08T06:14:05.000Z</time>
      </trkpt>
      <trkpt lat="43.76826" lon="7.40014">
        <ele>659</ele>
        <time>2012-05-08T06:14:11.000Z</time>
      </trkpt>
      <trkpt lat="43.76823" lon="7.4001">
        <ele>657</ele>
        <time>2012-05-08T06:14:15.000Z</time>
      </trkpt>
      <trkpt lat="43.76818" lon="7.40005">
        <ele>658</ele>
        <time>2012-05-08T06:14:20.000Z</time>
      </trkpt>
      <trkpt lat="43.76814" lon="7.40002">
        <ele>655</ele>
        <time>2012-05-08T06:14:32.000Z</time>
      </trkpt>
      <trkpt lat="43.76809" lon="7.40001">
        <ele>656</ele>
        <time>2012-05-08T06:14:38.000Z</time>
      </trkpt>
      <trkpt lat="43.76804" lon="7.39999">
        <ele>657</ele>
        <time>2012-05-08T06:14:43.000Z</time>
      </trkpt>
      <trkpt lat="43.768" lon="7.39996">
        <ele>654</ele>
        <time>2012-05-08T06:14:47.000Z</time>
      </trkpt>
      <trkpt lat="43.76795" lon="7.39997">
        <ele>652</ele>
        <time>2012-05-08T06:14:51.000Z</time>
      </trkpt>
      <trkpt lat="43.7679" lon="7.39995">
        <ele>654</ele>
        <time>2012-05-08T06:14:56.000Z</time>
      </trkpt>
      <trkpt lat="43.76785" lon="7.39995">
        <ele>649</ele>
        <time>2012-05-08T06:15:01.000Z</time>
      </trkpt>
      <trkpt lat="43.7678" lon="7.39996">
        <ele>654</ele>
        <time>2012-05-08T06:15:06.000Z</time>
      </trkpt>
      <trkpt lat="43.76775" lon="7.39997">
        <ele>660</ele>
        <time>2012-05-08T06:15:11.000Z</time>
      </trkpt>
      <trkpt lat="43.7677" lon="7.39997">
        <ele>660</ele>
        <time>2012-05-08T06:15:15.000Z</time>
      </trkpt>
      <trkpt lat="43.76765" lon="7.39997">
        <ele>652</ele>
        <time>2012-05-08T06:15:20.000Z</time>
      </trkpt>
      <trkpt lat="43.76759" lon="7.39995">
        <ele>647</ele>
        <time>2012-05-08T06:15:26.000Z</time>
      </trkpt>
      <trkpt lat="43.76755" lon="7.39992">
        <ele>654</ele>
        <time>2012-05-08T06:15:30.000Z</time>
      </trkpt>
      <trkpt lat="43.7675" lon="7.39989">
        <ele>651</ele>
        <time>2012-05-08T06:15:38.000Z</time>
      </trkpt>
      <trkpt lat="43.76747" lon="7.39984">
        <ele>647</ele>
        <time>2012-05-08T06:15:48.000Z</time>
      </trkpt>
      <trkpt lat="43.76742" lon="7.39981">
        <ele>646</ele>
        <time>2012-05-08T06:15:56.000Z</time>
      </trkpt>
      <trkpt lat="43.76738" lon="7.39977">
        <ele>648</ele>
        <time>2012-05-08T06:16:01.000Z</time>
      </trkpt>
      <trkpt lat="43.76733" lon="7.39974">
        <ele>648</ele>
        <time>2012-05-08T06:16:06.000Z</time>
      </trkpt>
      <trkpt lat="43.76728" lon="7.39972">
        <ele>648</ele>
        <time>2012-05-08T06:16:10.000Z</time>
      </trkpt>
      <trkpt lat="43.76724" lon="7.39972">
        <ele>645</ele>
        <time>2012-05-08T06:16:14.000Z</time>
      </trkpt>
      <trkpt lat="43.76719" lon="7.39971">
        <ele>644</ele>
        <time>2012-05-08T06:16:18.000Z</time>
      </trkpt>
      <trkpt lat="43.76714" lon="7.3997">
        <ele>641</ele>
        <time>2012-05-08T06:16:22.000Z</time>
      </trkpt>
      <trkpt lat="43.76709" lon="7.39968">
        <ele>641</ele>
        <time>2012-05-08T06:16:26.000Z</time>
      </trkpt>
      <trkpt lat="43.76705" lon="7.39967">
        <ele>641</ele>
        <time>2012-05-08T06:16:30.000Z</time>
      </trkpt>
      <trkpt lat="43.767" lon="7.39966">
        <ele>639</ele>
        <time>2012-05-08T06:16:34.000Z</time>
      </trkpt>
      <trkpt lat="43.76695" lon="7.39964">
        <ele>642</ele>
        <time>2012-05-08T06:16:40.000Z</time>
      </trkpt>
      <trkpt lat="43.76691" lon="7.3997">
        <ele>640</ele>
        <time>2012-05-08T06:16:45.000Z</time>
      </trkpt>
      <trkpt lat="43.76685" lon="7.3997">
        <ele>639</ele>
        <time>2012-05-08T06:17:01.000Z</time>
      </trkpt>
      <trkpt lat="43.7668" lon="7.39968">
        <ele>640</ele>
        <time>2012-05-08T06:17:04.000Z</time>
      </trkpt>
      <trkpt lat="43.76676" lon="7.39966">
        <ele>639</ele>
        <time>2012-05-08T06:17:07.000Z</time>
      </trkpt>
      <trkpt lat="43.7667" lon="7.39964">
        <ele>640</ele>
        <time>2012-05-08T06:17:11.000Z</time>
      </trkpt>
      <trkpt lat="43.76665" lon="7.39962">
        <ele>638</ele>
        <time>2012-05-08T06:17:16.000Z</time>
      </trkpt>
      <trkpt lat="43.7666" lon="7.39961">
        <ele>640</ele>
        <time>2012-05-08T06:17:20.000Z</time>
      </trkpt>
      <trkpt lat="43.76656" lon="7.39957">
        <ele>639</ele>
        <time>2012-05-08T06:17:24.000Z</time>
      </trkpt>
      <trkpt lat="43.76652" lon="7.39951">
        <ele>637</ele>
        <time>2012-05-08T06:17:29.000Z</time>
      </trkpt>
      <trkpt lat="43.7665" lon="7.39944">
        <ele>635</ele>
        <time>2012-05-08T06:17:33.000Z</time>
      </trkpt>
      <trkpt lat="43.76649" lon="7.39938">
        <ele>632</ele>
        <time>2012-05-08T06:17:37.000Z</time>
      </trkpt>
      <trkpt lat="43.76648" lon="7.39932">
        <ele>631</ele>
        <time>2012-05-08T06:17:41.000Z</time>
      </trkpt>
      <trkpt lat="43.76648" lon="7.39924">
        <ele>631</ele>
        <time>2012-05-08T06:17:46.000Z</time>
      </trkpt>
      <trkpt lat="43.76648" lon="7.39918">
        <ele>632</ele>
        <time>2012-05-08T06:17:50.000Z</time>
      </trkpt>
      <trkpt lat="43.76648" lon="7.3991">
        <ele>625</ele>
        <time>2012-05-08T06:17:54.000Z</time>
      </trkpt>
      <trkpt lat="43.76647" lon="7.39903">
        <ele>628</ele>
        <time>2012-05-08T06:17:58.000Z</time>
      </trkpt>
      <trkpt lat="43.76647" lon="7.39896">
        <ele>626</ele>
        <time>2012-05-08T06:18:02.000Z</time>
      </trkpt>
      <trkpt lat="43.76645" lon="7.39889">
        <ele>630</ele>
        <time>2012-05-08T06:18:06.000Z</time>
      </trkpt>
      <trkpt lat="43.76644" lon="7.39883">
        <ele>629</ele>
        <time>2012-05-08T06:18:11.000Z</time>
      </trkpt>
      <trkpt lat="43.76642" lon="7.39877">
        <ele>628</ele>
        <time>2012-05-08T06:18:15.000Z</time>
      </trkpt>
      <trkpt lat="43.76639" lon="7.39871">
        <ele>628</ele>
        <time>2012-05-08T06:18:19.000Z</time>
      </trkpt>
      <trkpt lat="43.76637" lon="7.39866">
        <ele>623</ele>
        <time>2012-05-08T06:18:22.000Z</time>
      </trkpt>
      <trkpt lat="43.76635" lon="7.3986">
        <ele>618</ele>
        <time>2012-05-08T06:18:26.000Z</time>
      </trkpt>
      <trkpt lat="43.76632" lon="7.39853">
        <ele>620</ele>
        <time>2012-05-08T06:18:30.000Z</time>
      </trkpt>
      <trkpt lat="43.76631" lon="7.39846">
        <ele>620</ele>
        <time>2012-05-08T06:18:34.000Z</time>
      </trkpt>
      <trkpt lat="43.76632" lon="7.39839">
        <ele>619</ele>
        <time>2012-05-08T06:18:39.000Z</time>
      </trkpt>
      <trkpt lat="43.76636" lon="7.39834">
        <ele>620</ele>
        <time>2012-05-08T06:18:43.000Z</time>
      </trkpt>
      <trkpt lat="43.76641" lon="7.3983">
        <ele>621</ele>
        <time>2012-05-08T06:18:47.000Z</time>
      </trkpt>
      <trkpt lat="43.76646" lon="7.39827">
        <ele>616</ele>
        <time>2012-05-08T06:18:52.000Z</time>
      </trkpt>
      <trkpt lat="43.76651" lon="7.39828">
        <ele>618</ele>
        <time>2012-05-08T06:18:58.000Z</time>
      </trkpt>
      <trkpt lat="43.76656" lon="7.39828">
        <ele>615</ele>
        <time>2012-05-08T06:19:02.000Z</time>
      </trkpt>
      <trkpt lat="43.7666" lon="7.39829">
        <ele>616</ele>
        <time>2012-05-08T06:19:06.000Z</time>
      </trkpt>
      <trkpt lat="43.76666" lon="7.39829">
        <ele>619</ele>
        <time>2012-05-08T06:19:11.000Z</time>
      </trkpt>
      <trkpt lat="43.76671" lon="7.39828">
        <ele>615</ele>
        <time>2012-05-08T06:19:17.000Z</time>
      </trkpt>
      <trkpt lat="43.76675" lon="7.39827">
        <ele>616</ele>
        <time>2012-05-08T06:19:20.000Z</time>
      </trkpt>
      <trkpt lat="43.76681" lon="7.39827">
        <ele>613</ele>
        <time>2012-05-08T06:19:23.000Z</time>
      </trkpt>
      <trkpt lat="43.76687" lon="7.39826">
        <ele>614</ele>
        <time>2012-05-08T06:19:27.000Z</time>
      </trkpt>
      <trkpt lat="43.76692" lon="7.39823">
        <ele>616</ele>
        <time>2012-05-08T06:19:31.000Z</time>
      </trkpt>
      <trkpt lat="43.76696" lon="7.39819">
        <ele>615</ele>
        <time>2012-05-08T06:19:34.000Z</time>
      </trkpt>
      <trkpt lat="43.76701" lon="7.39815">
        <ele>619</ele>
        <time>2012-05-08T06:19:37.000Z</time>
      </trkpt>
      <trkpt lat="43.76705" lon="7.39811">
        <ele>615</ele>
        <time>2012-05-08T06:19:40.000Z</time>
      </trkpt>
      <trkpt lat="43.76709" lon="7.39806">
        <ele>619</ele>
        <time>2012-05-08T06:19:44.000Z</time>
      </trkpt>
      <trkpt lat="43.76712" lon="7.398">
        <ele>619</ele>
        <time>2012-05-08T06:19:48.000Z</time>
      </trkpt>
      <trkpt lat="43.76715" lon="7.39794">
        <ele>617</ele>
        <time>2012-05-08T06:19:52.000Z</time>
      </trkpt>
      <trkpt lat="43.76716" lon="7.39787">
        <ele>615</ele>
        <time>2012-05-08T06:19:56.000Z</time>
      </trkpt>
      <trkpt lat="43.76719" lon="7.39781">
        <ele>617</ele>
        <time>2012-05-08T06:20:01.000Z</time>
      </trkpt>
      <trkpt lat="43.76723" lon="7.39777">
        <ele>623</ele>
        <time>2012-05-08T06:20:06.000Z</time>
      </trkpt>
      <trkpt lat="43.76727" lon="7.39773">
        <ele>624</ele>
        <time>2012-05-08T06:20:11.000Z</time>
      </trkpt>
      <trkpt lat="43.76731" lon="7.39769">
        <ele>622</ele>
        <time>2012-05-08T06:20:15.000Z</time>
      </trkpt>
      <trkpt lat="43.76735" lon="7.39765">
        <ele>616</ele>
        <time>2012-05-08T06:20:19.000Z</time>
      </trkpt>
      <trkpt lat="43.76739" lon="7.3976">
        <ele>614</ele>
        <time>2012-05-08T06:20:24.000Z</time>
      </trkpt>
      <trkpt lat="43.76741" lon="7.39754">
        <ele>616</ele>
        <time>2012-05-08T06:20:28.000Z</time>
      </trkpt>
      <trkpt lat="43.76744" lon="7.39748">
        <ele>617</ele>
        <time>2012-05-08T06:20:32.000Z</time>
      </trkpt>
      <trkpt lat="43.76747" lon="7.39743">
        <ele>616</ele>
        <time>2012-05-08T06:20:37.000Z</time>
      </trkpt>
      <trkpt lat="43.76751" lon="7.39738">
        <ele>608</ele>
        <time>2012-05-08T06:20:48.000Z</time>
      </trkpt>
      <trkpt lat="43.76755" lon="7.39736">
        <ele>615</ele>
        <time>2012-05-08T06:20:52.000Z</time>
      </trkpt>
      <trkpt lat="43.76761" lon="7.39734">
        <ele>612</ele>
        <time>2012-05-08T06:20:56.000Z</time>
      </trkpt>
      <trkpt lat="43.76766" lon="7.3973">
        <ele>616</ele>
        <time>2012-05-08T06:21:01.000Z</time>
      </trkpt>
      <trkpt lat="43.76771" lon="7.39728">
        <ele>616</ele>
        <time>2012-05-08T06:21:06.000Z</time>
      </trkpt>
      <trkpt lat="43.76776" lon="7.39725">
        <ele>615</ele>
        <time>2012-05-08T06:21:12.000Z</time>
      </trkpt>
      <trkpt lat="43.76781" lon="7.39722">
        <ele>614</ele>
        <time>2012-05-08T06:21:16.000Z</time>
      </trkpt>
      <trkpt lat="43.76785" lon="7.3972">
        <ele>613</ele>
        <time>2012-05-08T06:21:20.000Z</time>
      </trkpt>
      <trkpt lat="43.7679" lon="7.39715">
        <ele>613</ele>
        <time>2012-05-08T06:21:25.000Z</time>
      </trkpt>
      <trkpt lat="43.76795" lon="7.39712">
        <ele>619</ele>
        <time>2012-05-08T06:21:29.000Z</time>
      </trkpt>
      <trkpt lat="43.76801" lon="7.3971">
        <ele>614</ele>
        <time>2012-05-08T06:21:33.000Z</time>
      </trkpt>
      <trkpt lat="43.76805" lon="7.39707">
        <ele>614</ele>
        <time>2012-05-08T06:21:37.000Z</time>
      </trkpt>
      <trkpt lat="43.7681" lon="7.39705">
        <ele>612</ele>
        <time>2012-05-08T06:21:41.000Z</time>
      </trkpt>
      <trkpt lat="43.76814" lon="7.39702">
        <ele>613</ele>
        <time>2012-05-08T06:21:46.000Z</time>
      </trkpt>
      <trkpt lat="43.7682" lon="7.39702">
        <ele>612</ele>
        <time>2012-05-08T06:21:51.000Z</time>
      </trkpt>
      <trkpt lat="43.76825" lon="7.397">
        <ele>620</ele>
        <time>2012-05-08T06:21:58.000Z</time>
      </trkpt>
      <trkpt lat="43.76828" lon="7.39697">
        <ele>617</ele>
        <time>2012-05-08T06:22:03.000Z</time>
      </trkpt>
      <trkpt lat="43.76833" lon="7.39697">
        <ele>615</ele>
        <time>2012-05-08T06:22:09.000Z</time>
      </trkpt>
      <trkpt lat="43.76835" lon="7.39691">
        <ele>617</ele>
        <time>2012-05-08T06:22:14.000Z</time>
      </trkpt>
      <trkpt lat="43.76839" lon="7.39686">
        <ele>613</ele>
        <time>2012-05-08T06:22:19.000Z</time>
      </trkpt>
      <trkpt lat="43.76843" lon="7.39682">
        <ele>608</ele>
        <time>2012-05-08T06:22:24.000Z</time>
      </trkpt>
      <trkpt lat="43.76844" lon="7.39675">
        <ele>601</ele>
        <time>2012-05-08T06:22:29.000Z</time>
      </trkpt>
      <trkpt lat="43.76846" lon="7.39669">
        <ele>591</ele>
        <time>2012-05-08T06:22:33.000Z</time>
      </trkpt>
      <trkpt lat="43.76849" lon="7.39662">
        <ele>590</ele>
        <time>2012-05-08T06:22:37.000Z</time>
      </trkpt>
      <trkpt lat="43.76851" lon="7.39656">
        <ele>589</ele>
        <time>2012-05-08T06:22:41.000Z</time>
      </trkpt>
      <trkpt lat="43.76852" lon="7.39649">
        <ele>595</ele>
        <time>2012-05-08T06:22:45.000Z</time>
      </trkpt>
      <trkpt lat="43.76853" lon="7.39643">
        <ele>599</ele>
        <time>2012-05-08T06:22:49.000Z</time>
      </trkpt>
      <trkpt lat="43.76859" lon="7.39639">
        <ele>616</ele>
        <time>2012-05-08T06:22:53.000Z</time>
      </trkpt>
      <trkpt lat="43.76863" lon="7.39635">
        <ele>618</ele>
        <time>2012-05-08T06:22:56.000Z</time>
      </trkpt>
      <trkpt lat="43.76867" lon="7.39628">
        <ele>617</ele>
        <time>2012-05-08T06:22:59.000Z</time>
      </trkpt>
      <trkpt lat="43.7687" lon="7.39622">
        <ele>617</ele>
        <time>2012-05-08T06:23:02.000Z</time>
      </trkpt>
      <trkpt lat="43.76872" lon="7.39617">
        <ele>614</ele>
        <time>2012-05-08T06:23:06.000Z</time>
      </trkpt>
      <trkpt lat="43.76874" lon="7.3961">
        <ele>611</ele>
        <time>2012-05-08T06:23:11.000Z</time>
      </trkpt>
      <trkpt lat="43.76879" lon="7.39606">
        <ele>609</ele>
        <time>2012-05-08T06:23:15.000Z</time>
      </trkpt>
      <trkpt lat="43.76883" lon="7.39602">
        <ele>611</ele>
        <time>2012-05-08T06:23:19.000Z</time>
      </trkpt>
      <trkpt lat="43.76888" lon="7.39601">
        <ele>613</ele>
        <time>2012-05-08T06:23:25.000Z</time>
      </trkpt>
      <trkpt lat="43.76894" lon="7.39598">
        <ele>610</ele>
        <time>2012-05-08T06:23:30.000Z</time>
      </trkpt>
      <trkpt lat="43.76897" lon="7.39593">
        <ele>609</ele>
        <time>2012-05-08T06:23:35.000Z</time>
      </trkpt>
      <trkpt lat="43.769" lon="7.39588">
        <ele>597</ele>
        <time>2012-05-08T06:23:41.000Z</time>
      </trkpt>
      <trkpt lat="43.76904" lon="7.39583">
        <ele>597</ele>
        <time>2012-05-08T06:23:46.000Z</time>
      </trkpt>
      <trkpt lat="43.76906" lon="7.39577">
        <ele>600</ele>
        <time>2012-05-08T06:23:50.000Z</time>
      </trkpt>
      <trkpt lat="43.76904" lon="7.3957">
        <ele>606</ele>
        <time>2012-05-08T06:23:55.000Z</time>
      </trkpt>
      <trkpt lat="43.76901" lon="7.39566">
        <ele>603</ele>
        <time>2012-05-08T06:23:59.000Z</time>
      </trkpt>
      <trkpt lat="43.76897" lon="7.39561">
        <ele>605</ele>
        <time>2012-05-08T06:24:03.000Z</time>
      </trkpt>
      <trkpt lat="43.76893" lon="7.39558">
        <ele>603</ele>
        <time>2012-05-08T06:24:07.000Z</time>
      </trkpt>
      <trkpt lat="43.76888" lon="7.39556">
        <ele>599</ele>
        <time>2012-05-08T06:24:12.000Z</time>
      </trkpt>
      <trkpt lat="43.76885" lon="7.3955">
        <ele>600</ele>
        <time>2012-05-08T06:24:17.000Z</time>
      </trkpt>
      <trkpt lat="43.7688" lon="7.3955">
        <ele>605</ele>
        <time>2012-05-08T06:24:23.000Z</time>
      </trkpt>
      <trkpt lat="43.76876" lon="7.39553">
        <ele>602</ele>
        <time>2012-05-08T06:24:53.000Z</time>
      </trkpt>
      <trkpt lat="43.7687" lon="7.39555">
        <ele>605</ele>
        <time>2012-05-08T06:24:57.000Z</time>
      </trkpt>
      <trkpt lat="43.76866" lon="7.39556">
        <ele>600</ele>
        <time>2012-05-08T06:25:01.000Z</time>
      </trkpt>
      <trkpt lat="43.76861" lon="7.39557">
        <ele>596</ele>
        <time>2012-05-08T06:25:06.000Z</time>
      </trkpt>
      <trkpt lat="43.76856" lon="7.39557">
        <ele>593</ele>
        <time>2012-05-08T06:25:11.000Z</time>
      </trkpt>
      <trkpt lat="43.7685" lon="7.39556">
        <ele>598</ele>
        <time>2012-05-08T06:25:15.000Z</time>
      </trkpt>
      <trkpt lat="43.76846" lon="7.39553">
        <ele>602</ele>
        <time>2012-05-08T06:25:19.000Z</time>
      </trkpt>
      <trkpt lat="43.76842" lon="7.39552">
        <ele>602</ele>
        <time>2012-05-08T06:25:23.000Z</time>
      </trkpt>
      <trkpt lat="43.76837" lon="7.3955">
        <ele>600</ele>
        <time>2012-05-08T06:25:28.000Z</time>
      </trkpt>
      <trkpt lat="43.76833" lon="7.39546">
        <ele>601</ele>
        <time>2012-05-08T06:25:32.000Z</time>
      </trkpt>
      <trkpt lat="43.76829" lon="7.39543">
        <ele>606</ele>
        <time>2012-05-08T06:25:38.000Z</time>
      </trkpt>
      <trkpt lat="43.76824" lon="7.3954">
        <ele>606</ele>
        <time>2012-05-08T06:25:43.000Z</time>
      </trkpt>
      <trkpt lat="43.76826" lon="7.39534">
        <ele>608</ele>
        <time>2012-05-08T06:26:02.000Z</time>
      </trkpt>
      <trkpt lat="43.76824" lon="7.39528">
        <ele>598</ele>
        <time>2012-05-08T06:26:11.000Z</time>
      </trkpt>
      <trkpt lat="43.76828" lon="7.39522">
        <ele>588</ele>
        <time>2012-05-08T06:26:18.000Z</time>
      </trkpt>
      <trkpt lat="43.76832" lon="7.3952">
        <ele>601</ele>
        <time>2012-05-08T06:26:27.000Z</time>
      </trkpt>
      <trkpt lat="43.76833" lon="7.39513">
        <ele>606</ele>
        <time>2012-05-08T06:26:35.000Z</time>
      </trkpt>
      <trkpt lat="43.76836" lon="7.39507">
        <ele>600</ele>
        <time>2012-05-08T06:26:41.000Z</time>
      </trkpt>
      <trkpt lat="43.76835" lon="7.395">
        <ele>591</ele>
        <time>2012-05-08T06:26:46.000Z</time>
      </trkpt>
      <trkpt lat="43.76839" lon="7.39495">
        <ele>585</ele>
        <time>2012-05-08T06:26:54.000Z</time>
      </trkpt>
      <trkpt lat="43.7684" lon="7.39489">
        <ele>588</ele>
        <time>2012-05-08T06:26:59.000Z</time>
      </trkpt>
      <trkpt lat="43.76845" lon="7.39487">
        <ele>594</ele>
        <time>2012-05-08T06:27:06.000Z</time>
      </trkpt>
      <trkpt lat="43.76845" lon="7.3948">
        <ele>587</ele>
        <time>2012-05-08T06:27:11.000Z</time>
      </trkpt>
      <trkpt lat="43.76847" lon="7.39474">
        <ele>586</ele>
        <time>2012-05-08T06:27:16.000Z</time>
      </trkpt>
      <trkpt lat="43.76847" lon="7.39467">
        <ele>588</ele>
        <time>2012-05-08T06:27:22.000Z</time>
      </trkpt>
      <trkpt lat="43.76849" lon="7.3946">
        <ele>587</ele>
        <time>2012-05-08T06:27:28.000Z</time>
      </trkpt>
      <trkpt lat="43.76853" lon="7.39458">
        <ele>590</ele>
        <time>2012-05-08T06:27:44.000Z</time>
      </trkpt>
      <trkpt lat="43.76852" lon="7.39452">
        <ele>595</ele>
        <time>2012-05-08T06:27:50.000Z</time>
      </trkpt>
      <trkpt lat="43.76854" lon="7.39445">
        <ele>587</ele>
        <time>2012-05-08T06:28:04.000Z</time>
      </trkpt>
      <trkpt lat="43.76855" lon="7.39438">
        <ele>585</ele>
        <time>2012-05-08T06:28:12.000Z</time>
      </trkpt>
      <trkpt lat="43.76856" lon="7.39432">
        <ele>579</ele>
        <time>2012-05-08T06:28:18.000Z</time>
      </trkpt>
      <trkpt lat="43.7686" lon="7.3943">
        <ele>583</ele>
        <time>2012-05-08T06:28:23.000Z</time>
      </trkpt>
      <trkpt lat="43.76865" lon="7.39428">
        <ele>587</ele>
        <time>2012-05-08T06:28:32.000Z</time>
      </trkpt>
      <trkpt lat="43.7687" lon="7.39428">
        <ele>582</ele>
        <time>2012-05-08T06:28:37.000Z</time>
      </trkpt>
      <trkpt lat="43.76875" lon="7.39428">
        <ele>587</ele>
        <time>2012-05-08T06:28:46.000Z</time>
      </trkpt>
      <trkpt lat="43.76875" lon="7.39422">
        <ele>598</ele>
        <time>2012-05-08T06:29:46.000Z</time>
      </trkpt>
      <trkpt lat="43.76879" lon="7.39424">
        <ele>594</ele>
        <time>2012-05-08T06:30:19.000Z</time>
      </trkpt>
      <trkpt lat="43.76884" lon="7.39423">
        <ele>600</ele>
        <time>2012-05-08T06:31:18.000Z</time>
      </trkpt>
      <trkpt lat="43.76885" lon="7.39417">
        <ele>603</ele>
        <time>2012-05-08T06:31:38.000Z</time>
      </trkpt>
      <trkpt lat="43.76885" lon="7.39417">
        <ele>603</ele>
        <time>2012-05-08T06:31:38.000Z</time>
      </trkpt>
      <trkpt lat="43.76885" lon="7.39417">
        <ele>603</ele>
        <time>2012-05-08T06:31:41.000Z</time>
      </trkpt>
      <trkpt lat="43.7689" lon="7.39416">
        <ele>592</ele>
        <time>2012-05-08T06:31:51.000Z</time>
      </trkpt>
      <trkpt lat="43.76894" lon="7.39412">
        <ele>589</ele>
        <time>2012-05-08T06:32:02.000Z</time>
      </trkpt>
      <trkpt lat="43.76898" lon="7.39411">
        <ele>580</ele>
        <time>2012-05-08T06:32:14.000Z</time>
      </trkpt>
      <trkpt lat="43.76904" lon="7.39412">
        <ele>588</ele>
        <time>2012-05-08T06:32:23.000Z</time>
      </trkpt>
      <trkpt lat="43.76908" lon="7.3941">
        <ele>588</ele>
        <time>2012-05-08T06:32:27.000Z</time>
      </trkpt>
      <trkpt lat="43.76912" lon="7.39409">
        <ele>588</ele>
        <time>2012-05-08T06:32:31.000Z</time>
      </trkpt>
      <trkpt lat="43.76917" lon="7.39406">
        <ele>590</ele>
        <time>2012-05-08T06:32:36.000Z</time>
      </trkpt>
      <trkpt lat="43.7692" lon="7.39403">
        <ele>586</ele>
        <time>2012-05-08T06:32:40.000Z</time>
      </trkpt>
      <trkpt lat="43.76923" lon="7.39397">
        <ele>582</ele>
        <time>2012-05-08T06:32:46.000Z</time>
      </trkpt>
      <trkpt lat="43.76926" lon="7.39391">
        <ele>587</ele>
        <time>2012-05-08T06:32:52.000Z</time>
      </trkpt>
      <trkpt lat="43.7693" lon="7.39388">
        <ele>583</ele>
        <time>2012-05-08T06:32:56.000Z</time>
      </trkpt>
      <trkpt lat="43.76934" lon="7.39386">
        <ele>578</ele>
        <time>2012-05-08T06:33:00.000Z</time>
      </trkpt>
      <trkpt lat="43.76938" lon="7.39381">
        <ele>574</ele>
        <time>2012-05-08T06:33:05.000Z</time>
      </trkpt>
      <trkpt lat="43.76941" lon="7.39375">
        <ele>581</ele>
        <time>2012-05-08T06:33:10.000Z</time>
      </trkpt>
      <trkpt lat="43.76945" lon="7.3937">
        <ele>582</ele>
        <time>2012-05-08T06:33:16.000Z</time>
      </trkpt>
      <trkpt lat="43.76947" lon="7.39365">
        <ele>592</ele>
        <time>2012-05-08T06:33:23.000Z</time>
      </trkpt>
      <trkpt lat="43.76952" lon="7.3936">
        <ele>587</ele>
        <time>2012-05-08T06:33:29.000Z</time>
      </trkpt>
      <trkpt lat="43.76956" lon="7.39356">
        <ele>590</ele>
        <time>2012-05-08T06:33:34.000Z</time>
      </trkpt>
      <trkpt lat="43.7696" lon="7.39352">
        <ele>587</ele>
        <time>2012-05-08T06:33:41.000Z</time>
      </trkpt>
      <trkpt lat="43.76964" lon="7.39346">
        <ele>588</ele>
        <time>2012-05-08T06:33:48.000Z</time>
      </trkpt>
      <trkpt lat="43.76968" lon="7.39344">
        <ele>581</ele>
        <time>2012-05-08T06:33:58.000Z</time>
      </trkpt>
      <trkpt lat="43.76972" lon="7.3934">
        <ele>584</ele>
        <time>2012-05-08T06:34:04.000Z</time>
      </trkpt>
      <trkpt lat="43.76977" lon="7.39339">
        <ele>591</ele>
        <time>2012-05-08T06:34:11.000Z</time>
      </trkpt>
      <trkpt lat="43.76972" lon="7.3934">
        <ele>586</ele>
        <time>2012-05-08T06:34:51.000Z</time>
      </trkpt>
      <trkpt lat="43.76976" lon="7.39335">
        <ele>588</ele>
        <time>2012-05-08T06:34:57.000Z</time>
      </trkpt>
      <trkpt lat="43.76981" lon="7.39337">
        <ele>589</ele>
        <time>2012-05-08T06:35:02.000Z</time>
      </trkpt>
      <trkpt lat="43.76987" lon="7.39338">
        <ele>579</ele>
        <time>2012-05-08T06:35:15.000Z</time>
      </trkpt>
      <trkpt lat="43.76992" lon="7.39335">
        <ele>581</ele>
        <time>2012-05-08T06:35:19.000Z</time>
      </trkpt>
      <trkpt lat="43.76998" lon="7.39335">
        <ele>580</ele>
        <time>2012-05-08T06:35:24.000Z</time>
      </trkpt>
      <trkpt lat="43.77002" lon="7.39334">
        <ele>576</ele>
        <time>2012-05-08T06:35:29.000Z</time>
      </trkpt>
      <trkpt lat="43.77006" lon="7.39329">
        <ele>577</ele>
        <time>2012-05-08T06:35:36.000Z</time>
      </trkpt>
      <trkpt lat="43.77009" lon="7.39324">
        <ele>581</ele>
        <time>2012-05-08T06:35:41.000Z</time>
      </trkpt>
      <trkpt lat="43.77014" lon="7.39321">
        <ele>582</ele>
        <time>2012-05-08T06:35:47.000Z</time>
      </trkpt>
      <trkpt lat="43.77018" lon="7.39317">
        <ele>586</ele>
        <time>2012-05-08T06:35:51.000Z</time>
      </trkpt>
      <trkpt lat="43.77022" lon="7.3931">
        <ele>587</ele>
        <time>2012-05-08T06:35:55.000Z</time>
      </trkpt>
      <trkpt lat="43.77026" lon="7.39304">
        <ele>585</ele>
        <time>2012-05-08T06:35:59.000Z</time>
      </trkpt>
      <trkpt lat="43.7703" lon="7.39299">
        <ele>582</ele>
        <time>2012-05-08T06:36:03.000Z</time>
      </trkpt>
      <trkpt lat="43.7703" lon="7.39292">
        <ele>578</ele>
        <time>2012-05-08T06:36:10.000Z</time>
      </trkpt>
      <trkpt lat="43.77033" lon="7.39288">
        <ele>579</ele>
        <time>2012-05-08T06:36:18.000Z</time>
      </trkpt>
      <trkpt lat="43.77037" lon="7.39283">
        <ele>570</ele>
        <time>2012-05-08T06:36:26.000Z</time>
      </trkpt>
      <trkpt lat="43.77042" lon="7.39282">
        <ele>579</ele>
        <time>2012-05-08T06:36:39.000Z</time>
      </trkpt>
      <trkpt lat="43.77038" lon="7.39277">
        <ele>574</ele>
        <time>2012-05-08T06:36:49.000Z</time>
      </trkpt>
      <trkpt lat="43.77042" lon="7.39272">
        <ele>575</ele>
        <time>2012-05-08T06:36:54.000Z</time>
      </trkpt>
      <trkpt lat="43.77044" lon="7.39265">
        <ele>568</ele>
        <time>2012-05-08T06:37:00.000Z</time>
      </trkpt>
      <trkpt lat="43.77046" lon="7.39258">
        <ele>571</ele>
        <time>2012-05-08T06:37:05.000Z</time>
      </trkpt>
      <trkpt lat="43.77049" lon="7.39252">
        <ele>567</ele>
        <time>2012-05-08T06:37:12.000Z</time>
      </trkpt>
      <trkpt lat="43.77053" lon="7.39248">
        <ele>564</ele>
        <time>2012-05-08T06:37:20.000Z</time>
      </trkpt>
      <trkpt lat="43.77057" lon="7.39244">
        <ele>555</ele>
        <time>2012-05-08T06:37:34.000Z</time>
      </trkpt>
      <trkpt lat="43.77054" lon="7.39239">
        <ele>545</ele>
        <time>2012-05-08T06:37:48.000Z</time>
      </trkpt>
      <trkpt lat="43.77056" lon="7.39233">
        <ele>562</ele>
        <time>2012-05-08T06:37:58.000Z</time>
      </trkpt>
      <trkpt lat="43.77061" lon="7.3923">
        <ele>559</ele>
        <time>2012-05-08T06:38:01.000Z</time>
      </trkpt>
      <trkpt lat="43.77066" lon="7.39226">
        <ele>567</ele>
        <time>2012-05-08T06:38:05.000Z</time>
      </trkpt>
      <trkpt lat="43.7707" lon="7.39223">
        <ele>568</ele>
        <time>2012-05-08T06:38:13.000Z</time>
      </trkpt>
      <trkpt lat="43.77073" lon="7.39219">
        <ele>561</ele>
        <time>2012-05-08T06:38:28.000Z</time>
      </trkpt>
      <trkpt lat="43.77078" lon="7.39216">
        <ele>565</ele>
        <time>2012-05-08T06:38:34.000Z</time>
      </trkpt>
      <trkpt lat="43.77081" lon="7.39221">
        <ele>563</ele>
        <time>2012-05-08T06:38:40.000Z</time>
      </trkpt>
      <trkpt lat="43.77088" lon="7.39227">
        <ele>571</ele>
        <time>2012-05-08T06:38:43.000Z</time>
      </trkpt>
      <trkpt lat="43.77093" lon="7.3923">
        <ele>568</ele>
        <time>2012-05-08T06:38:47.000Z</time>
      </trkpt>
      <trkpt lat="43.77098" lon="7.39226">
        <ele>559</ele>
        <time>2012-05-08T06:38:52.000Z</time>
      </trkpt>
      <trkpt lat="43.77102" lon="7.39222">
        <ele>561</ele>
        <time>2012-05-08T06:38:56.000Z</time>
      </trkpt>
      <trkpt lat="43.77105" lon="7.39216">
        <ele>556</ele>
        <time>2012-05-08T06:39:01.000Z</time>
      </trkpt>
      <trkpt lat="43.77108" lon="7.3921">
        <ele>561</ele>
        <time>2012-05-08T06:39:06.000Z</time>
      </trkpt>
      <trkpt lat="43.77112" lon="7.39206">
        <ele>558</ele>
        <time>2012-05-08T06:39:12.000Z</time>
      </trkpt>
      <trkpt lat="43.77116" lon="7.39201">
        <ele>567</ele>
        <time>2012-05-08T06:39:19.000Z</time>
      </trkpt>
      <trkpt lat="43.77118" lon="7.39195">
        <ele>562</ele>
        <time>2012-05-08T06:39:24.000Z</time>
      </trkpt>
      <trkpt lat="43.77119" lon="7.39189">
        <ele>564</ele>
        <time>2012-05-08T06:39:29.000Z</time>
      </trkpt>
      <trkpt lat="43.77121" lon="7.39182">
        <ele>574</ele>
        <time>2012-05-08T06:39:34.000Z</time>
      </trkpt>
      <trkpt lat="43.77119" lon="7.39176">
        <ele>567</ele>
        <time>2012-05-08T06:39:41.000Z</time>
      </trkpt>
      <trkpt lat="43.77117" lon="7.3917">
        <ele>567</ele>
        <time>2012-05-08T06:39:47.000Z</time>
      </trkpt>
      <trkpt lat="43.77116" lon="7.39164">
        <ele>563</ele>
        <time>2012-05-08T06:39:51.000Z</time>
      </trkpt>
      <trkpt lat="43.77114" lon="7.39158">
        <ele>568</ele>
        <time>2012-05-08T06:39:56.000Z</time>
      </trkpt>
      <trkpt lat="43.77114" lon="7.39151">
        <ele>569</ele>
        <time>2012-05-08T06:40:01.000Z</time>
      </trkpt>
      <trkpt lat="43.77114" lon="7.39144">
        <ele>566</ele>
        <time>2012-05-08T06:40:06.000Z</time>
      </trkpt>
      <trkpt lat="43.77114" lon="7.39137">
        <ele>569</ele>
        <time>2012-05-08T06:40:12.000Z</time>
      </trkpt>
      <trkpt lat="43.77114" lon="7.39131">
        <ele>570</ele>
        <time>2012-05-08T06:40:17.000Z</time>
      </trkpt>
      <trkpt lat="43.77113" lon="7.39124">
        <ele>565</ele>
        <time>2012-05-08T06:40:25.000Z</time>
      </trkpt>
      <trkpt lat="43.7711" lon="7.39116">
        <ele>570</ele>
        <time>2012-05-08T06:40:42.000Z</time>
      </trkpt>
      <trkpt lat="43.77108" lon="7.39109">
        <ele>566</ele>
        <time>2012-05-08T06:40:46.000Z</time>
      </trkpt>
      <trkpt lat="43.77104" lon="7.39105">
        <ele>568</ele>
        <time>2012-05-08T06:40:50.000Z</time>
      </trkpt>
      <trkpt lat="43.77101" lon="7.39099">
        <ele>567</ele>
        <time>2012-05-08T06:40:55.000Z</time>
      </trkpt>
      <trkpt lat="43.77098" lon="7.39095">
        <ele>566</ele>
        <time>2012-05-08T06:41:01.000Z</time>
      </trkpt>
      <trkpt lat="43.77095" lon="7.39089">
        <ele>562</ele>
        <time>2012-05-08T06:41:06.000Z</time>
      </trkpt>
      <trkpt lat="43.77092" lon="7.39083">
        <ele>566</ele>
        <time>2012-05-08T06:41:11.000Z</time>
      </trkpt>
      <trkpt lat="43.77089" lon="7.39077">
        <ele>568</ele>
        <time>2012-05-08T06:41:17.000Z</time>
      </trkpt>
      <trkpt lat="43.77088" lon="7.39071">
        <ele>567</ele>
        <time>2012-05-08T06:41:25.000Z</time>
      </trkpt>
      <trkpt lat="43.77086" lon="7.39065">
        <ele>564</ele>
        <time>2012-05-08T06:41:31.000Z</time>
      </trkpt>
      <trkpt lat="43.77084" lon="7.39059">
        <ele>566</ele>
        <time>2012-05-08T06:41:36.000Z</time>
      </trkpt>
      <trkpt lat="43.77082" lon="7.39053">
        <ele>565</ele>
        <time>2012-05-08T06:41:42.000Z</time>
      </trkpt>
      <trkpt lat="43.77077" lon="7.39049">
        <ele>569</ele>
        <time>2012-05-08T06:41:47.000Z</time>
      </trkpt>
      <trkpt lat="43.77073" lon="7.39045">
        <ele>564</ele>
        <time>2012-05-08T06:41:53.000Z</time>
      </trkpt>
      <trkpt lat="43.77069" lon="7.39041">
        <ele>565</ele>
        <time>2012-05-08T06:41:59.000Z</time>
      </trkpt>
      <trkpt lat="43.77065" lon="7.39036">
        <ele>562</ele>
        <time>2012-05-08T06:42:42.000Z</time>
      </trkpt>
      <trkpt lat="43.7706" lon="7.39033">
        <ele>565</ele>
        <time>2012-05-08T06:42:47.000Z</time>
      </trkpt>
      <trkpt lat="43.77057" lon="7.39029">
        <ele>563</ele>
        <time>2012-05-08T06:42:51.000Z</time>
      </trkpt>
      <trkpt lat="43.77054" lon="7.39023">
        <ele>555</ele>
        <time>2012-05-08T06:42:55.000Z</time>
      </trkpt>
      <trkpt lat="43.77051" lon="7.39018">
        <ele>561</ele>
        <time>2012-05-08T06:42:59.000Z</time>
      </trkpt>
      <trkpt lat="43.77047" lon="7.39013">
        <ele>563</ele>
        <time>2012-05-08T06:43:04.000Z</time>
      </trkpt>
      <trkpt lat="43.77043" lon="7.39009">
        <ele>562</ele>
        <time>2012-05-08T06:43:11.000Z</time>
      </trkpt>
      <trkpt lat="43.77038" lon="7.39006">
        <ele>567</ele>
        <time>2012-05-08T06:43:18.000Z</time>
      </trkpt>
      <trkpt lat="43.77034" lon="7.39003">
        <ele>561</ele>
        <time>2012-05-08T06:43:31.000Z</time>
      </trkpt>
      <trkpt lat="43.7703" lon="7.39008">
        <ele>558</ele>
        <time>2012-05-08T06:43:52.000Z</time>
      </trkpt>
      <trkpt lat="43.77027" lon="7.39004">
        <ele>561</ele>
        <time>2012-05-08T06:43:57.000Z</time>
      </trkpt>
      <trkpt lat="43.77024" lon="7.38997">
        <ele>556</ele>
        <time>2012-05-08T06:44:04.000Z</time>
      </trkpt>
      <trkpt lat="43.77021" lon="7.38993">
        <ele>549</ele>
        <time>2012-05-08T06:44:08.000Z</time>
      </trkpt>
      <trkpt lat="43.77017" lon="7.38988">
        <ele>555</ele>
        <time>2012-05-08T06:44:13.000Z</time>
      </trkpt>
      <trkpt lat="43.77014" lon="7.38982">
        <ele>552</ele>
        <time>2012-05-08T06:44:20.000Z</time>
      </trkpt>
      <trkpt lat="43.77012" lon="7.38977">
        <ele>558</ele>
        <time>2012-05-08T06:44:29.000Z</time>
      </trkpt>
      <trkpt lat="43.77009" lon="7.38971">
        <ele>555</ele>
        <time>2012-05-08T06:44:36.000Z</time>
      </trkpt>
      <trkpt lat="43.77006" lon="7.38966">
        <ele>551</ele>
        <time>2012-05-08T06:44:41.000Z</time>
      </trkpt>
      <trkpt lat="43.77003" lon="7.38959">
        <ele>552</ele>
        <time>2012-05-08T06:44:46.000Z</time>
      </trkpt>
      <trkpt lat="43.77" lon="7.38954">
        <ele>555</ele>
        <time>2012-05-08T06:44:56.000Z</time>
      </trkpt>
      <trkpt lat="43.76997" lon="7.38949">
        <ele>556</ele>
        <time>2012-05-08T06:45:03.000Z</time>
      </trkpt>
      <trkpt lat="43.76994" lon="7.38944">
        <ele>562</ele>
        <time>2012-05-08T06:45:09.000Z</time>
      </trkpt>
      <trkpt lat="43.76988" lon="7.38941">
        <ele>557</ele>
        <time>2012-05-08T06:45:17.000Z</time>
      </trkpt>
      <trkpt lat="43.76984" lon="7.38936">
        <ele>557</ele>
        <time>2012-05-08T06:45:23.000Z</time>
      </trkpt>
      <trkpt lat="43.76981" lon="7.3893">
        <ele>549</ele>
        <time>2012-05-08T06:45:29.000Z</time>
      </trkpt>
      <trkpt lat="43.76979" lon="7.38924">
        <ele>543</ele>
        <time>2012-05-08T06:45:36.000Z</time>
      </trkpt>
      <trkpt lat="43.76978" lon="7.38918">
        <ele>547</ele>
        <time>2012-05-08T06:45:42.000Z</time>
      </trkpt>
      <trkpt lat="43.76973" lon="7.38915">
        <ele>537</ele>
        <time>2012-05-08T06:45:49.000Z</time>
      </trkpt>
      <trkpt lat="43.76968" lon="7.38912">
        <ele>543</ele>
        <time>2012-05-08T06:45:57.000Z</time>
      </trkpt>
      <trkpt lat="43.76967" lon="7.38906">
        <ele>547</ele>
        <time>2012-05-08T06:46:07.000Z</time>
      </trkpt>
      <trkpt lat="43.76965" lon="7.389">
        <ele>548</ele>
        <time>2012-05-08T06:46:18.000Z</time>
      </trkpt>
      <trkpt lat="43.7696" lon="7.38894">
        <ele>539</ele>
        <time>2012-05-08T06:46:31.000Z</time>
      </trkpt>
      <trkpt lat="43.76958" lon="7.38885">
        <ele>541</ele>
        <time>2012-05-08T06:46:35.000Z</time>
      </trkpt>
      <trkpt lat="43.76957" lon="7.38878">
        <ele>549</ele>
        <time>2012-05-08T06:46:39.000Z</time>
      </trkpt>
      <trkpt lat="43.76955" lon="7.38872">
        <ele>546</ele>
        <time>2012-05-08T06:46:45.000Z</time>
      </trkpt>
      <trkpt lat="43.76955" lon="7.38866">
        <ele>550</ele>
        <time>2012-05-08T06:46:50.000Z</time>
      </trkpt>
      <trkpt lat="43.76956" lon="7.38859">
        <ele>552</ele>
        <time>2012-05-08T06:46:55.000Z</time>
      </trkpt>
      <trkpt lat="43.76959" lon="7.38854">
        <ele>551</ele>
        <time>2012-05-08T06:47:00.000Z</time>
      </trkpt>
      <trkpt lat="43.76956" lon="7.38848">
        <ele>548</ele>
        <time>2012-05-08T06:47:10.000Z</time>
      </trkpt>
      <trkpt lat="43.76958" lon="7.38841">
        <ele>543</ele>
        <time>2012-05-08T06:47:31.000Z</time>
      </trkpt>
      <trkpt lat="43.7696" lon="7.38835">
        <ele>544</ele>
        <time>2012-05-08T06:47:40.000Z</time>
      </trkpt>
      <trkpt lat="43.76961" lon="7.38828">
        <ele>541</ele>
        <time>2012-05-08T06:47:52.000Z</time>
      </trkpt>
      <trkpt lat="43.76963" lon="7.38821">
        <ele>543</ele>
        <time>2012-05-08T06:48:01.000Z</time>
      </trkpt>
      <trkpt lat="43.76964" lon="7.38815">
        <ele>542</ele>
        <time>2012-05-08T06:48:09.000Z</time>
      </trkpt>
      <trkpt lat="43.76967" lon="7.3881">
        <ele>542</ele>
        <time>2012-05-08T06:48:13.000Z</time>
      </trkpt>
      <trkpt lat="43.76971" lon="7.38807">
        <ele>549</ele>
        <time>2012-05-08T06:48:20.000Z</time>
      </trkpt>
      <trkpt lat="43.76971" lon="7.38807">
        <ele>549</ele>
        <time>2012-05-08T06:48:20.000Z</time>
      </trkpt>
      <trkpt lat="43.76971" lon="7.38807">
        <ele>549</ele>
        <time>2012-05-08T06:48:24.000Z</time>
      </trkpt>
      <trkpt lat="43.76972" lon="7.388">
        <ele>540</ele>
        <time>2012-05-08T06:48:52.000Z</time>
      </trkpt>
      <trkpt lat="43.76973" lon="7.38793">
        <ele>540</ele>
        <time>2012-05-08T06:48:58.000Z</time>
      </trkpt>
      <trkpt lat="43.76975" lon="7.38788">
        <ele>543</ele>
        <time>2012-05-08T06:49:07.000Z</time>
      </trkpt>
      <trkpt lat="43.76976" lon="7.3878">
        <ele>540</ele>
        <time>2012-05-08T06:49:14.000Z</time>
      </trkpt>
      <trkpt lat="43.76979" lon="7.38776">
        <ele>537</ele>
        <time>2012-05-08T06:49:22.000Z</time>
      </trkpt>
      <trkpt lat="43.76983" lon="7.38771">
        <ele>533</ele>
        <time>2012-05-08T06:49:30.000Z</time>
      </trkpt>
      <trkpt lat="43.76985" lon="7.38765">
        <ele>528</ele>
        <time>2012-05-08T06:49:42.000Z</time>
      </trkpt>
      <trkpt lat="43.76987" lon="7.38759">
        <ele>527</ele>
        <time>2012-05-08T06:49:50.000Z</time>
      </trkpt>
      <trkpt lat="43.76989" lon="7.38752">
        <ele>524</ele>
        <time>2012-05-08T06:49:57.000Z</time>
      </trkpt>
      <trkpt lat="43.76992" lon="7.38747">
        <ele>531</ele>
        <time>2012-05-08T06:50:06.000Z</time>
      </trkpt>
      <trkpt lat="43.76987" lon="7.38745">
        <ele>515</ele>
        <time>2012-05-08T06:50:18.000Z</time>
      </trkpt>
      <trkpt lat="43.76987" lon="7.38752">
        <ele>514</ele>
        <time>2012-05-08T06:50:29.000Z</time>
      </trkpt>
      <trkpt lat="43.7699" lon="7.38756">
        <ele>515</ele>
        <time>2012-05-08T06:50:39.000Z</time>
      </trkpt>
      <trkpt lat="43.76988" lon="7.38762">
        <ele>512</ele>
        <time>2012-05-08T06:50:47.000Z</time>
      </trkpt>
      <trkpt lat="43.76986" lon="7.38756">
        <ele>525</ele>
        <time>2012-05-08T06:51:05.000Z</time>
      </trkpt>
      <trkpt lat="43.76985" lon="7.3875">
        <ele>521</ele>
        <time>2012-05-08T06:51:09.000Z</time>
      </trkpt>
      <trkpt lat="43.76986" lon="7.38743">
        <ele>523</ele>
        <time>2012-05-08T06:51:14.000Z</time>
      </trkpt>
      <trkpt lat="43.76986" lon="7.38736">
        <ele>522</ele>
        <time>2012-05-08T06:51:21.000Z</time>
      </trkpt>
      <trkpt lat="43.76986" lon="7.3873">
        <ele>524</ele>
        <time>2012-05-08T06:51:27.000Z</time>
      </trkpt>
      <trkpt lat="43.76988" lon="7.38724">
        <ele>519</ele>
        <time>2012-05-08T06:51:36.000Z</time>
      </trkpt>
      <trkpt lat="43.76991" lon="7.38718">
        <ele>507</ele>
        <time>2012-05-08T06:51:46.000Z</time>
      </trkpt>
      <trkpt lat="43.76992" lon="7.38711">
        <ele>512</ele>
        <time>2012-05-08T06:51:55.000Z</time>
      </trkpt>
      <trkpt lat="43.76993" lon="7.38705">
        <ele>520</ele>
        <time>2012-05-08T06:52:03.000Z</time>
      </trkpt>
      <trkpt lat="43.76994" lon="7.38698">
        <ele>515</ele>
        <time>2012-05-08T06:52:11.000Z</time>
      </trkpt>
      <trkpt lat="43.76996" lon="7.38693">
        <ele>511</ele>
        <time>2012-05-08T06:52:19.000Z</time>
      </trkpt>
      <trkpt lat="43.76998" lon="7.38687">
        <ele>512</ele>
        <time>2012-05-08T06:52:25.000Z</time>
      </trkpt>
      <trkpt lat="43.76998" lon="7.3868">
        <ele>512</ele>
        <time>2012-05-08T06:52:38.000Z</time>
      </trkpt>
      <trkpt lat="43.77002" lon="7.38675">
        <ele>508</ele>
        <time>2012-05-08T06:52:44.000Z</time>
      </trkpt>
      <trkpt lat="43.77005" lon="7.3867">
        <ele>507</ele>
        <time>2012-05-08T06:52:52.000Z</time>
      </trkpt>
      <trkpt lat="43.77008" lon="7.38665">
        <ele>512</ele>
        <time>2012-05-08T06:53:00.000Z</time>
      </trkpt>
      <trkpt lat="43.77009" lon="7.38659">
        <ele>505</ele>
        <time>2012-05-08T06:53:08.000Z</time>
      </trkpt>
      <trkpt lat="43.77012" lon="7.38654">
        <ele>505</ele>
        <time>2012-05-08T06:53:14.000Z</time>
      </trkpt>
      <trkpt lat="43.77015" lon="7.38648">
        <ele>507</ele>
        <time>2012-05-08T06:53:21.000Z</time>
      </trkpt>
      <trkpt lat="43.77017" lon="7.38642">
        <ele>510</ele>
        <time>2012-05-08T06:53:29.000Z</time>
      </trkpt>
      <trkpt lat="43.77018" lon="7.38636">
        <ele>509</ele>
        <time>2012-05-08T06:53:35.000Z</time>
      </trkpt>
      <trkpt lat="43.77021" lon="7.38631">
        <ele>512</ele>
        <time>2012-05-08T06:53:39.000Z</time>
      </trkpt>
      <trkpt lat="43.77025" lon="7.38627">
        <ele>510</ele>
        <time>2012-05-08T06:53:43.000Z</time>
      </trkpt>
      <trkpt lat="43.77028" lon="7.3862">
        <ele>512</ele>
        <time>2012-05-08T06:53:49.000Z</time>
      </trkpt>
      <trkpt lat="43.77029" lon="7.38614">
        <ele>521</ele>
        <time>2012-05-08T06:53:55.000Z</time>
      </trkpt>
      <trkpt lat="43.77031" lon="7.38607">
        <ele>518</ele>
        <time>2012-05-08T06:54:00.000Z</time>
      </trkpt>
      <trkpt lat="43.77034" lon="7.38602">
        <ele>518</ele>
        <time>2012-05-08T06:54:09.000Z</time>
      </trkpt>
      <trkpt lat="43.77038" lon="7.38598">
        <ele>512</ele>
        <time>2012-05-08T06:54:16.000Z</time>
      </trkpt>
      <trkpt lat="43.7704" lon="7.38592">
        <ele>514</ele>
        <time>2012-05-08T06:54:24.000Z</time>
      </trkpt>
      <trkpt lat="43.77045" lon="7.3859">
        <ele>510</ele>
        <time>2012-05-08T06:54:31.000Z</time>
      </trkpt>
      <trkpt lat="43.77048" lon="7.38586">
        <ele>513</ele>
        <time>2012-05-08T06:54:36.000Z</time>
      </trkpt>
      <trkpt lat="43.77052" lon="7.38581">
        <ele>513</ele>
        <time>2012-05-08T06:54:40.000Z</time>
      </trkpt>
      <trkpt lat="43.77055" lon="7.38576">
        <ele>513</ele>
        <time>2012-05-08T06:54:46.000Z</time>
      </trkpt>
      <trkpt lat="43.77059" lon="7.38571">
        <ele>515</ele>
        <time>2012-05-08T06:54:53.000Z</time>
      </trkpt>
      <trkpt lat="43.77062" lon="7.38567">
        <ele>514</ele>
        <time>2012-05-08T06:54:58.000Z</time>
      </trkpt>
      <trkpt lat="43.77067" lon="7.38565">
        <ele>512</ele>
        <time>2012-05-08T06:55:03.000Z</time>
      </trkpt>
      <trkpt lat="43.77072" lon="7.38562">
        <ele>515</ele>
        <time>2012-05-08T06:55:08.000Z</time>
      </trkpt>
      <trkpt lat="43.77077" lon="7.38561">
        <ele>512</ele>
        <time>2012-05-08T06:55:13.000Z</time>
      </trkpt>
      <trkpt lat="43.77082" lon="7.3856">
        <ele>508</ele>
        <time>2012-05-08T06:55:18.000Z</time>
      </trkpt>
      <trkpt lat="43.77087" lon="7.38558">
        <ele>514</ele>
        <time>2012-05-08T06:55:23.000Z</time>
      </trkpt>
      <trkpt lat="43.7709" lon="7.38553">
        <ele>517</ele>
        <time>2012-05-08T06:55:27.000Z</time>
      </trkpt>
      <trkpt lat="43.77093" lon="7.38546">
        <ele>519</ele>
        <time>2012-05-08T06:55:31.000Z</time>
      </trkpt>
      <trkpt lat="43.77095" lon="7.38541">
        <ele>519</ele>
        <time>2012-05-08T06:55:35.000Z</time>
      </trkpt>
      <trkpt lat="43.77099" lon="7.38537">
        <ele>515</ele>
        <time>2012-05-08T06:55:42.000Z</time>
      </trkpt>
      <trkpt lat="43.77104" lon="7.38534">
        <ele>510</ele>
        <time>2012-05-08T06:55:48.000Z</time>
      </trkpt>
      <trkpt lat="43.77108" lon="7.38528">
        <ele>509</ele>
        <time>2012-05-08T06:55:54.000Z</time>
      </trkpt>
      <trkpt lat="43.77111" lon="7.38523">
        <ele>506</ele>
        <time>2012-05-08T06:55:59.000Z</time>
      </trkpt>
      <trkpt lat="43.77113" lon="7.38517">
        <ele>510</ele>
        <time>2012-05-08T06:56:08.000Z</time>
      </trkpt>
      <trkpt lat="43.77116" lon="7.38511">
        <ele>508</ele>
        <time>2012-05-08T06:56:15.000Z</time>
      </trkpt>
      <trkpt lat="43.7712" lon="7.38509">
        <ele>513</ele>
        <time>2012-05-08T06:56:49.000Z</time>
      </trkpt>
      <trkpt lat="43.77125" lon="7.38507">
        <ele>513</ele>
        <time>2012-05-08T06:56:58.000Z</time>
      </trkpt>
      <trkpt lat="43.77121" lon="7.38511">
        <ele>509</ele>
        <time>2012-05-08T06:58:19.000Z</time>
      </trkpt>
      <trkpt lat="43.77121" lon="7.38511">
        <ele>509</ele>
        <time>2012-05-08T06:58:19.000Z</time>
      </trkpt>
      <trkpt lat="43.77121" lon="7.38511">
        <ele>509</ele>
        <time>2012-05-08T06:58:21.000Z</time>
      </trkpt>
      <trkpt lat="43.77116" lon="7.3851">
        <ele>504</ele>
        <time>2012-05-08T06:59:05.000Z</time>
      </trkpt>
      <trkpt lat="43.7711" lon="7.38508">
        <ele>496</ele>
        <time>2012-05-08T06:59:20.000Z</time>
      </trkpt>
      <trkpt lat="43.77106" lon="7.38506">
        <ele>504</ele>
        <time>2012-05-08T06:59:27.000Z</time>
      </trkpt>
      <trkpt lat="43.7711" lon="7.38502">
        <ele>507</ele>
        <time>2012-05-08T06:59:38.000Z</time>
      </trkpt>
      <trkpt lat="43.77116" lon="7.38501">
        <ele>511</ele>
        <time>2012-05-08T06:59:40.000Z</time>
      </trkpt>
      <trkpt lat="43.77121" lon="7.385">
        <ele>511</ele>
        <time>2012-05-08T06:59:42.000Z</time>
      </trkpt>
      <trkpt lat="43.77126" lon="7.38499">
        <ele>509</ele>
        <time>2012-05-08T06:59:45.000Z</time>
      </trkpt>
      <trkpt lat="43.77132" lon="7.38498">
        <ele>507</ele>
        <time>2012-05-08T06:59:48.000Z</time>
      </trkpt>
      <trkpt lat="43.77137" lon="7.38498">
        <ele>511</ele>
        <time>2012-05-08T06:59:51.000Z</time>
      </trkpt>
      <trkpt lat="43.77142" lon="7.38499">
        <ele>515</ele>
        <time>2012-05-08T06:59:55.000Z</time>
      </trkpt>
      <trkpt lat="43.77146" lon="7.38496">
        <ele>520</ele>
        <time>2012-05-08T07:00:02.000Z</time>
      </trkpt>
      <trkpt lat="43.7715" lon="7.38495">
        <ele>516</ele>
        <time>2012-05-08T07:00:08.000Z</time>
      </trkpt>
      <trkpt lat="43.77155" lon="7.38493">
        <ele>515</ele>
        <time>2012-05-08T07:00:12.000Z</time>
      </trkpt>
      <trkpt lat="43.7716" lon="7.38492">
        <ele>505</ele>
        <time>2012-05-08T07:00:17.000Z</time>
      </trkpt>
      <trkpt lat="43.77165" lon="7.38494">
        <ele>506</ele>
        <time>2012-05-08T07:00:24.000Z</time>
      </trkpt>
      <trkpt lat="43.7717" lon="7.38492">
        <ele>505</ele>
        <time>2012-05-08T07:00:30.000Z</time>
      </trkpt>
      <trkpt lat="43.77175" lon="7.38492">
        <ele>509</ele>
        <time>2012-05-08T07:00:33.000Z</time>
      </trkpt>
      <trkpt lat="43.7718" lon="7.38493">
        <ele>501</ele>
        <time>2012-05-08T07:00:37.000Z</time>
      </trkpt>
      <trkpt lat="43.7718" lon="7.38493">
        <ele>501</ele>
        <time>2012-05-08T07:00:37.000Z</time>
      </trkpt>
      <trkpt lat="43.7718" lon="7.38493">
        <ele>501</ele>
        <time>2012-05-08T07:00:44.000Z</time>
      </trkpt>
      <trkpt lat="43.77185" lon="7.38492">
        <ele>509</ele>
        <time>2012-05-08T07:01:49.000Z</time>
      </trkpt>
      <trkpt lat="43.7719" lon="7.38488">
        <ele>509</ele>
        <time>2012-05-08T07:01:54.000Z</time>
      </trkpt>
      <trkpt lat="43.77194" lon="7.38485">
        <ele>509</ele>
        <time>2012-05-08T07:01:58.000Z</time>
      </trkpt>
      <trkpt lat="43.77198" lon="7.38481">
        <ele>510</ele>
        <time>2012-05-08T07:02:02.000Z</time>
      </trkpt>
      <trkpt lat="43.77203" lon="7.38478">
        <ele>505</ele>
        <time>2012-05-08T07:02:07.000Z</time>
      </trkpt>
      <trkpt lat="43.77208" lon="7.38475">
        <ele>508</ele>
        <time>2012-05-08T07:02:14.000Z</time>
      </trkpt>
      <trkpt lat="43.77212" lon="7.38474">
        <ele>510</ele>
        <time>2012-05-08T07:02:19.000Z</time>
      </trkpt>
      <trkpt lat="43.77217" lon="7.3847">
        <ele>502</ele>
        <time>2012-05-08T07:02:24.000Z</time>
      </trkpt>
      <trkpt lat="43.77221" lon="7.38467">
        <ele>501</ele>
        <time>2012-05-08T07:02:29.000Z</time>
      </trkpt>
      <trkpt lat="43.77225" lon="7.38464">
        <ele>501</ele>
        <time>2012-05-08T07:02:35.000Z</time>
      </trkpt>
      <trkpt lat="43.7723" lon="7.38463">
        <ele>494</ele>
        <time>2012-05-08T07:03:08.000Z</time>
      </trkpt>
      <trkpt lat="43.77235" lon="7.38463">
        <ele>495</ele>
        <time>2012-05-08T07:03:16.000Z</time>
      </trkpt>
      <trkpt lat="43.77239" lon="7.38467">
        <ele>493</ele>
        <time>2012-05-08T07:03:31.000Z</time>
      </trkpt>
      <trkpt lat="43.77242" lon="7.38472">
        <ele>481</ele>
        <time>2012-05-08T07:03:37.000Z</time>
      </trkpt>
      <trkpt lat="43.77244" lon="7.38467">
        <ele>491</ele>
        <time>2012-05-08T07:03:50.000Z</time>
      </trkpt>
      <trkpt lat="43.77249" lon="7.38464">
        <ele>488</ele>
        <time>2012-05-08T07:03:55.000Z</time>
      </trkpt>
      <trkpt lat="43.77253" lon="7.38468">
        <ele>486</ele>
        <time>2012-05-08T07:04:00.000Z</time>
      </trkpt>
      <trkpt lat="43.77256" lon="7.38472">
        <ele>485</ele>
        <time>2012-05-08T07:04:07.000Z</time>
      </trkpt>
      <trkpt lat="43.77257" lon="7.38479">
        <ele>488</ele>
        <time>2012-05-08T07:04:15.000Z</time>
      </trkpt>
      <trkpt lat="43.7726" lon="7.38484">
        <ele>480</ele>
        <time>2012-05-08T07:04:25.000Z</time>
      </trkpt>
      <trkpt lat="43.77261" lon="7.38477">
        <ele>484</ele>
        <time>2012-05-08T07:04:39.000Z</time>
      </trkpt>
      <trkpt lat="43.77262" lon="7.38471">
        <ele>487</ele>
        <time>2012-05-08T07:04:49.000Z</time>
      </trkpt>
      <trkpt lat="43.77262" lon="7.38465">
        <ele>488</ele>
        <time>2012-05-08T07:04:54.000Z</time>
      </trkpt>
      <trkpt lat="43.77263" lon="7.38458">
        <ele>487</ele>
        <time>2012-05-08T07:05:01.000Z</time>
      </trkpt>
      <trkpt lat="43.77267" lon="7.38461">
        <ele>480</ele>
        <time>2012-05-08T07:05:10.000Z</time>
      </trkpt>
      <trkpt lat="43.7727" lon="7.38467">
        <ele>483</ele>
        <time>2012-05-08T07:05:18.000Z</time>
      </trkpt>
      <trkpt lat="43.7727" lon="7.38474">
        <ele>479</ele>
        <time>2012-05-08T07:05:24.000Z</time>
      </trkpt>
      <trkpt lat="43.77271" lon="7.3848">
        <ele>478</ele>
        <time>2012-05-08T07:05:29.000Z</time>
      </trkpt>
      <trkpt lat="43.77274" lon="7.38485">
        <ele>472</ele>
        <time>2012-05-08T07:05:39.000Z</time>
      </trkpt>
      <trkpt lat="43.77276" lon="7.3849">
        <ele>477</ele>
        <time>2012-05-08T07:05:48.000Z</time>
      </trkpt>
      <trkpt lat="43.7728" lon="7.38494">
        <ele>479</ele>
        <time>2012-05-08T07:05:55.000Z</time>
      </trkpt>
      <trkpt lat="43.77284" lon="7.38497">
        <ele>472</ele>
        <time>2012-05-08T07:06:07.000Z</time>
      </trkpt>
      <trkpt lat="43.77288" lon="7.38502">
        <ele>464</ele>
        <time>2012-05-08T07:06:13.000Z</time>
      </trkpt>
      <trkpt lat="43.77292" lon="7.38506">
        <ele>466</ele>
        <time>2012-05-08T07:06:18.000Z</time>
      </trkpt>
      <trkpt lat="43.77296" lon="7.38509">
        <ele>473</ele>
        <time>2012-05-08T07:06:25.000Z</time>
      </trkpt>
      <trkpt lat="43.773" lon="7.38513">
        <ele>469</ele>
        <time>2012-05-08T07:06:34.000Z</time>
      </trkpt>
      <trkpt lat="43.77304" lon="7.38519">
        <ele>462</ele>
        <time>2012-05-08T07:06:40.000Z</time>
      </trkpt>
      <trkpt lat="43.77308" lon="7.38523">
        <ele>463</ele>
        <time>2012-05-08T07:06:45.000Z</time>
      </trkpt>
      <trkpt lat="43.77312" lon="7.38524">
        <ele>460</ele>
        <time>2012-05-08T07:06:54.000Z</time>
      </trkpt>
      <trkpt lat="43.77316" lon="7.38527">
        <ele>465</ele>
        <time>2012-05-08T07:07:08.000Z</time>
      </trkpt>
      <trkpt lat="43.77319" lon="7.38534">
        <ele>461</ele>
        <time>2012-05-08T07:07:19.000Z</time>
      </trkpt>
      <trkpt lat="43.77322" lon="7.38539">
        <ele>461</ele>
        <time>2012-05-08T07:07:23.000Z</time>
      </trkpt>
      <trkpt lat="43.77326" lon="7.38543">
        <ele>466</ele>
        <time>2012-05-08T07:07:27.000Z</time>
      </trkpt>
      <trkpt lat="43.7733" lon="7.38546">
        <ele>456</ele>
        <time>2012-05-08T07:07:31.000Z</time>
      </trkpt>
      <trkpt lat="43.77335" lon="7.38546">
        <ele>457</ele>
        <time>2012-05-08T07:07:35.000Z</time>
      </trkpt>
      <trkpt lat="43.7734" lon="7.38548">
        <ele>460</ele>
        <time>2012-05-08T07:07:39.000Z</time>
      </trkpt>
      <trkpt lat="43.77343" lon="7.38552">
        <ele>462</ele>
        <time>2012-05-08T07:07:44.000Z</time>
      </trkpt>
      <trkpt lat="43.77348" lon="7.38553">
        <ele>456</ele>
        <time>2012-05-08T07:07:49.000Z</time>
      </trkpt>
      <trkpt lat="43.77352" lon="7.38555">
        <ele>460</ele>
        <time>2012-05-08T07:07:58.000Z</time>
      </trkpt>
      <trkpt lat="43.77355" lon="7.3856">
        <ele>460</ele>
        <time>2012-05-08T07:08:07.000Z</time>
      </trkpt>
      <trkpt lat="43.77359" lon="7.38562">
        <ele>453</ele>
        <time>2012-05-08T07:08:17.000Z</time>
      </trkpt>
      <trkpt lat="43.77364" lon="7.38565">
        <ele>456</ele>
        <time>2012-05-08T07:08:27.000Z</time>
      </trkpt>
      <trkpt lat="43.77368" lon="7.38567">
        <ele>462</ele>
        <time>2012-05-08T07:08:35.000Z</time>
      </trkpt>
      <trkpt lat="43.77372" lon="7.38571">
        <ele>455</ele>
        <time>2012-05-08T07:08:57.000Z</time>
      </trkpt>
      <trkpt lat="43.77376" lon="7.38569">
        <ele>459</ele>
        <time>2012-05-08T07:09:23.000Z</time>
      </trkpt>
      <trkpt lat="43.77381" lon="7.3857">
        <ele>458</ele>
        <time>2012-05-08T07:09:26.000Z</time>
      </trkpt>
      <trkpt lat="43.77387" lon="7.38572">
        <ele>449</ele>
        <time>2012-05-08T07:09:29.000Z</time>
      </trkpt>
      <trkpt lat="43.77393" lon="7.38573">
        <ele>450</ele>
        <time>2012-05-08T07:09:32.000Z</time>
      </trkpt>
      <trkpt lat="43.77397" lon="7.38576">
        <ele>450</ele>
        <time>2012-05-08T07:09:35.000Z</time>
      </trkpt>
      <trkpt lat="43.77402" lon="7.3858">
        <ele>451</ele>
        <time>2012-05-08T07:09:39.000Z</time>
      </trkpt>
      <trkpt lat="43.77405" lon="7.38584">
        <ele>460</ele>
        <time>2012-05-08T07:09:47.000Z</time>
      </trkpt>
      <trkpt lat="43.77405" lon="7.3859">
        <ele>458</ele>
        <time>2012-05-08T07:09:58.000Z</time>
      </trkpt>
      <trkpt lat="43.77405" lon="7.38597">
        <ele>450</ele>
        <time>2012-05-08T07:10:02.000Z</time>
      </trkpt>
      <trkpt lat="43.77404" lon="7.38604">
        <ele>450</ele>
        <time>2012-05-08T07:10:05.000Z</time>
      </trkpt>
      <trkpt lat="43.77405" lon="7.38611">
        <ele>448</ele>
        <time>2012-05-08T07:10:09.000Z</time>
      </trkpt>
      <trkpt lat="43.77406" lon="7.38617">
        <ele>451</ele>
        <time>2012-05-08T07:10:13.000Z</time>
      </trkpt>
      <trkpt lat="43.77407" lon="7.38625">
        <ele>448</ele>
        <time>2012-05-08T07:10:18.000Z</time>
      </trkpt>
      <trkpt lat="43.77407" lon="7.38631">
        <ele>446</ele>
        <time>2012-05-08T07:10:25.000Z</time>
      </trkpt>
      <trkpt lat="43.7741" lon="7.38636">
        <ele>441</ele>
        <time>2012-05-08T07:11:19.000Z</time>
      </trkpt>
      <trkpt lat="43.77414" lon="7.38638">
        <ele>437</ele>
        <time>2012-05-08T07:12:51.000Z</time>
      </trkpt>
      <trkpt lat="43.77414" lon="7.38638">
        <ele>437</ele>
        <time>2012-05-08T07:12:51.000Z</time>
      </trkpt>
      <trkpt lat="43.77414" lon="7.38638">
        <ele>437</ele>
        <time>2012-05-08T07:12:55.000Z</time>
      </trkpt>
      <trkpt lat="43.77418" lon="7.38634">
        <ele>445</ele>
        <time>2012-05-08T07:12:57.000Z</time>
      </trkpt>
      <trkpt lat="43.77421" lon="7.3863">
        <ele>448</ele>
        <time>2012-05-08T07:13:01.000Z</time>
      </trkpt>
      <trkpt lat="43.77425" lon="7.38625">
        <ele>451</ele>
        <time>2012-05-08T07:13:20.000Z</time>
      </trkpt>
      <trkpt lat="43.77427" lon="7.38619">
        <ele>443</ele>
        <time>2012-05-08T07:13:50.000Z</time>
      </trkpt>
      <trkpt lat="43.77432" lon="7.38618">
        <ele>435</ele>
        <time>2012-05-08T07:14:18.000Z</time>
      </trkpt>
      <trkpt lat="43.77436" lon="7.38621">
        <ele>428</ele>
        <time>2012-05-08T07:14:27.000Z</time>
      </trkpt>
      <trkpt lat="43.7744" lon="7.38618">
        <ele>433</ele>
        <time>2012-05-08T07:14:44.000Z</time>
      </trkpt>
      <trkpt lat="43.77442" lon="7.38624">
        <ele>422</ele>
        <time>2012-05-08T07:15:21.000Z</time>
      </trkpt>
      <trkpt lat="43.77442" lon="7.38624">
        <ele>422</ele>
        <time>2012-05-08T07:15:21.000Z</time>
      </trkpt>
      <trkpt lat="43.77442" lon="7.38624">
        <ele>422</ele>
        <time>2012-05-08T07:15:31.000Z</time>
      </trkpt>
      <trkpt lat="43.7744" lon="7.3863">
        <ele>419</ele>
        <time>2012-05-08T07:15:40.000Z</time>
      </trkpt>
      <trkpt lat="43.77438" lon="7.38636">
        <ele>427</ele>
        <time>2012-05-08T07:16:06.000Z</time>
      </trkpt>
      <trkpt lat="43.77442" lon="7.3864">
        <ele>418</ele>
        <time>2012-05-08T07:16:23.000Z</time>
      </trkpt>
      <trkpt lat="43.77447" lon="7.38646">
        <ele>422</ele>
        <time>2012-05-08T07:16:33.000Z</time>
      </trkpt>
      <trkpt lat="43.7745" lon="7.3865">
        <ele>448</ele>
        <time>2012-05-08T07:16:56.000Z</time>
      </trkpt>
      <trkpt lat="43.7745" lon="7.3865">
        <ele>448</ele>
        <time>2012-05-08T07:16:56.000Z</time>
      </trkpt>
      <trkpt lat="43.7745" lon="7.3865">
        <ele>448</ele>
        <time>2012-05-08T07:17:12.000Z</time>
      </trkpt>
      <trkpt lat="43.77453" lon="7.38656">
        <ele>442</ele>
        <time>2012-05-08T07:17:18.000Z</time>
      </trkpt>
      <trkpt lat="43.77457" lon="7.3866">
        <ele>443</ele>
        <time>2012-05-08T07:17:25.000Z</time>
      </trkpt>
      <trkpt lat="43.77461" lon="7.38664">
        <ele>441</ele>
        <time>2012-05-08T07:17:38.000Z</time>
      </trkpt>
      <trkpt lat="43.77465" lon="7.38666">
        <ele>441</ele>
        <time>2012-05-08T07:17:42.000Z</time>
      </trkpt>
      <trkpt lat="43.77472" lon="7.38669">
        <ele>430</ele>
        <time>2012-05-08T07:17:50.000Z</time>
      </trkpt>
      <trkpt lat="43.77479" lon="7.38669">
        <ele>434</ele>
        <time>2012-05-08T07:17:57.000Z</time>
      </trkpt>
      <trkpt lat="43.77484" lon="7.3867">
        <ele>420</ele>
        <time>2012-05-08T07:17:59.000Z</time>
      </trkpt>
      <trkpt lat="43.7749" lon="7.3867">
        <ele>400</ele>
        <time>2012-05-08T07:18:02.000Z</time>
      </trkpt>
      <trkpt lat="43.7749" lon="7.3867">
        <ele>400</ele>
        <time>2012-05-08T07:18:02.000Z</time>
      </trkpt>
      <trkpt lat="43.7749" lon="7.3867">
        <ele>400</ele>
        <time>2012-05-08T07:18:09.000Z</time>
      </trkpt>
      <trkpt lat="43.77495" lon="7.38669">
        <ele>417</ele>
        <time>2012-05-08T07:18:16.000Z</time>
      </trkpt>
      <trkpt lat="43.77498" lon="7.38664">
        <ele>418</ele>
        <time>2012-05-08T07:18:27.000Z</time>
      </trkpt>
      <trkpt lat="43.775" lon="7.38659">
        <ele>423</ele>
        <time>2012-05-08T07:18:31.000Z</time>
      </trkpt>
      <trkpt lat="43.77502" lon="7.38652">
        <ele>422</ele>
        <time>2012-05-08T07:18:34.000Z</time>
      </trkpt>
      <trkpt lat="43.77503" lon="7.38647">
        <ele>420</ele>
        <time>2012-05-08T07:18:36.000Z</time>
      </trkpt>
      <trkpt lat="43.77506" lon="7.38641">
        <ele>416</ele>
        <time>2012-05-08T07:18:41.000Z</time>
      </trkpt>
      <trkpt lat="43.77509" lon="7.38636">
        <ele>419</ele>
        <time>2012-05-08T07:18:50.000Z</time>
      </trkpt>
      <trkpt lat="43.77513" lon="7.38633">
        <ele>414</ele>
        <time>2012-05-08T07:18:56.000Z</time>
      </trkpt>
      <trkpt lat="43.77517" lon="7.38629">
        <ele>411</ele>
        <time>2012-05-08T07:19:04.000Z</time>
      </trkpt>
      <trkpt lat="43.77522" lon="7.38627">
        <ele>412</ele>
        <time>2012-05-08T07:19:12.000Z</time>
      </trkpt>
      <trkpt lat="43.77526" lon="7.38625">
        <ele>409</ele>
        <time>2012-05-08T07:19:18.000Z</time>
      </trkpt>
      <trkpt lat="43.77531" lon="7.38623">
        <ele>408</ele>
        <time>2012-05-08T07:19:24.000Z</time>
      </trkpt>
      <trkpt lat="43.77535" lon="7.38619">
        <ele>405</ele>
        <time>2012-05-08T07:19:30.000Z</time>
      </trkpt>
      <trkpt lat="43.7754" lon="7.38614">
        <ele>409</ele>
        <time>2012-05-08T07:19:35.000Z</time>
      </trkpt>
      <trkpt lat="43.77544" lon="7.38612">
        <ele>407</ele>
        <time>2012-05-08T07:19:41.000Z</time>
      </trkpt>
      <trkpt lat="43.77548" lon="7.38608">
        <ele>412</ele>
        <time>2012-05-08T07:19:47.000Z</time>
      </trkpt>
      <trkpt lat="43.77553" lon="7.38608">
        <ele>412</ele>
        <time>2012-05-08T07:19:55.000Z</time>
      </trkpt>
      <trkpt lat="43.77557" lon="7.38605">
        <ele>412</ele>
        <time>2012-05-08T07:20:02.000Z</time>
      </trkpt>
      <trkpt lat="43.77562" lon="7.38605">
        <ele>411</ele>
        <time>2012-05-08T07:20:10.000Z</time>
      </trkpt>
      <trkpt lat="43.77566" lon="7.38606">
        <ele>416</ele>
        <time>2012-05-08T07:20:18.000Z</time>
      </trkpt>
      <trkpt lat="43.7757" lon="7.38601">
        <ele>418</ele>
        <time>2012-05-08T07:20:23.000Z</time>
      </trkpt>
      <trkpt lat="43.77573" lon="7.38596">
        <ele>421</ele>
        <time>2012-05-08T07:20:29.000Z</time>
      </trkpt>
      <trkpt lat="43.77575" lon="7.3859">
        <ele>421</ele>
        <time>2012-05-08T07:20:38.000Z</time>
      </trkpt>
      <trkpt lat="43.77579" lon="7.38587">
        <ele>419</ele>
        <time>2012-05-08T07:20:49.000Z</time>
      </trkpt>
      <trkpt lat="43.77582" lon="7.38581">
        <ele>418</ele>
        <time>2012-05-08T07:20:55.000Z</time>
      </trkpt>
      <trkpt lat="43.77585" lon="7.38575">
        <ele>423</ele>
        <time>2012-05-08T07:21:01.000Z</time>
      </trkpt>
      <trkpt lat="43.77589" lon="7.38573">
        <ele>423</ele>
        <time>2012-05-08T07:21:09.000Z</time>
      </trkpt>
      <trkpt lat="43.77593" lon="7.38567">
        <ele>423</ele>
        <time>2012-05-08T07:21:18.000Z</time>
      </trkpt>
      <trkpt lat="43.77596" lon="7.38562">
        <ele>425</ele>
        <time>2012-05-08T07:21:24.000Z</time>
      </trkpt>
      <trkpt lat="43.776" lon="7.38558">
        <ele>426</ele>
        <time>2012-05-08T07:21:29.000Z</time>
      </trkpt>
      <trkpt lat="43.77604" lon="7.38555">
        <ele>428</ele>
        <time>2012-05-08T07:21:34.000Z</time>
      </trkpt>
      <trkpt lat="43.77609" lon="7.38552">
        <ele>431</ele>
        <time>2012-05-08T07:21:39.000Z</time>
      </trkpt>
      <trkpt lat="43.77612" lon="7.38547">
        <ele>425</ele>
        <time>2012-05-08T07:21:45.000Z</time>
      </trkpt>
      <trkpt lat="43.77615" lon="7.38542">
        <ele>424</ele>
        <time>2012-05-08T07:21:51.000Z</time>
      </trkpt>
      <trkpt lat="43.7762" lon="7.38539">
        <ele>422</ele>
        <time>2012-05-08T07:21:58.000Z</time>
      </trkpt>
      <trkpt lat="43.77625" lon="7.38537">
        <ele>423</ele>
        <time>2012-05-08T07:22:04.000Z</time>
      </trkpt>
      <trkpt lat="43.77629" lon="7.38536">
        <ele>420</ele>
        <time>2012-05-08T07:22:08.000Z</time>
      </trkpt>
      <trkpt lat="43.77634" lon="7.38534">
        <ele>424</ele>
        <time>2012-05-08T07:22:13.000Z</time>
      </trkpt>
      <trkpt lat="43.77638" lon="7.38532">
        <ele>424</ele>
        <time>2012-05-08T07:22:18.000Z</time>
      </trkpt>
      <trkpt lat="43.77642" lon="7.38532">
        <ele>419</ele>
        <time>2012-05-08T07:22:28.000Z</time>
      </trkpt>
      <trkpt lat="43.77646" lon="7.38535">
        <ele>404</ele>
        <time>2012-05-08T07:22:38.000Z</time>
      </trkpt>
      <trkpt lat="43.77651" lon="7.38535">
        <ele>425</ele>
        <time>2012-05-08T07:22:53.000Z</time>
      </trkpt>
      <trkpt lat="43.77652" lon="7.38541">
        <ele>431</ele>
        <time>2012-05-08T07:22:57.000Z</time>
      </trkpt>
      <trkpt lat="43.77652" lon="7.38548">
        <ele>429</ele>
        <time>2012-05-08T07:23:01.000Z</time>
      </trkpt>
      <trkpt lat="43.77656" lon="7.38553">
        <ele>412</ele>
        <time>2012-05-08T07:23:15.000Z</time>
      </trkpt>
      <trkpt lat="43.77659" lon="7.38558">
        <ele>422</ele>
        <time>2012-05-08T07:23:20.000Z</time>
      </trkpt>
      <trkpt lat="43.77661" lon="7.38564">
        <ele>418</ele>
        <time>2012-05-08T07:23:25.000Z</time>
      </trkpt>
      <trkpt lat="43.77665" lon="7.38567">
        <ele>419</ele>
        <time>2012-05-08T07:23:35.000Z</time>
      </trkpt>
      <trkpt lat="43.77669" lon="7.38564">
        <ele>412</ele>
        <time>2012-05-08T07:23:43.000Z</time>
      </trkpt>
      <trkpt lat="43.77674" lon="7.38565">
        <ele>418</ele>
        <time>2012-05-08T07:23:48.000Z</time>
      </trkpt>
      <trkpt lat="43.77679" lon="7.38567">
        <ele>425</ele>
        <time>2012-05-08T07:23:52.000Z</time>
      </trkpt>
      <trkpt lat="43.77684" lon="7.3857">
        <ele>441</ele>
        <time>2012-05-08T07:23:57.000Z</time>
      </trkpt>
      <trkpt lat="43.77687" lon="7.38574">
        <ele>434</ele>
        <time>2012-05-08T07:24:04.000Z</time>
      </trkpt>
      <trkpt lat="43.77683" lon="7.38578">
        <ele>422</ele>
        <time>2012-05-08T07:24:19.000Z</time>
      </trkpt>
      <trkpt lat="43.77688" lon="7.38578">
        <ele>415</ele>
        <time>2012-05-08T07:24:23.000Z</time>
      </trkpt>
      <trkpt lat="43.77693" lon="7.38578">
        <ele>414</ele>
        <time>2012-05-08T07:24:27.000Z</time>
      </trkpt>
      <trkpt lat="43.77698" lon="7.38579">
        <ele>413</ele>
        <time>2012-05-08T07:24:32.000Z</time>
      </trkpt>
      <trkpt lat="43.77704" lon="7.38579">
        <ele>411</ele>
        <time>2012-05-08T07:24:36.000Z</time>
      </trkpt>
      <trkpt lat="43.77708" lon="7.38578">
        <ele>408</ele>
        <time>2012-05-08T07:24:39.000Z</time>
      </trkpt>
      <trkpt lat="43.77714" lon="7.38578">
        <ele>414</ele>
        <time>2012-05-08T07:24:43.000Z</time>
      </trkpt>
      <trkpt lat="43.7772" lon="7.3858">
        <ele>411</ele>
        <time>2012-05-08T07:24:46.000Z</time>
      </trkpt>
      <trkpt lat="43.77725" lon="7.38582">
        <ele>405</ele>
        <time>2012-05-08T07:24:49.000Z</time>
      </trkpt>
      <trkpt lat="43.77729" lon="7.38584">
        <ele>403</ele>
        <time>2012-05-08T07:24:53.000Z</time>
      </trkpt>
      <trkpt lat="43.77734" lon="7.38588">
        <ele>402</ele>
        <time>2012-05-08T07:24:57.000Z</time>
      </trkpt>
      <trkpt lat="43.77738" lon="7.3859">
        <ele>407</ele>
        <time>2012-05-08T07:25:04.000Z</time>
      </trkpt>
      <trkpt lat="43.77744" lon="7.3859">
        <ele>421</ele>
        <time>2012-05-08T07:26:28.000Z</time>
      </trkpt>
      <trkpt lat="43.77749" lon="7.38591">
        <ele>423</ele>
        <time>2012-05-08T07:26:31.000Z</time>
      </trkpt>
      <trkpt lat="43.77754" lon="7.38594">
        <ele>418</ele>
        <time>2012-05-08T07:26:37.000Z</time>
      </trkpt>
      <trkpt lat="43.77758" lon="7.38596">
        <ele>411</ele>
        <time>2012-05-08T07:26:48.000Z</time>
      </trkpt>
      <trkpt lat="43.77761" lon="7.38602">
        <ele>412</ele>
        <time>2012-05-08T07:26:54.000Z</time>
      </trkpt>
      <trkpt lat="43.77758" lon="7.38607">
        <ele>416</ele>
        <time>2012-05-08T07:27:15.000Z</time>
      </trkpt>
      <trkpt lat="43.77762" lon="7.38608">
        <ele>421</ele>
        <time>2012-05-08T07:27:45.000Z</time>
      </trkpt>
      <trkpt lat="43.77767" lon="7.38611">
        <ele>418</ele>
        <time>2012-05-08T07:27:55.000Z</time>
      </trkpt>
      <trkpt lat="43.77771" lon="7.38612">
        <ele>418</ele>
        <time>2012-05-08T07:28:02.000Z</time>
      </trkpt>
      <trkpt lat="43.77776" lon="7.38613">
        <ele>416</ele>
        <time>2012-05-08T07:28:15.000Z</time>
      </trkpt>
      <trkpt lat="43.7778" lon="7.38615">
        <ele>407</ele>
        <time>2012-05-08T07:28:33.000Z</time>
      </trkpt>
      <trkpt lat="43.77785" lon="7.38616">
        <ele>406</ele>
        <time>2012-05-08T07:28:49.000Z</time>
      </trkpt>
      <trkpt lat="43.77791" lon="7.3862">
        <ele>402</ele>
        <time>2012-05-08T07:28:57.000Z</time>
      </trkpt>
      <trkpt lat="43.77796" lon="7.38624">
        <ele>403</ele>
        <time>2012-05-08T07:28:58.000Z</time>
      </trkpt>
      <trkpt lat="43.77801" lon="7.38628">
        <ele>403</ele>
        <time>2012-05-08T07:29:00.000Z</time>
      </trkpt>
      <trkpt lat="43.77806" lon="7.38631">
        <ele>407</ele>
        <time>2012-05-08T07:29:02.000Z</time>
      </trkpt>
      <trkpt lat="43.77811" lon="7.38634">
        <ele>410</ele>
        <time>2012-05-08T07:29:04.000Z</time>
      </trkpt>
      <trkpt lat="43.77816" lon="7.38636">
        <ele>404</ele>
        <time>2012-05-08T07:29:08.000Z</time>
      </trkpt>
      <trkpt lat="43.77821" lon="7.38636">
        <ele>405</ele>
        <time>2012-05-08T07:29:14.000Z</time>
      </trkpt>
      <trkpt lat="43.77825" lon="7.38631">
        <ele>404</ele>
        <time>2012-05-08T07:29:17.000Z</time>
      </trkpt>
      <trkpt lat="43.7783" lon="7.38626">
        <ele>401</ele>
        <time>2012-05-08T07:29:20.000Z</time>
      </trkpt>
      <trkpt lat="43.77834" lon="7.38622">
        <ele>405</ele>
        <time>2012-05-08T07:29:24.000Z</time>
      </trkpt>
      <trkpt lat="43.77839" lon="7.38619">
        <ele>404</ele>
        <time>2012-05-08T07:29:28.000Z</time>
      </trkpt>
      <trkpt lat="43.77844" lon="7.38617">
        <ele>403</ele>
        <time>2012-05-08T07:29:32.000Z</time>
      </trkpt>
      <trkpt lat="43.77848" lon="7.38613">
        <ele>405</ele>
        <time>2012-05-08T07:29:42.000Z</time>
      </trkpt>
      <trkpt lat="43.7785" lon="7.38607">
        <ele>404</ele>
        <time>2012-05-08T07:29:46.000Z</time>
      </trkpt>
      <trkpt lat="43.77849" lon="7.386">
        <ele>398</ele>
        <time>2012-05-08T07:29:54.000Z</time>
      </trkpt>
      <trkpt lat="43.77852" lon="7.38597">
        <ele>395</ele>
        <time>2012-05-08T07:30:16.000Z</time>
      </trkpt>
      <trkpt lat="43.77855" lon="7.38592">
        <ele>397</ele>
        <time>2012-05-08T07:30:25.000Z</time>
      </trkpt>
      <trkpt lat="43.77859" lon="7.38587">
        <ele>401</ele>
        <time>2012-05-08T07:30:31.000Z</time>
      </trkpt>
      <trkpt lat="43.77862" lon="7.38582">
        <ele>408</ele>
        <time>2012-05-08T07:30:35.000Z</time>
      </trkpt>
      <trkpt lat="43.77865" lon="7.38577">
        <ele>408</ele>
        <time>2012-05-08T07:30:39.001Z</time>
      </trkpt>
      <trkpt lat="43.77869" lon="7.38573">
        <ele>405</ele>
        <time>2012-05-08T07:30:44.000Z</time>
      </trkpt>
      <trkpt lat="43.77872" lon="7.38568">
        <ele>406</ele>
        <time>2012-05-08T07:30:49.000Z</time>
      </trkpt>
      <trkpt lat="43.77876" lon="7.38565">
        <ele>406</ele>
        <time>2012-05-08T07:30:54.000Z</time>
      </trkpt>
      <trkpt lat="43.77881" lon="7.38562">
        <ele>407</ele>
        <time>2012-05-08T07:30:59.000Z</time>
      </trkpt>
      <trkpt lat="43.77885" lon="7.38558">
        <ele>405</ele>
        <time>2012-05-08T07:31:05.000Z</time>
      </trkpt>
      <trkpt lat="43.7789" lon="7.38556">
        <ele>407</ele>
        <time>2012-05-08T07:31:10.000Z</time>
      </trkpt>
      <trkpt lat="43.77894" lon="7.38555">
        <ele>412</ele>
        <time>2012-05-08T07:31:16.000Z</time>
      </trkpt>
      <trkpt lat="43.77898" lon="7.3855">
        <ele>412</ele>
        <time>2012-05-08T07:31:38.000Z</time>
      </trkpt>
      <trkpt lat="43.77901" lon="7.38546">
        <ele>414</ele>
        <time>2012-05-08T07:31:44.000Z</time>
      </trkpt>
      <trkpt lat="43.77905" lon="7.38541">
        <ele>414</ele>
        <time>2012-05-08T07:31:52.000Z</time>
      </trkpt>
      <trkpt lat="43.77907" lon="7.38534">
        <ele>414</ele>
        <time>2012-05-08T07:31:57.000Z</time>
      </trkpt>
      <trkpt lat="43.77908" lon="7.38528">
        <ele>411</ele>
        <time>2012-05-08T07:32:01.000Z</time>
      </trkpt>
      <trkpt lat="43.7791" lon="7.38521">
        <ele>419</ele>
        <time>2012-05-08T07:32:06.000Z</time>
      </trkpt>
      <trkpt lat="43.77912" lon="7.38516">
        <ele>412</ele>
        <time>2012-05-08T07:32:14.000Z</time>
      </trkpt>
      <trkpt lat="43.77915" lon="7.3851">
        <ele>412</ele>
        <time>2012-05-08T07:32:20.000Z</time>
      </trkpt>
      <trkpt lat="43.77917" lon="7.38503">
        <ele>412</ele>
        <time>2012-05-08T07:32:26.000Z</time>
      </trkpt>
      <trkpt lat="43.7792" lon="7.38497">
        <ele>408</ele>
        <time>2012-05-08T07:32:31.000Z</time>
      </trkpt>
      <trkpt lat="43.7792" lon="7.3849">
        <ele>413</ele>
        <time>2012-05-08T07:32:36.000Z</time>
      </trkpt>
      <trkpt lat="43.77921" lon="7.38483">
        <ele>411</ele>
        <time>2012-05-08T07:32:46.000Z</time>
      </trkpt>
      <trkpt lat="43.77922" lon="7.38476">
        <ele>413</ele>
        <time>2012-05-08T07:32:51.000Z</time>
      </trkpt>
      <trkpt lat="43.77924" lon="7.3847">
        <ele>417</ele>
        <time>2012-05-08T07:32:56.000Z</time>
      </trkpt>
      <trkpt lat="43.77926" lon="7.38464">
        <ele>418</ele>
        <time>2012-05-08T07:33:01.000Z</time>
      </trkpt>
      <trkpt lat="43.77928" lon="7.38458">
        <ele>417</ele>
        <time>2012-05-08T07:33:10.000Z</time>
      </trkpt>
      <trkpt lat="43.77929" lon="7.38451">
        <ele>422</ele>
        <time>2012-05-08T07:33:23.000Z</time>
      </trkpt>
      <trkpt lat="43.7793" lon="7.38444">
        <ele>423</ele>
        <time>2012-05-08T07:33:27.000Z</time>
      </trkpt>
      <trkpt lat="43.77931" lon="7.38436">
        <ele>424</ele>
        <time>2012-05-08T07:33:31.000Z</time>
      </trkpt>
      <trkpt lat="43.77931" lon="7.38428">
        <ele>425</ele>
        <time>2012-05-08T07:33:34.000Z</time>
      </trkpt>
      <trkpt lat="43.77931" lon="7.3842">
        <ele>428</ele>
        <time>2012-05-08T07:33:38.000Z</time>
      </trkpt>
      <trkpt lat="43.77931" lon="7.38413">
        <ele>422</ele>
        <time>2012-05-08T07:33:42.000Z</time>
      </trkpt>
      <trkpt lat="43.7793" lon="7.38406">
        <ele>430</ele>
        <time>2012-05-08T07:33:47.000Z</time>
      </trkpt>
      <trkpt lat="43.77931" lon="7.384">
        <ele>428</ele>
        <time>2012-05-08T07:33:53.000Z</time>
      </trkpt>
      <trkpt lat="43.77931" lon="7.38393">
        <ele>427</ele>
        <time>2012-05-08T07:34:00.000Z</time>
      </trkpt>
      <trkpt lat="43.77932" lon="7.38387">
        <ele>422</ele>
        <time>2012-05-08T07:34:06.000Z</time>
      </trkpt>
      <trkpt lat="43.77933" lon="7.3838">
        <ele>427</ele>
        <time>2012-05-08T07:34:13.000Z</time>
      </trkpt>
      <trkpt lat="43.77934" lon="7.38373">
        <ele>424</ele>
        <time>2012-05-08T07:34:19.000Z</time>
      </trkpt>
      <trkpt lat="43.77934" lon="7.38366">
        <ele>429</ele>
        <time>2012-05-08T07:34:24.000Z</time>
      </trkpt>
      <trkpt lat="43.77937" lon="7.38359">
        <ele>430</ele>
        <time>2012-05-08T07:34:28.000Z</time>
      </trkpt>
      <trkpt lat="43.77938" lon="7.38352">
        <ele>430</ele>
        <time>2012-05-08T07:34:32.000Z</time>
      </trkpt>
      <trkpt lat="43.77939" lon="7.38346">
        <ele>427</ele>
        <time>2012-05-08T07:34:37.000Z</time>
      </trkpt>
      <trkpt lat="43.77937" lon="7.3834">
        <ele>433</ele>
        <time>2012-05-08T07:34:46.000Z</time>
      </trkpt>
      <trkpt lat="43.77932" lon="7.38336">
        <ele>425</ele>
        <time>2012-05-08T07:34:54.000Z</time>
      </trkpt>
      <trkpt lat="43.77927" lon="7.38336">
        <ele>422</ele>
        <time>2012-05-08T07:34:58.000Z</time>
      </trkpt>
      <trkpt lat="43.77922" lon="7.38333">
        <ele>424</ele>
        <time>2012-05-08T07:35:02.000Z</time>
      </trkpt>
      <trkpt lat="43.77919" lon="7.38328">
        <ele>426</ele>
        <time>2012-05-08T07:35:14.000Z</time>
      </trkpt>
      <trkpt lat="43.77915" lon="7.38325">
        <ele>423</ele>
        <time>2012-05-08T07:35:44.000Z</time>
      </trkpt>
      <trkpt lat="43.7791" lon="7.38325">
        <ele>425</ele>
        <time>2012-05-08T07:35:48.000Z</time>
      </trkpt>
      <trkpt lat="43.77905" lon="7.38323">
        <ele>418</ele>
        <time>2012-05-08T07:35:53.000Z</time>
      </trkpt>
      <trkpt lat="43.779" lon="7.3832">
        <ele>422</ele>
        <time>2012-05-08T07:36:00.000Z</time>
      </trkpt>
      <trkpt lat="43.77896" lon="7.38317">
        <ele>427</ele>
        <time>2012-05-08T07:36:09.000Z</time>
      </trkpt>
      <trkpt lat="43.77892" lon="7.38314">
        <ele>420</ele>
        <time>2012-05-08T07:36:13.000Z</time>
      </trkpt>
      <trkpt lat="43.77888" lon="7.38309">
        <ele>423</ele>
        <time>2012-05-08T07:36:18.000Z</time>
      </trkpt>
      <trkpt lat="43.77882" lon="7.38306">
        <ele>444</ele>
        <time>2012-05-08T07:37:36.000Z</time>
      </trkpt>
      <trkpt lat="43.77882" lon="7.38306">
        <ele>444</ele>
        <time>2012-05-08T07:37:36.000Z</time>
      </trkpt>
      <trkpt lat="43.77882" lon="7.38306">
        <ele>444</ele>
        <time>2012-05-08T07:37:37.000Z</time>
      </trkpt>
      <trkpt lat="43.77877" lon="7.38306">
        <ele>438</ele>
        <time>2012-05-08T07:37:44.000Z</time>
      </trkpt>
      <trkpt lat="43.77874" lon="7.383">
        <ele>429</ele>
        <time>2012-05-08T07:38:06.000Z</time>
      </trkpt>
      <trkpt lat="43.77872" lon="7.38293">
        <ele>427</ele>
        <time>2012-05-08T07:38:11.000Z</time>
      </trkpt>
      <trkpt lat="43.7787" lon="7.38288">
        <ele>420</ele>
        <time>2012-05-08T07:38:37.000Z</time>
      </trkpt>
      <trkpt lat="43.77867" lon="7.38282">
        <ele>429</ele>
        <time>2012-05-08T07:39:00.000Z</time>
      </trkpt>
      <trkpt lat="43.77863" lon="7.38277">
        <ele>431</ele>
        <time>2012-05-08T07:39:12.000Z</time>
      </trkpt>
      <trkpt lat="43.77863" lon="7.38277">
        <ele>431</ele>
        <time>2012-05-08T07:39:12.000Z</time>
      </trkpt>
      <trkpt lat="43.77863" lon="7.38277">
        <ele>431</ele>
        <time>2012-05-08T07:39:15.000Z</time>
      </trkpt>
      <trkpt lat="43.7786" lon="7.38273">
        <ele>441</ele>
        <time>2012-05-08T07:39:20.000Z</time>
      </trkpt>
      <trkpt lat="43.77855" lon="7.38268">
        <ele>434</ele>
        <time>2012-05-08T07:39:24.000Z</time>
      </trkpt>
      <trkpt lat="43.77852" lon="7.38264">
        <ele>439</ele>
        <time>2012-05-08T07:39:29.000Z</time>
      </trkpt>
      <trkpt lat="43.77847" lon="7.38261">
        <ele>438</ele>
        <time>2012-05-08T07:39:39.000Z</time>
      </trkpt>
      <trkpt lat="43.77843" lon="7.38263">
        <ele>435</ele>
        <time>2012-05-08T07:40:02.000Z</time>
      </trkpt>
      <trkpt lat="43.77838" lon="7.38262">
        <ele>436</ele>
        <time>2012-05-08T07:40:06.000Z</time>
      </trkpt>
      <trkpt lat="43.77833" lon="7.38261">
        <ele>434</ele>
        <time>2012-05-08T07:40:10.000Z</time>
      </trkpt>
      <trkpt lat="43.77828" lon="7.38258">
        <ele>427</ele>
        <time>2012-05-08T07:40:14.000Z</time>
      </trkpt>
      <trkpt lat="43.77824" lon="7.38256">
        <ele>421</ele>
        <time>2012-05-08T07:40:21.000Z</time>
      </trkpt>
      <trkpt lat="43.77819" lon="7.38255">
        <ele>412</ele>
        <time>2012-05-08T07:40:27.000Z</time>
      </trkpt>
      <trkpt lat="43.77824" lon="7.38255">
        <ele>407</ele>
        <time>2012-05-08T07:40:57.500Z</time>
      </trkpt>
      <trkpt lat="43.77828" lon="7.38256">
        <ele>407</ele>
        <time>2012-05-08T07:41:02.500Z</time>
      </trkpt>
      <trkpt lat="43.77833" lon="7.38258">
        <ele>407</ele>
        <time>2012-05-08T07:41:07.500Z</time>
      </trkpt>
      <trkpt lat="43.77803" lon="7.38261">
        <ele>413</ele>
        <time>2012-05-08T07:41:09.000Z</time>
      </trkpt>
      <trkpt lat="43.77798" lon="7.38256">
        <ele>418</ele>
        <time>2012-05-08T07:41:13.000Z</time>
      </trkpt>
      <trkpt lat="43.77794" lon="7.38251">
        <ele>421</ele>
        <time>2012-05-08T07:41:17.000Z</time>
      </trkpt>
      <trkpt lat="43.77796" lon="7.38245">
        <ele>425</ele>
        <time>2012-05-08T07:41:22.000Z</time>
      </trkpt>
      <trkpt lat="43.77799" lon="7.3824">
        <ele>426</ele>
        <time>2012-05-08T07:41:31.000Z</time>
      </trkpt>
      <trkpt lat="43.77798" lon="7.38233">
        <ele>429</ele>
        <time>2012-05-08T07:41:55.000Z</time>
      </trkpt>
      <trkpt lat="43.77798" lon="7.38233">
        <ele>429</ele>
        <time>2012-05-08T07:41:55.000Z</time>
      </trkpt>
      <trkpt lat="43.77798" lon="7.38233">
        <ele>429</ele>
        <time>2012-05-08T07:42:00.000Z</time>
      </trkpt>
      <trkpt lat="43.77795" lon="7.38225">
        <ele>428</ele>
        <time>2012-05-08T07:42:04.000Z</time>
      </trkpt>
      <trkpt lat="43.77793" lon="7.3822">
        <ele>426</ele>
        <time>2012-05-08T07:42:07.000Z</time>
      </trkpt>
      <trkpt lat="43.7779" lon="7.38213">
        <ele>418</ele>
        <time>2012-05-08T07:42:12.000Z</time>
      </trkpt>
      <trkpt lat="43.77793" lon="7.38208">
        <ele>420</ele>
        <time>2012-05-08T07:42:28.000Z</time>
      </trkpt>
      <trkpt lat="43.77789" lon="7.38204">
        <ele>435</ele>
        <time>2012-05-08T07:42:59.000Z</time>
      </trkpt>
      <trkpt lat="43.77783" lon="7.38206">
        <ele>428</ele>
        <time>2012-05-08T07:43:13.000Z</time>
      </trkpt>
      <trkpt lat="43.77778" lon="7.38208">
        <ele>429</ele>
        <time>2012-05-08T07:43:19.000Z</time>
      </trkpt>
      <trkpt lat="43.77774" lon="7.38205">
        <ele>435</ele>
        <time>2012-05-08T07:43:25.000Z</time>
      </trkpt>
      <trkpt lat="43.77773" lon="7.38212">
        <ele>435</ele>
        <time>2012-05-08T07:43:33.000Z</time>
      </trkpt>
      <trkpt lat="43.77771" lon="7.38218">
        <ele>439</ele>
        <time>2012-05-08T07:43:39.000Z</time>
      </trkpt>
      <trkpt lat="43.77769" lon="7.38223">
        <ele>438</ele>
        <time>2012-05-08T07:43:45.000Z</time>
      </trkpt>
      <trkpt lat="43.77773" lon="7.38224">
        <ele>445</ele>
        <time>2012-05-08T07:43:51.000Z</time>
      </trkpt>
      <trkpt lat="43.77773" lon="7.38224">
        <ele>445</ele>
        <time>2012-05-08T07:43:51.000Z</time>
      </trkpt>
      <trkpt lat="43.77773" lon="7.38224">
        <ele>445</ele>
        <time>2012-05-08T07:43:54.000Z</time>
      </trkpt>
      <trkpt lat="43.77778" lon="7.38226">
        <ele>454</ele>
        <time>2012-05-08T07:44:06.000Z</time>
      </trkpt>
      <trkpt lat="43.77783" lon="7.38224">
        <ele>453</ele>
        <time>2012-05-08T07:44:10.000Z</time>
      </trkpt>
      <trkpt lat="43.77783" lon="7.38218">
        <ele>446</ele>
        <time>2012-05-08T07:44:16.000Z</time>
      </trkpt>
      <trkpt lat="43.77779" lon="7.38216">
        <ele>452</ele>
        <time>2012-05-08T07:44:21.000Z</time>
      </trkpt>
      <trkpt lat="43.77774" lon="7.38216">
        <ele>448</ele>
        <time>2012-05-08T07:44:36.000Z</time>
      </trkpt>
      <trkpt lat="43.77769" lon="7.38217">
        <ele>445</ele>
        <time>2012-05-08T07:44:43.000Z</time>
      </trkpt>
      <trkpt lat="43.77765" lon="7.38218">
        <ele>443</ele>
        <time>2012-05-08T07:44:50.000Z</time>
      </trkpt>
      <trkpt lat="43.77765" lon="7.38218">
        <ele>443</ele>
        <time>2012-05-08T07:44:50.000Z</time>
      </trkpt>
      <trkpt lat="43.77765" lon="7.38218">
        <ele>443</ele>
        <time>2012-05-08T07:45:00.000Z</time>
      </trkpt>
      <trkpt lat="43.7776" lon="7.38219">
        <ele>448</ele>
        <time>2012-05-08T07:45:11.000Z</time>
      </trkpt>
      <trkpt lat="43.77764" lon="7.38221">
        <ele>453</ele>
        <time>2012-05-08T07:45:23.000Z</time>
      </trkpt>
      <trkpt lat="43.77766" lon="7.38228">
        <ele>445</ele>
        <time>2012-05-08T07:45:35.000Z</time>
      </trkpt>
      <trkpt lat="43.77768" lon="7.38233">
        <ele>452</ele>
        <time>2012-05-08T07:45:42.000Z</time>
      </trkpt>
      <trkpt lat="43.77772" lon="7.38238">
        <ele>454</ele>
        <time>2012-05-08T07:45:48.000Z</time>
      </trkpt>
      <trkpt lat="43.77768" lon="7.38236">
        <ele>452</ele>
        <time>2012-05-08T07:46:16.000Z</time>
      </trkpt>
      <trkpt lat="43.77763" lon="7.38236">
        <ele>454</ele>
        <time>2012-05-08T07:46:32.000Z</time>
      </trkpt>
      <trkpt lat="43.77766" lon="7.3824">
        <ele>453</ele>
        <time>2012-05-08T07:48:44.000Z</time>
      </trkpt>
      <trkpt lat="43.77768" lon="7.38246">
        <ele>453</ele>
        <time>2012-05-08T07:48:55.000Z</time>
      </trkpt>
      <trkpt lat="43.77765" lon="7.38241">
        <ele>452</ele>
        <time>2012-05-08T07:51:00.000Z</time>
      </trkpt>
      <trkpt lat="43.77768" lon="7.38237">
        <ele>454</ele>
        <time>2012-05-08T07:51:17.000Z</time>
      </trkpt>
      <trkpt lat="43.77773" lon="7.3824">
        <ele>452</ele>
        <time>2012-05-08T07:51:34.000Z</time>
      </trkpt>
      <trkpt lat="43.77778" lon="7.38242">
        <ele>457</ele>
        <time>2012-05-08T07:51:41.000Z</time>
      </trkpt>
      <trkpt lat="43.77781" lon="7.38238">
        <ele>457</ele>
        <time>2012-05-08T07:51:51.000Z</time>
      </trkpt>
      <trkpt lat="43.77778" lon="7.38242">
        <ele>461</ele>
        <time>2012-05-08T07:53:41.000Z</time>
      </trkpt>
      <trkpt lat="43.77778" lon="7.38242">
        <ele>461</ele>
        <time>2012-05-08T07:53:41.000Z</time>
      </trkpt>
      <trkpt lat="43.77778" lon="7.38242">
        <ele>461</ele>
        <time>2012-05-08T07:53:44.000Z</time>
      </trkpt>
      <trkpt lat="43.77781" lon="7.38238">
        <ele>445</ele>
        <time>2012-05-08T07:57:10.000Z</time>
      </trkpt>
      <trkpt lat="43.77781" lon="7.38238">
        <ele>445</ele>
        <time>2012-05-08T07:57:10.000Z</time>
      </trkpt>
      <trkpt lat="43.77781" lon="7.38238">
        <ele>445</ele>
        <time>2012-05-08T07:57:11.000Z</time>
      </trkpt>
      <trkpt lat="43.77777" lon="7.38233">
        <ele>444</ele>
        <time>2012-05-08T07:58:00.000Z</time>
      </trkpt>
      <trkpt lat="43.77775" lon="7.38226">
        <ele>443</ele>
        <time>2012-05-08T07:58:04.000Z</time>
      </trkpt>
      <trkpt lat="43.77771" lon="7.38223">
        <ele>445</ele>
        <time>2012-05-08T07:58:08.000Z</time>
      </trkpt>
      <trkpt lat="43.77766" lon="7.38223">
        <ele>452</ele>
        <time>2012-05-08T07:58:29.000Z</time>
      </trkpt>
      <trkpt lat="43.77769" lon="7.38228">
        <ele>449</ele>
        <time>2012-05-08T07:58:44.000Z</time>
      </trkpt>
      <trkpt lat="43.77772" lon="7.38233">
        <ele>445</ele>
        <time>2012-05-08T07:58:58.000Z</time>
      </trkpt>
      <trkpt lat="43.77776" lon="7.38237">
        <ele>446</ele>
        <time>2012-05-08T07:59:02.000Z</time>
      </trkpt>
      <trkpt lat="43.77779" lon="7.38241">
        <ele>450</ele>
        <time>2012-05-08T07:59:06.000Z</time>
      </trkpt>
      <trkpt lat="43.77784" lon="7.38244">
        <ele>454</ele>
        <time>2012-05-08T07:59:12.000Z</time>
      </trkpt>
      <trkpt lat="43.77784" lon="7.3825">
        <ele>434</ele>
        <time>2012-05-08T07:59:43.000Z</time>
      </trkpt>
      <trkpt lat="43.77783" lon="7.38256">
        <ele>455</ele>
        <time>2012-05-08T08:00:15.000Z</time>
      </trkpt>
      <trkpt lat="43.77784" lon="7.38249">
        <ele>446</ele>
        <time>2012-05-08T08:01:46.000Z</time>
      </trkpt>
      <trkpt lat="43.77782" lon="7.38243">
        <ele>446</ele>
        <time>2012-05-08T08:01:51.000Z</time>
      </trkpt>
      <trkpt lat="43.7778" lon="7.38237">
        <ele>442</ele>
        <time>2012-05-08T08:04:02.000Z</time>
      </trkpt>
      <trkpt lat="43.77776" lon="7.38233">
        <ele>442</ele>
        <time>2012-05-08T08:04:25.000Z</time>
      </trkpt>
      <trkpt lat="43.77771" lon="7.38232">
        <ele>448</ele>
        <time>2012-05-08T08:05:18.000Z</time>
      </trkpt>
      <trkpt lat="43.77766" lon="7.38229">
        <ele>449</ele>
        <time>2012-05-08T08:05:26.000Z</time>
      </trkpt>
      <trkpt lat="43.77762" lon="7.38224">
        <ele>448</ele>
        <time>2012-05-08T08:05:48.000Z</time>
      </trkpt>
      <trkpt lat="43.77767" lon="7.38221">
        <ele>447</ele>
        <time>2012-05-08T08:08:37.000Z</time>
      </trkpt>
      <trkpt lat="43.77772" lon="7.3822">
        <ele>449</ele>
        <time>2012-05-08T08:08:42.000Z</time>
      </trkpt>
      <trkpt lat="43.77776" lon="7.38222">
        <ele>453</ele>
        <time>2012-05-08T08:08:49.000Z</time>
      </trkpt>
      <trkpt lat="43.77779" lon="7.38227">
        <ele>444</ele>
        <time>2012-05-08T08:09:00.000Z</time>
      </trkpt>
      <trkpt lat="43.77778" lon="7.38233">
        <ele>442</ele>
        <time>2012-05-08T08:09:05.000Z</time>
      </trkpt>
      <trkpt lat="43.77775" lon="7.38229">
        <ele>439</ele>
        <time>2012-05-08T08:09:12.000Z</time>
      </trkpt>
      <trkpt lat="43.77774" lon="7.38222">
        <ele>439</ele>
        <time>2012-05-08T08:09:27.000Z</time>
      </trkpt>
      <trkpt lat="43.77772" lon="7.38217">
        <ele>439</ele>
        <time>2012-05-08T08:09:37.000Z</time>
      </trkpt>
      <trkpt lat="43.77776" lon="7.38213">
        <ele>440</ele>
        <time>2012-05-08T08:10:07.000Z</time>
      </trkpt>
      <trkpt lat="43.77779" lon="7.38208">
        <ele>438</ele>
        <time>2012-05-08T08:10:15.000Z</time>
      </trkpt>
      <trkpt lat="43.77779" lon="7.38202">
        <ele>446</ele>
        <time>2012-05-08T08:10:25.000Z</time>
      </trkpt>
      <trkpt lat="43.77781" lon="7.38207">
        <ele>431</ele>
        <time>2012-05-08T08:10:41.000Z</time>
      </trkpt>
      <trkpt lat="43.77777" lon="7.38211">
        <ele>443</ele>
        <time>2012-05-08T08:11:32.000Z</time>
      </trkpt>
      <trkpt lat="43.77782" lon="7.3821">
        <ele>412</ele>
        <time>2012-05-08T08:11:56.000Z</time>
      </trkpt>
      <trkpt lat="43.77784" lon="7.38218">
        <ele>409</ele>
        <time>2012-05-08T08:12:01.000Z</time>
      </trkpt>
      <trkpt lat="43.77785" lon="7.38224">
        <ele>392</ele>
        <time>2012-05-08T08:12:05.000Z</time>
      </trkpt>
      <trkpt lat="43.77789" lon="7.38228">
        <ele>398</ele>
        <time>2012-05-08T08:12:10.000Z</time>
      </trkpt>
      <trkpt lat="43.77794" lon="7.38231">
        <ele>427</ele>
        <time>2012-05-08T08:12:15.000Z</time>
      </trkpt>
      <trkpt lat="43.77797" lon="7.38236">
        <ele>429</ele>
        <time>2012-05-08T08:12:25.500Z</time>
      </trkpt>
      <trkpt lat="43.77793" lon="7.38239">
        <ele>447</ele>
        <time>2012-05-08T08:12:37.000Z</time>
      </trkpt>
      <trkpt lat="43.77798" lon="7.38243">
        <ele>440</ele>
        <time>2012-05-08T08:12:47.000Z</time>
      </trkpt>
      <trkpt lat="43.77802" lon="7.38244">
        <ele>437</ele>
        <time>2012-05-08T08:12:49.000Z</time>
      </trkpt>
      <trkpt lat="43.77808" lon="7.38245">
        <ele>441</ele>
        <time>2012-05-08T08:12:52.000Z</time>
      </trkpt>
      <trkpt lat="43.77813" lon="7.38246">
        <ele>438</ele>
        <time>2012-05-08T08:12:55.000Z</time>
      </trkpt>
      <trkpt lat="43.77818" lon="7.38249">
        <ele>436</ele>
        <time>2012-05-08T08:12:58.000Z</time>
      </trkpt>
      <trkpt lat="43.77824" lon="7.38254">
        <ele>434</ele>
        <time>2012-05-08T08:13:01.000Z</time>
      </trkpt>
      <trkpt lat="43.77828" lon="7.38257">
        <ele>429</ele>
        <time>2012-05-08T08:13:04.000Z</time>
      </trkpt>
      <trkpt lat="43.77832" lon="7.38258">
        <ele>425</ele>
        <time>2012-05-08T08:13:09.000Z</time>
      </trkpt>
      <trkpt lat="43.77838" lon="7.38256">
        <ele>437</ele>
        <time>2012-05-08T08:13:15.000Z</time>
      </trkpt>
      <trkpt lat="43.77842" lon="7.38257">
        <ele>438</ele>
        <time>2012-05-08T08:13:30.000Z</time>
      </trkpt>
      <trkpt lat="43.77846" lon="7.38261">
        <ele>433</ele>
        <time>2012-05-08T08:13:36.500Z</time>
      </trkpt>
      <trkpt lat="43.77846" lon="7.38261">
        <ele>433</ele>
        <time>2012-05-08T08:13:36.500Z</time>
      </trkpt>
      <trkpt lat="43.77846" lon="7.38261">
        <ele>433</ele>
        <time>2012-05-08T08:13:36.000Z</time>
      </trkpt>
      <trkpt lat="43.7785" lon="7.38265">
        <ele>431</ele>
        <time>2012-05-08T08:13:40.000Z</time>
      </trkpt>
      <trkpt lat="43.77854" lon="7.38269">
        <ele>435</ele>
        <time>2012-05-08T08:13:45.000Z</time>
      </trkpt>
      <trkpt lat="43.77858" lon="7.38272">
        <ele>436</ele>
        <time>2012-05-08T08:13:50.000Z</time>
      </trkpt>
      <trkpt lat="43.77862" lon="7.38275">
        <ele>432</ele>
        <time>2012-05-08T08:13:54.000Z</time>
      </trkpt>
      <trkpt lat="43.77866" lon="7.38278">
        <ele>433</ele>
        <time>2012-05-08T08:13:59.000Z</time>
      </trkpt>
      <trkpt lat="43.7787" lon="7.38282">
        <ele>430</ele>
        <time>2012-05-08T08:15:19.000Z</time>
      </trkpt>
      <trkpt lat="43.77874" lon="7.38286">
        <ele>432</ele>
        <time>2012-05-08T08:15:24.000Z</time>
      </trkpt>
      <trkpt lat="43.77877" lon="7.38291">
        <ele>453</ele>
        <time>2012-05-08T08:15:48.000Z</time>
      </trkpt>
      <trkpt lat="43.77879" lon="7.38298">
        <ele>444</ele>
        <time>2012-05-08T08:15:52.000Z</time>
      </trkpt>
      <trkpt lat="43.77882" lon="7.38302">
        <ele>434</ele>
        <time>2012-05-08T08:16:03.000Z</time>
      </trkpt>
      <trkpt lat="43.77887" lon="7.38302">
        <ele>425</ele>
        <time>2012-05-08T08:16:41.000Z</time>
      </trkpt>
      <trkpt lat="43.77891" lon="7.38304">
        <ele>427</ele>
        <time>2012-05-08T08:16:46.000Z</time>
      </trkpt>
      <trkpt lat="43.77895" lon="7.38307">
        <ele>429</ele>
        <time>2012-05-08T08:16:52.000Z</time>
      </trkpt>
      <trkpt lat="43.779" lon="7.38308">
        <ele>432</ele>
        <time>2012-05-08T08:16:59.000Z</time>
      </trkpt>
      <trkpt lat="43.77904" lon="7.3831">
        <ele>435</ele>
        <time>2012-05-08T08:17:06.000Z</time>
      </trkpt>
      <trkpt lat="43.77908" lon="7.38311">
        <ele>431</ele>
        <time>2012-05-08T08:17:15.000Z</time>
      </trkpt>
      <trkpt lat="43.77913" lon="7.38312">
        <ele>439</ele>
        <time>2012-05-08T08:17:24.000Z</time>
      </trkpt>
      <trkpt lat="43.77918" lon="7.3831">
        <ele>439</ele>
        <time>2012-05-08T08:17:30.000Z</time>
      </trkpt>
      <trkpt lat="43.77923" lon="7.3831">
        <ele>438</ele>
        <time>2012-05-08T08:17:36.000Z</time>
      </trkpt>
      <trkpt lat="43.77927" lon="7.38309">
        <ele>439</ele>
        <time>2012-05-08T08:17:47.000Z</time>
      </trkpt>
      <trkpt lat="43.77932" lon="7.38312">
        <ele>440</ele>
        <time>2012-05-08T08:18:01.000Z</time>
      </trkpt>
      <trkpt lat="43.77936" lon="7.3831">
        <ele>437</ele>
        <time>2012-05-08T08:18:07.000Z</time>
      </trkpt>
      <trkpt lat="43.77941" lon="7.3831">
        <ele>445</ele>
        <time>2012-05-08T08:18:14.000Z</time>
      </trkpt>
      <trkpt lat="43.77946" lon="7.38308">
        <ele>448</ele>
        <time>2012-05-08T08:18:19.000Z</time>
      </trkpt>
      <trkpt lat="43.77951" lon="7.38308">
        <ele>451</ele>
        <time>2012-05-08T08:18:25.000Z</time>
      </trkpt>
      <trkpt lat="43.77955" lon="7.38304">
        <ele>443</ele>
        <time>2012-05-08T08:18:30.000Z</time>
      </trkpt>
      <trkpt lat="43.77959" lon="7.38302">
        <ele>451</ele>
        <time>2012-05-08T08:18:50.000Z</time>
      </trkpt>
      <trkpt lat="43.77963" lon="7.38306">
        <ele>444</ele>
        <time>2012-05-08T08:19:02.000Z</time>
      </trkpt>
      <trkpt lat="43.77965" lon="7.38312">
        <ele>435</ele>
        <time>2012-05-08T08:19:34.000Z</time>
      </trkpt>
      <trkpt lat="43.77969" lon="7.38315">
        <ele>439</ele>
        <time>2012-05-08T08:19:58.000Z</time>
      </trkpt>
      <trkpt lat="43.77965" lon="7.38319">
        <ele>431</ele>
        <time>2012-05-08T08:20:07.000Z</time>
      </trkpt>
      <trkpt lat="43.77963" lon="7.38325">
        <ele>429</ele>
        <time>2012-05-08T08:20:14.000Z</time>
      </trkpt>
      <trkpt lat="43.77963" lon="7.38332">
        <ele>429</ele>
        <time>2012-05-08T08:20:19.000Z</time>
      </trkpt>
      <trkpt lat="43.77963" lon="7.38339">
        <ele>434</ele>
        <time>2012-05-08T08:20:25.000Z</time>
      </trkpt>
      <trkpt lat="43.77963" lon="7.38346">
        <ele>436</ele>
        <time>2012-05-08T08:20:30.000Z</time>
      </trkpt>
      <trkpt lat="43.77963" lon="7.38352">
        <ele>438</ele>
        <time>2012-05-08T08:20:35.000Z</time>
      </trkpt>
      <trkpt lat="43.77963" lon="7.38359">
        <ele>442</ele>
        <time>2012-05-08T08:20:40.000Z</time>
      </trkpt>
      <trkpt lat="43.77963" lon="7.38366">
        <ele>443</ele>
        <time>2012-05-08T08:20:46.000Z</time>
      </trkpt>
      <trkpt lat="43.77964" lon="7.38373">
        <ele>454</ele>
        <time>2012-05-08T08:20:53.000Z</time>
      </trkpt>
      <trkpt lat="43.77965" lon="7.38379">
        <ele>448</ele>
        <time>2012-05-08T08:20:59.000Z</time>
      </trkpt>
      <trkpt lat="43.77966" lon="7.38386">
        <ele>449</ele>
        <time>2012-05-08T08:21:08.000Z</time>
      </trkpt>
      <trkpt lat="43.77965" lon="7.38393">
        <ele>446</ele>
        <time>2012-05-08T08:21:20.000Z</time>
      </trkpt>
      <trkpt lat="43.77966" lon="7.38399">
        <ele>451</ele>
        <time>2012-05-08T08:21:26.000Z</time>
      </trkpt>
      <trkpt lat="43.77969" lon="7.38404">
        <ele>451</ele>
        <time>2012-05-08T08:21:33.000Z</time>
      </trkpt>
      <trkpt lat="43.7797" lon="7.3841">
        <ele>446</ele>
        <time>2012-05-08T08:21:41.000Z</time>
      </trkpt>
      <trkpt lat="43.77972" lon="7.38416">
        <ele>447</ele>
        <time>2012-05-08T08:21:50.000Z</time>
      </trkpt>
      <trkpt lat="43.77973" lon="7.38422">
        <ele>444</ele>
        <time>2012-05-08T08:22:03.000Z</time>
      </trkpt>
      <trkpt lat="43.77974" lon="7.38429">
        <ele>448</ele>
        <time>2012-05-08T08:22:18.000Z</time>
      </trkpt>
      <trkpt lat="43.77974" lon="7.38435">
        <ele>447</ele>
        <time>2012-05-08T08:22:24.000Z</time>
      </trkpt>
      <trkpt lat="43.77976" lon="7.38441">
        <ele>449</ele>
        <time>2012-05-08T08:22:31.000Z</time>
      </trkpt>
      <trkpt lat="43.77978" lon="7.38447">
        <ele>454</ele>
        <time>2012-05-08T08:22:42.000Z</time>
      </trkpt>
      <trkpt lat="43.77976" lon="7.38441">
        <ele>452</ele>
        <time>2012-05-08T08:23:10.000Z</time>
      </trkpt>
      <trkpt lat="43.77979" lon="7.38436">
        <ele>452</ele>
        <time>2012-05-08T08:23:19.000Z</time>
      </trkpt>
      <trkpt lat="43.77982" lon="7.38431">
        <ele>454</ele>
        <time>2012-05-08T08:23:28.000Z</time>
      </trkpt>
      <trkpt lat="43.77986" lon="7.38434">
        <ele>460</ele>
        <time>2012-05-08T08:23:50.000Z</time>
      </trkpt>
      <trkpt lat="43.7799" lon="7.38438">
        <ele>462</ele>
        <time>2012-05-08T08:24:01.000Z</time>
      </trkpt>
      <trkpt lat="43.77991" lon="7.38444">
        <ele>467</ele>
        <time>2012-05-08T08:24:14.000Z</time>
      </trkpt>
      <trkpt lat="43.77992" lon="7.38451">
        <ele>457</ele>
        <time>2012-05-08T08:24:25.000Z</time>
      </trkpt>
      <trkpt lat="43.77994" lon="7.38457">
        <ele>472</ele>
        <time>2012-05-08T08:24:33.000Z</time>
      </trkpt>
      <trkpt lat="43.77992" lon="7.38463">
        <ele>460</ele>
        <time>2012-05-08T08:25:21.000Z</time>
      </trkpt>
      <trkpt lat="43.77996" lon="7.38468">
        <ele>466</ele>
        <time>2012-05-08T08:25:32.000Z</time>
      </trkpt>
      <trkpt lat="43.77999" lon="7.38472">
        <ele>469</ele>
        <time>2012-05-08T08:25:39.000Z</time>
      </trkpt>
      <trkpt lat="43.78003" lon="7.38477">
        <ele>468</ele>
        <time>2012-05-08T08:25:49.000Z</time>
      </trkpt>
      <trkpt lat="43.78004" lon="7.38484">
        <ele>467</ele>
        <time>2012-05-08T08:25:58.000Z</time>
      </trkpt>
      <trkpt lat="43.78006" lon="7.38489">
        <ele>464</ele>
        <time>2012-05-08T08:26:06.000Z</time>
      </trkpt>
      <trkpt lat="43.78009" lon="7.38494">
        <ele>462</ele>
        <time>2012-05-08T08:26:18.000Z</time>
      </trkpt>
      <trkpt lat="43.78011" lon="7.385">
        <ele>469</ele>
        <time>2012-05-08T08:26:27.000Z</time>
      </trkpt>
      <trkpt lat="43.78012" lon="7.38507">
        <ele>469</ele>
        <time>2012-05-08T08:26:37.000Z</time>
      </trkpt>
      <trkpt lat="43.78014" lon="7.38513">
        <ele>473</ele>
        <time>2012-05-08T08:26:43.000Z</time>
      </trkpt>
      <trkpt lat="43.78018" lon="7.38518">
        <ele>471</ele>
        <time>2012-05-08T08:26:50.000Z</time>
      </trkpt>
      <trkpt lat="43.7802" lon="7.38523">
        <ele>474</ele>
        <time>2012-05-08T08:26:58.000Z</time>
      </trkpt>
      <trkpt lat="43.78021" lon="7.38529">
        <ele>475</ele>
        <time>2012-05-08T08:27:08.000Z</time>
      </trkpt>
      <trkpt lat="43.78022" lon="7.38536">
        <ele>477</ele>
        <time>2012-05-08T08:27:16.000Z</time>
      </trkpt>
      <trkpt lat="43.78024" lon="7.38541">
        <ele>477</ele>
        <time>2012-05-08T08:27:27.000Z</time>
      </trkpt>
      <trkpt lat="43.78026" lon="7.38547">
        <ele>481</ele>
        <time>2012-05-08T08:27:37.000Z</time>
      </trkpt>
      <trkpt lat="43.78026" lon="7.38554">
        <ele>482</ele>
        <time>2012-05-08T08:27:47.000Z</time>
      </trkpt>
      <trkpt lat="43.78029" lon="7.38559">
        <ele>478</ele>
        <time>2012-05-08T08:27:57.000Z</time>
      </trkpt>
      <trkpt lat="43.78032" lon="7.38564">
        <ele>482</ele>
        <time>2012-05-08T08:28:04.000Z</time>
      </trkpt>
      <trkpt lat="43.78034" lon="7.38569">
        <ele>481</ele>
        <time>2012-05-08T08:28:12.000Z</time>
      </trkpt>
      <trkpt lat="43.78036" lon="7.38576">
        <ele>483</ele>
        <time>2012-05-08T08:28:22.000Z</time>
      </trkpt>
      <trkpt lat="43.78036" lon="7.38582">
        <ele>478</ele>
        <time>2012-05-08T08:29:29.000Z</time>
      </trkpt>
      <trkpt lat="43.78036" lon="7.38582">
        <ele>478</ele>
        <time>2012-05-08T08:29:29.000Z</time>
      </trkpt>
      <trkpt lat="43.78036" lon="7.38582">
        <ele>478</ele>
        <time>2012-05-08T08:29:31.000Z</time>
      </trkpt>
      <trkpt lat="43.78039" lon="7.38588">
        <ele>486</ele>
        <time>2012-05-08T08:29:50.000Z</time>
      </trkpt>
      <trkpt lat="43.78042" lon="7.38593">
        <ele>490</ele>
        <time>2012-05-08T08:29:58.000Z</time>
      </trkpt>
      <trkpt lat="43.78043" lon="7.38599">
        <ele>493</ele>
        <time>2012-05-08T08:30:23.000Z</time>
      </trkpt>
      <trkpt lat="43.78044" lon="7.38605">
        <ele>493</ele>
        <time>2012-05-08T08:30:29.000Z</time>
      </trkpt>
      <trkpt lat="43.78048" lon="7.38609">
        <ele>482</ele>
        <time>2012-05-08T08:30:35.000Z</time>
      </trkpt>
      <trkpt lat="43.78052" lon="7.38613">
        <ele>483</ele>
        <time>2012-05-08T08:30:43.000Z</time>
      </trkpt>
      <trkpt lat="43.78053" lon="7.3862">
        <ele>493</ele>
        <time>2012-05-08T08:30:52.000Z</time>
      </trkpt>
      <trkpt lat="43.78056" lon="7.38626">
        <ele>486</ele>
        <time>2012-05-08T08:30:59.000Z</time>
      </trkpt>
      <trkpt lat="43.78058" lon="7.38631">
        <ele>486</ele>
        <time>2012-05-08T08:31:06.000Z</time>
      </trkpt>
      <trkpt lat="43.7806" lon="7.38637">
        <ele>489</ele>
        <time>2012-05-08T08:31:18.000Z</time>
      </trkpt>
      <trkpt lat="43.78061" lon="7.38644">
        <ele>489</ele>
        <time>2012-05-08T08:31:28.000Z</time>
      </trkpt>
      <trkpt lat="43.78063" lon="7.38649">
        <ele>481</ele>
        <time>2012-05-08T08:31:35.000Z</time>
      </trkpt>
      <trkpt lat="43.78065" lon="7.38656">
        <ele>489</ele>
        <time>2012-05-08T08:31:44.000Z</time>
      </trkpt>
      <trkpt lat="43.78064" lon="7.38662">
        <ele>493</ele>
        <time>2012-05-08T08:31:50.000Z</time>
      </trkpt>
      <trkpt lat="43.78064" lon="7.38669">
        <ele>489</ele>
        <time>2012-05-08T08:31:56.000Z</time>
      </trkpt>
      <trkpt lat="43.78063" lon="7.38675">
        <ele>482</ele>
        <time>2012-05-08T08:32:03.000Z</time>
      </trkpt>
      <trkpt lat="43.78063" lon="7.38681">
        <ele>474</ele>
        <time>2012-05-08T08:32:10.000Z</time>
      </trkpt>
      <trkpt lat="43.78065" lon="7.38687">
        <ele>480</ele>
        <time>2012-05-08T08:32:17.000Z</time>
      </trkpt>
      <trkpt lat="43.78067" lon="7.38693">
        <ele>480</ele>
        <time>2012-05-08T08:32:24.000Z</time>
      </trkpt>
      <trkpt lat="43.78069" lon="7.387">
        <ele>480</ele>
        <time>2012-05-08T08:32:30.000Z</time>
      </trkpt>
      <trkpt lat="43.78071" lon="7.38705">
        <ele>477</ele>
        <time>2012-05-08T08:32:36.000Z</time>
      </trkpt>
      <trkpt lat="43.78071" lon="7.38712">
        <ele>475</ele>
        <time>2012-05-08T08:32:42.000Z</time>
      </trkpt>
      <trkpt lat="43.7807" lon="7.38719">
        <ele>496</ele>
        <time>2012-05-08T08:32:47.000Z</time>
      </trkpt>
      <trkpt lat="43.78068" lon="7.38725">
        <ele>492</ele>
        <time>2012-05-08T08:32:53.000Z</time>
      </trkpt>
      <trkpt lat="43.78065" lon="7.3873">
        <ele>492</ele>
        <time>2012-05-08T08:32:58.000Z</time>
      </trkpt>
      <trkpt lat="43.78064" lon="7.38737">
        <ele>490</ele>
        <time>2012-05-08T08:33:03.000Z</time>
      </trkpt>
      <trkpt lat="43.78065" lon="7.38744">
        <ele>487</ele>
        <time>2012-05-08T08:33:10.000Z</time>
      </trkpt>
      <trkpt lat="43.78067" lon="7.3875">
        <ele>490</ele>
        <time>2012-05-08T08:33:20.000Z</time>
      </trkpt>
      <trkpt lat="43.78067" lon="7.38758">
        <ele>485</ele>
        <time>2012-05-08T08:33:35.000Z</time>
      </trkpt>
      <trkpt lat="43.78068" lon="7.38764">
        <ele>493</ele>
        <time>2012-05-08T08:33:42.000Z</time>
      </trkpt>
      <trkpt lat="43.78068" lon="7.3877">
        <ele>505</ele>
        <time>2012-05-08T08:33:57.000Z</time>
      </trkpt>
      <trkpt lat="43.78068" lon="7.38778">
        <ele>504</ele>
        <time>2012-05-08T08:34:03.000Z</time>
      </trkpt>
      <trkpt lat="43.78069" lon="7.38785">
        <ele>502</ele>
        <time>2012-05-08T08:34:06.000Z</time>
      </trkpt>
      <trkpt lat="43.7807" lon="7.38791">
        <ele>502</ele>
        <time>2012-05-08T08:34:14.000Z</time>
      </trkpt>
      <trkpt lat="43.78072" lon="7.38798">
        <ele>502</ele>
        <time>2012-05-08T08:34:20.000Z</time>
      </trkpt>
      <trkpt lat="43.78075" lon="7.38804">
        <ele>500</ele>
        <time>2012-05-08T08:34:25.000Z</time>
      </trkpt>
      <trkpt lat="43.78076" lon="7.38811">
        <ele>501</ele>
        <time>2012-05-08T08:34:31.000Z</time>
      </trkpt>
      <trkpt lat="43.78076" lon="7.38818">
        <ele>500</ele>
        <time>2012-05-08T08:34:45.000Z</time>
      </trkpt>
      <trkpt lat="43.78077" lon="7.38824">
        <ele>501</ele>
        <time>2012-05-08T08:34:52.000Z</time>
      </trkpt>
      <trkpt lat="43.78078" lon="7.38832">
        <ele>509</ele>
        <time>2012-05-08T08:35:20.000Z</time>
      </trkpt>
      <trkpt lat="43.7808" lon="7.38838">
        <ele>506</ele>
        <time>2012-05-08T08:35:29.000Z</time>
      </trkpt>
      <trkpt lat="43.78081" lon="7.38844">
        <ele>510</ele>
        <time>2012-05-08T08:35:39.000Z</time>
      </trkpt>
      <trkpt lat="43.78083" lon="7.3885">
        <ele>513</ele>
        <time>2012-05-08T08:36:19.000Z</time>
      </trkpt>
      <trkpt lat="43.78084" lon="7.38857">
        <ele>520</ele>
        <time>2012-05-08T08:36:26.000Z</time>
      </trkpt>
      <trkpt lat="43.78086" lon="7.38862">
        <ele>517</ele>
        <time>2012-05-08T08:36:44.000Z</time>
      </trkpt>
      <trkpt lat="43.78084" lon="7.3887">
        <ele>523</ele>
        <time>2012-05-08T08:37:23.000Z</time>
      </trkpt>
      <trkpt lat="43.78084" lon="7.38876">
        <ele>521</ele>
        <time>2012-05-08T08:37:25.000Z</time>
      </trkpt>
      <trkpt lat="43.78084" lon="7.38883">
        <ele>516</ele>
        <time>2012-05-08T08:37:27.000Z</time>
      </trkpt>
      <trkpt lat="43.78084" lon="7.38891">
        <ele>517</ele>
        <time>2012-05-08T08:37:29.000Z</time>
      </trkpt>
      <trkpt lat="43.78084" lon="7.38898">
        <ele>515</ele>
        <time>2012-05-08T08:37:31.000Z</time>
      </trkpt>
      <trkpt lat="43.78082" lon="7.38904">
        <ele>515</ele>
        <time>2012-05-08T08:37:33.000Z</time>
      </trkpt>
      <trkpt lat="43.78081" lon="7.38912">
        <ele>513</ele>
        <time>2012-05-08T08:37:36.000Z</time>
      </trkpt>
      <trkpt lat="43.7808" lon="7.38919">
        <ele>507</ele>
        <time>2012-05-08T08:37:42.000Z</time>
      </trkpt>
      <trkpt lat="43.78077" lon="7.38925">
        <ele>512</ele>
        <time>2012-05-08T08:37:48.000Z</time>
      </trkpt>
      <trkpt lat="43.78075" lon="7.3893">
        <ele>511</ele>
        <time>2012-05-08T08:37:54.000Z</time>
      </trkpt>
      <trkpt lat="43.78072" lon="7.38935">
        <ele>506</ele>
        <time>2012-05-08T08:37:59.000Z</time>
      </trkpt>
      <trkpt lat="43.78069" lon="7.3894">
        <ele>512</ele>
        <time>2012-05-08T08:38:07.000Z</time>
      </trkpt>
      <trkpt lat="43.78066" lon="7.38945">
        <ele>517</ele>
        <time>2012-05-08T08:38:26.000Z</time>
      </trkpt>
      <trkpt lat="43.78062" lon="7.38949">
        <ele>519</ele>
        <time>2012-05-08T08:38:30.000Z</time>
      </trkpt>
      <trkpt lat="43.78058" lon="7.38953">
        <ele>525</ele>
        <time>2012-05-08T08:38:34.000Z</time>
      </trkpt>
      <trkpt lat="43.78053" lon="7.38957">
        <ele>527</ele>
        <time>2012-05-08T08:38:40.000Z</time>
      </trkpt>
      <trkpt lat="43.78049" lon="7.38961">
        <ele>524</ele>
        <time>2012-05-08T08:38:50.000Z</time>
      </trkpt>
      <trkpt lat="43.78049" lon="7.38968">
        <ele>520</ele>
        <time>2012-05-08T08:38:57.000Z</time>
      </trkpt>
      <trkpt lat="43.78048" lon="7.38975">
        <ele>521</ele>
        <time>2012-05-08T08:39:03.000Z</time>
      </trkpt>
      <trkpt lat="43.78046" lon="7.38981">
        <ele>518</ele>
        <time>2012-05-08T08:39:10.000Z</time>
      </trkpt>
      <trkpt lat="43.78044" lon="7.38987">
        <ele>521</ele>
        <time>2012-05-08T08:39:18.000Z</time>
      </trkpt>
      <trkpt lat="43.78043" lon="7.38994">
        <ele>508</ele>
        <time>2012-05-08T08:39:30.000Z</time>
      </trkpt>
      <trkpt lat="43.78043" lon="7.39002">
        <ele>506</ele>
        <time>2012-05-08T08:39:37.000Z</time>
      </trkpt>
      <trkpt lat="43.78043" lon="7.39009">
        <ele>501</ele>
        <time>2012-05-08T08:39:43.000Z</time>
      </trkpt>
      <trkpt lat="43.7804" lon="7.39015">
        <ele>510</ele>
        <time>2012-05-08T08:39:51.000Z</time>
      </trkpt>
      <trkpt lat="43.78037" lon="7.3902">
        <ele>509</ele>
        <time>2012-05-08T08:39:56.000Z</time>
      </trkpt>
      <trkpt lat="43.78036" lon="7.39026">
        <ele>508</ele>
        <time>2012-05-08T08:40:02.000Z</time>
      </trkpt>
      <trkpt lat="43.78033" lon="7.39032">
        <ele>507</ele>
        <time>2012-05-08T08:40:08.000Z</time>
      </trkpt>
      <trkpt lat="43.78031" lon="7.39038">
        <ele>506</ele>
        <time>2012-05-08T08:40:13.000Z</time>
      </trkpt>
      <trkpt lat="43.7803" lon="7.39044">
        <ele>505</ele>
        <time>2012-05-08T08:40:27.000Z</time>
      </trkpt>
      <trkpt lat="43.7803" lon="7.39044">
        <ele>505</ele>
        <time>2012-05-08T08:40:27.000Z</time>
      </trkpt>
      <trkpt lat="43.7803" lon="7.39044">
        <ele>505</ele>
        <time>2012-05-08T08:40:28.000Z</time>
      </trkpt>
      <trkpt lat="43.78028" lon="7.3905">
        <ele>511</ele>
        <time>2012-05-08T08:40:41.000Z</time>
      </trkpt>
      <trkpt lat="43.78026" lon="7.39056">
        <ele>510</ele>
        <time>2012-05-08T08:40:49.000Z</time>
      </trkpt>
      <trkpt lat="43.78025" lon="7.39062">
        <ele>516</ele>
        <time>2012-05-08T08:40:56.000Z</time>
      </trkpt>
      <trkpt lat="43.78026" lon="7.39068">
        <ele>513</ele>
        <time>2012-05-08T08:41:21.000Z</time>
      </trkpt>
      <trkpt lat="43.78027" lon="7.39074">
        <ele>519</ele>
        <time>2012-05-08T08:41:28.000Z</time>
      </trkpt>
      <trkpt lat="43.78027" lon="7.39081">
        <ele>513</ele>
        <time>2012-05-08T08:41:39.000Z</time>
      </trkpt>
      <trkpt lat="43.78029" lon="7.39087">
        <ele>513</ele>
        <time>2012-05-08T08:41:46.000Z</time>
      </trkpt>
      <trkpt lat="43.78031" lon="7.39093">
        <ele>517</ele>
        <time>2012-05-08T08:41:52.000Z</time>
      </trkpt>
      <trkpt lat="43.78033" lon="7.391">
        <ele>522</ele>
        <time>2012-05-08T08:41:59.000Z</time>
      </trkpt>
      <trkpt lat="43.78033" lon="7.39106">
        <ele>530</ele>
        <time>2012-05-08T08:42:07.000Z</time>
      </trkpt>
      <trkpt lat="43.78036" lon="7.39111">
        <ele>524</ele>
        <time>2012-05-08T08:42:16.000Z</time>
      </trkpt>
      <trkpt lat="43.78037" lon="7.39118">
        <ele>530</ele>
        <time>2012-05-08T08:42:27.000Z</time>
      </trkpt>
      <trkpt lat="43.7804" lon="7.39123">
        <ele>538</ele>
        <time>2012-05-08T08:42:34.000Z</time>
      </trkpt>
      <trkpt lat="43.78043" lon="7.39127">
        <ele>531</ele>
        <time>2012-05-08T08:42:47.000Z</time>
      </trkpt>
      <trkpt lat="43.78043" lon="7.39134">
        <ele>530</ele>
        <time>2012-05-08T08:43:04.000Z</time>
      </trkpt>
      <trkpt lat="43.78046" lon="7.39138">
        <ele>529</ele>
        <time>2012-05-08T08:43:15.000Z</time>
      </trkpt>
      <trkpt lat="43.7805" lon="7.39141">
        <ele>531</ele>
        <time>2012-05-08T08:43:27.000Z</time>
      </trkpt>
      <trkpt lat="43.78054" lon="7.39145">
        <ele>534</ele>
        <time>2012-05-08T08:43:35.000Z</time>
      </trkpt>
      <trkpt lat="43.78057" lon="7.3915">
        <ele>536</ele>
        <time>2012-05-08T08:43:45.000Z</time>
      </trkpt>
      <trkpt lat="43.7806" lon="7.39156">
        <ele>538</ele>
        <time>2012-05-08T08:43:51.000Z</time>
      </trkpt>
      <trkpt lat="43.78062" lon="7.39161">
        <ele>540</ele>
        <time>2012-05-08T08:43:57.000Z</time>
      </trkpt>
      <trkpt lat="43.78067" lon="7.39165">
        <ele>539</ele>
        <time>2012-05-08T08:44:04.000Z</time>
      </trkpt>
      <trkpt lat="43.7807" lon="7.39169">
        <ele>538</ele>
        <time>2012-05-08T08:44:10.000Z</time>
      </trkpt>
      <trkpt lat="43.78074" lon="7.39173">
        <ele>541</ele>
        <time>2012-05-08T08:44:19.000Z</time>
      </trkpt>
      <trkpt lat="43.78078" lon="7.39176">
        <ele>546</ele>
        <time>2012-05-08T08:44:23.000Z</time>
      </trkpt>
      <trkpt lat="43.78083" lon="7.39178">
        <ele>543</ele>
        <time>2012-05-08T08:44:30.000Z</time>
      </trkpt>
      <trkpt lat="43.78087" lon="7.39182">
        <ele>541</ele>
        <time>2012-05-08T08:44:38.000Z</time>
      </trkpt>
      <trkpt lat="43.78091" lon="7.39186">
        <ele>543</ele>
        <time>2012-05-08T08:44:46.000Z</time>
      </trkpt>
      <trkpt lat="43.78094" lon="7.39191">
        <ele>546</ele>
        <time>2012-05-08T08:44:52.000Z</time>
      </trkpt>
      <trkpt lat="43.78097" lon="7.39195">
        <ele>541</ele>
        <time>2012-05-08T08:44:57.000Z</time>
      </trkpt>
      <trkpt lat="43.78101" lon="7.392">
        <ele>547</ele>
        <time>2012-05-08T08:45:02.000Z</time>
      </trkpt>
      <trkpt lat="43.78104" lon="7.39205">
        <ele>549</ele>
        <time>2012-05-08T08:45:06.000Z</time>
      </trkpt>
      <trkpt lat="43.78107" lon="7.3921">
        <ele>545</ele>
        <time>2012-05-08T08:45:11.000Z</time>
      </trkpt>
      <trkpt lat="43.78109" lon="7.39215">
        <ele>545</ele>
        <time>2012-05-08T08:45:22.000Z</time>
      </trkpt>
      <trkpt lat="43.78112" lon="7.3922">
        <ele>542</ele>
        <time>2012-05-08T08:45:29.000Z</time>
      </trkpt>
      <trkpt lat="43.78113" lon="7.39227">
        <ele>550</ele>
        <time>2012-05-08T08:45:35.000Z</time>
      </trkpt>
      <trkpt lat="43.78114" lon="7.39233">
        <ele>553</ele>
        <time>2012-05-08T08:45:40.000Z</time>
      </trkpt>
      <trkpt lat="43.78116" lon="7.39238">
        <ele>550</ele>
        <time>2012-05-08T08:45:45.000Z</time>
      </trkpt>
      <trkpt lat="43.78117" lon="7.39245">
        <ele>545</ele>
        <time>2012-05-08T08:45:51.000Z</time>
      </trkpt>
      <trkpt lat="43.78117" lon="7.39252">
        <ele>551</ele>
        <time>2012-05-08T08:45:57.000Z</time>
      </trkpt>
      <trkpt lat="43.78119" lon="7.39259">
        <ele>549</ele>
        <time>2012-05-08T08:46:06.000Z</time>
      </trkpt>
      <trkpt lat="43.78121" lon="7.39265">
        <ele>554</ele>
        <time>2012-05-08T08:46:12.000Z</time>
      </trkpt>
      <trkpt lat="43.78122" lon="7.39271">
        <ele>550</ele>
        <time>2012-05-08T08:46:19.000Z</time>
      </trkpt>
      <trkpt lat="43.78123" lon="7.39277">
        <ele>544</ele>
        <time>2012-05-08T08:46:26.000Z</time>
      </trkpt>
      <trkpt lat="43.78125" lon="7.39282">
        <ele>555</ele>
        <time>2012-05-08T08:46:35.000Z</time>
      </trkpt>
      <trkpt lat="43.78127" lon="7.39289">
        <ele>554</ele>
        <time>2012-05-08T08:46:49.000Z</time>
      </trkpt>
      <trkpt lat="43.78131" lon="7.39293">
        <ele>551</ele>
        <time>2012-05-08T08:46:58.000Z</time>
      </trkpt>
      <trkpt lat="43.78134" lon="7.39297">
        <ele>553</ele>
        <time>2012-05-08T08:47:10.000Z</time>
      </trkpt>
      <trkpt lat="43.78136" lon="7.39303">
        <ele>541</ele>
        <time>2012-05-08T08:47:26.000Z</time>
      </trkpt>
      <trkpt lat="43.78138" lon="7.39309">
        <ele>540</ele>
        <time>2012-05-08T08:47:35.000Z</time>
      </trkpt>
      <trkpt lat="43.78141" lon="7.39314">
        <ele>542</ele>
        <time>2012-05-08T08:47:43.000Z</time>
      </trkpt>
      <trkpt lat="43.78146" lon="7.39318">
        <ele>541</ele>
        <time>2012-05-08T08:47:52.000Z</time>
      </trkpt>
      <trkpt lat="43.78148" lon="7.39323">
        <ele>549</ele>
        <time>2012-05-08T08:48:25.000Z</time>
      </trkpt>
      <trkpt lat="43.78148" lon="7.39323">
        <ele>549</ele>
        <time>2012-05-08T08:48:25.000Z</time>
      </trkpt>
      <trkpt lat="43.78148" lon="7.39323">
        <ele>549</ele>
        <time>2012-05-08T08:48:26.000Z</time>
      </trkpt>
      <trkpt lat="43.7815" lon="7.3933">
        <ele>549</ele>
        <time>2012-05-08T08:48:33.000Z</time>
      </trkpt>
      <trkpt lat="43.7815" lon="7.39336">
        <ele>550</ele>
        <time>2012-05-08T08:48:38.000Z</time>
      </trkpt>
      <trkpt lat="43.78152" lon="7.39341">
        <ele>551</ele>
        <time>2012-05-08T08:48:42.000Z</time>
      </trkpt>
      <trkpt lat="43.78154" lon="7.39348">
        <ele>549</ele>
        <time>2012-05-08T08:48:48.000Z</time>
      </trkpt>
      <trkpt lat="43.78157" lon="7.39353">
        <ele>545</ele>
        <time>2012-05-08T08:48:54.000Z</time>
      </trkpt>
      <trkpt lat="43.78159" lon="7.3936">
        <ele>546</ele>
        <time>2012-05-08T08:48:59.000Z</time>
      </trkpt>
      <trkpt lat="43.7816" lon="7.39366">
        <ele>546</ele>
        <time>2012-05-08T08:49:07.000Z</time>
      </trkpt>
      <trkpt lat="43.7816" lon="7.39373">
        <ele>544</ele>
        <time>2012-05-08T08:49:16.000Z</time>
      </trkpt>
      <trkpt lat="43.78161" lon="7.39379">
        <ele>541</ele>
        <time>2012-05-08T08:49:22.000Z</time>
      </trkpt>
      <trkpt lat="43.78161" lon="7.39386">
        <ele>540</ele>
        <time>2012-05-08T08:49:31.000Z</time>
      </trkpt>
      <trkpt lat="43.78159" lon="7.39392">
        <ele>543</ele>
        <time>2012-05-08T08:49:41.000Z</time>
      </trkpt>
      <trkpt lat="43.78163" lon="7.39397">
        <ele>547</ele>
        <time>2012-05-08T08:50:55.000Z</time>
      </trkpt>
      <trkpt lat="43.78165" lon="7.39403">
        <ele>557</ele>
        <time>2012-05-08T08:51:56.000Z</time>
      </trkpt>
      <trkpt lat="43.78168" lon="7.39408">
        <ele>550</ele>
        <time>2012-05-08T08:52:02.000Z</time>
      </trkpt>
      <trkpt lat="43.78172" lon="7.39411">
        <ele>550</ele>
        <time>2012-05-08T08:52:10.000Z</time>
      </trkpt>
      <trkpt lat="43.78176" lon="7.39414">
        <ele>549</ele>
        <time>2012-05-08T08:52:16.000Z</time>
      </trkpt>
      <trkpt lat="43.78181" lon="7.39417">
        <ele>563</ele>
        <time>2012-05-08T08:52:35.000Z</time>
      </trkpt>
      <trkpt lat="43.78185" lon="7.3942">
        <ele>566</ele>
        <time>2012-05-08T08:52:41.000Z</time>
      </trkpt>
      <trkpt lat="43.78189" lon="7.39424">
        <ele>559</ele>
        <time>2012-05-08T08:52:46.000Z</time>
      </trkpt>
      <trkpt lat="43.78192" lon="7.39428">
        <ele>555</ele>
        <time>2012-05-08T08:52:56.000Z</time>
      </trkpt>
      <trkpt lat="43.78196" lon="7.39433">
        <ele>566</ele>
        <time>2012-05-08T08:53:20.000Z</time>
      </trkpt>
      <trkpt lat="43.78199" lon="7.39437">
        <ele>568</ele>
        <time>2012-05-08T08:53:30.000Z</time>
      </trkpt>
      <trkpt lat="43.78203" lon="7.39442">
        <ele>573</ele>
        <time>2012-05-08T08:53:35.000Z</time>
      </trkpt>
      <trkpt lat="43.78207" lon="7.39447">
        <ele>570</ele>
        <time>2012-05-08T08:53:38.000Z</time>
      </trkpt>
      <trkpt lat="43.7821" lon="7.39452">
        <ele>566</ele>
        <time>2012-05-08T08:53:45.000Z</time>
      </trkpt>
      <trkpt lat="43.7821" lon="7.39452">
        <ele>566</ele>
        <time>2012-05-08T08:53:45.000Z</time>
      </trkpt>
      <trkpt lat="43.7821" lon="7.39452">
        <ele>566</ele>
        <time>2012-05-08T08:53:46.000Z</time>
      </trkpt>
      <trkpt lat="43.7821" lon="7.39459">
        <ele>559</ele>
        <time>2012-05-08T08:54:28.000Z</time>
      </trkpt>
      <trkpt lat="43.78213" lon="7.39465">
        <ele>568</ele>
        <time>2012-05-08T08:54:34.000Z</time>
      </trkpt>
      <trkpt lat="43.78216" lon="7.39468">
        <ele>558</ele>
        <time>2012-05-08T08:54:41.000Z</time>
      </trkpt>
      <trkpt lat="43.78221" lon="7.3947">
        <ele>566</ele>
        <time>2012-05-08T08:54:47.000Z</time>
      </trkpt>
      <trkpt lat="43.78226" lon="7.3947">
        <ele>570</ele>
        <time>2012-05-08T08:54:50.000Z</time>
      </trkpt>
      <trkpt lat="43.78231" lon="7.39471">
        <ele>565</ele>
        <time>2012-05-08T08:54:53.000Z</time>
      </trkpt>
      <trkpt lat="43.78235" lon="7.39472">
        <ele>566</ele>
        <time>2012-05-08T08:54:56.000Z</time>
      </trkpt>
      <trkpt lat="43.7824" lon="7.39473">
        <ele>568</ele>
        <time>2012-05-08T08:54:59.000Z</time>
      </trkpt>
      <trkpt lat="43.78245" lon="7.39476">
        <ele>579</ele>
        <time>2012-05-08T08:55:03.000Z</time>
      </trkpt>
      <trkpt lat="43.78249" lon="7.3948">
        <ele>570</ele>
        <time>2012-05-08T08:55:06.000Z</time>
      </trkpt>
      <trkpt lat="43.78252" lon="7.39484">
        <ele>566</ele>
        <time>2012-05-08T08:55:10.000Z</time>
      </trkpt>
      <trkpt lat="43.78256" lon="7.39489">
        <ele>566</ele>
        <time>2012-05-08T08:55:15.000Z</time>
      </trkpt>
      <trkpt lat="43.78256" lon="7.39495">
        <ele>567</ele>
        <time>2012-05-08T08:55:19.000Z</time>
      </trkpt>
      <trkpt lat="43.78255" lon="7.39502">
        <ele>572</ele>
        <time>2012-05-08T08:55:23.000Z</time>
      </trkpt>
      <trkpt lat="43.78254" lon="7.39508">
        <ele>571</ele>
        <time>2012-05-08T08:55:29.000Z</time>
      </trkpt>
      <trkpt lat="43.78253" lon="7.39515">
        <ele>566</ele>
        <time>2012-05-08T08:55:49.000Z</time>
      </trkpt>
      <trkpt lat="43.78255" lon="7.39521">
        <ele>584</ele>
        <time>2012-05-08T08:56:09.000Z</time>
      </trkpt>
      <trkpt lat="43.78257" lon="7.39527">
        <ele>585</ele>
        <time>2012-05-08T08:56:14.000Z</time>
      </trkpt>
      <trkpt lat="43.7826" lon="7.39532">
        <ele>583</ele>
        <time>2012-05-08T08:56:18.000Z</time>
      </trkpt>
      <trkpt lat="43.78264" lon="7.39537">
        <ele>591</ele>
        <time>2012-05-08T08:56:24.000Z</time>
      </trkpt>
      <trkpt lat="43.78267" lon="7.39541">
        <ele>591</ele>
        <time>2012-05-08T08:56:32.000Z</time>
      </trkpt>
      <trkpt lat="43.78271" lon="7.39545">
        <ele>583</ele>
        <time>2012-05-08T08:56:50.000Z</time>
      </trkpt>
      <trkpt lat="43.78274" lon="7.3955">
        <ele>589</ele>
        <time>2012-05-08T08:56:55.000Z</time>
      </trkpt>
      <trkpt lat="43.7828" lon="7.39553">
        <ele>588</ele>
        <time>2012-05-08T08:56:59.000Z</time>
      </trkpt>
      <trkpt lat="43.78284" lon="7.39555">
        <ele>589</ele>
        <time>2012-05-08T08:57:04.000Z</time>
      </trkpt>
      <trkpt lat="43.78288" lon="7.39559">
        <ele>591</ele>
        <time>2012-05-08T08:57:18.000Z</time>
      </trkpt>
      <trkpt lat="43.78293" lon="7.39563">
        <ele>592</ele>
        <time>2012-05-08T08:57:22.000Z</time>
      </trkpt>
      <trkpt lat="43.78296" lon="7.39567">
        <ele>590</ele>
        <time>2012-05-08T08:57:25.000Z</time>
      </trkpt>
      <trkpt lat="43.783" lon="7.39572">
        <ele>584</ele>
        <time>2012-05-08T08:57:33.000Z</time>
      </trkpt>
      <trkpt lat="43.78305" lon="7.39574">
        <ele>581</ele>
        <time>2012-05-08T08:58:12.000Z</time>
      </trkpt>
      <trkpt lat="43.78304" lon="7.39581">
        <ele>581</ele>
        <time>2012-05-08T08:58:22.000Z</time>
      </trkpt>
      <trkpt lat="43.78303" lon="7.39588">
        <ele>583</ele>
        <time>2012-05-08T08:58:32.000Z</time>
      </trkpt>
      <trkpt lat="43.78299" lon="7.3959">
        <ele>583</ele>
        <time>2012-05-08T08:58:38.000Z</time>
      </trkpt>
      <trkpt lat="43.78294" lon="7.39591">
        <ele>568</ele>
        <time>2012-05-08T08:58:45.000Z</time>
      </trkpt>
      <trkpt lat="43.78298" lon="7.39593">
        <ele>593</ele>
        <time>2012-05-08T08:59:07.000Z</time>
      </trkpt>
      <trkpt lat="43.78301" lon="7.39598">
        <ele>593</ele>
        <time>2012-05-08T08:59:13.000Z</time>
      </trkpt>
      <trkpt lat="43.78305" lon="7.39602">
        <ele>579</ele>
        <time>2012-05-08T08:59:25.000Z</time>
      </trkpt>
      <trkpt lat="43.78306" lon="7.39608">
        <ele>579</ele>
        <time>2012-05-08T09:01:26.000Z</time>
      </trkpt>
      <trkpt lat="43.7831" lon="7.39613">
        <ele>582</ele>
        <time>2012-05-08T09:01:31.000Z</time>
      </trkpt>
      <trkpt lat="43.78312" lon="7.39619">
        <ele>589</ele>
        <time>2012-05-08T09:01:38.000Z</time>
      </trkpt>
      <trkpt lat="43.78315" lon="7.39626">
        <ele>584</ele>
        <time>2012-05-08T09:01:47.000Z</time>
      </trkpt>
      <trkpt lat="43.78315" lon="7.39632">
        <ele>585</ele>
        <time>2012-05-08T09:01:53.000Z</time>
      </trkpt>
      <trkpt lat="43.78316" lon="7.39639">
        <ele>588</ele>
        <time>2012-05-08T09:02:01.000Z</time>
      </trkpt>
      <trkpt lat="43.78315" lon="7.39646">
        <ele>587</ele>
        <time>2012-05-08T09:02:08.000Z</time>
      </trkpt>
      <trkpt lat="43.78314" lon="7.39652">
        <ele>596</ele>
        <time>2012-05-08T09:02:14.000Z</time>
      </trkpt>
      <trkpt lat="43.78314" lon="7.39659">
        <ele>590</ele>
        <time>2012-05-08T09:02:24.000Z</time>
      </trkpt>
      <trkpt lat="43.78315" lon="7.39665">
        <ele>599</ele>
        <time>2012-05-08T09:02:31.000Z</time>
      </trkpt>
      <trkpt lat="43.78316" lon="7.39671">
        <ele>594</ele>
        <time>2012-05-08T09:02:37.000Z</time>
      </trkpt>
      <trkpt lat="43.78316" lon="7.39678">
        <ele>594</ele>
        <time>2012-05-08T09:02:44.000Z</time>
      </trkpt>
      <trkpt lat="43.78315" lon="7.39684">
        <ele>597</ele>
        <time>2012-05-08T09:02:52.000Z</time>
      </trkpt>
      <trkpt lat="43.78317" lon="7.39689">
        <ele>600</ele>
        <time>2012-05-08T09:02:58.000Z</time>
      </trkpt>
      <trkpt lat="43.78319" lon="7.39694">
        <ele>599</ele>
        <time>2012-05-08T09:03:03.000Z</time>
      </trkpt>
      <trkpt lat="43.78323" lon="7.397">
        <ele>602</ele>
        <time>2012-05-08T09:03:07.000Z</time>
      </trkpt>
      <trkpt lat="43.78327" lon="7.39704">
        <ele>602</ele>
        <time>2012-05-08T09:03:12.000Z</time>
      </trkpt>
      <trkpt lat="43.78331" lon="7.39709">
        <ele>606</ele>
        <time>2012-05-08T09:03:17.000Z</time>
      </trkpt>
      <trkpt lat="43.78335" lon="7.39713">
        <ele>606</ele>
        <time>2012-05-08T09:03:22.000Z</time>
      </trkpt>
      <trkpt lat="43.78339" lon="7.39718">
        <ele>596</ele>
        <time>2012-05-08T09:03:27.000Z</time>
      </trkpt>
      <trkpt lat="43.78343" lon="7.39721">
        <ele>604</ele>
        <time>2012-05-08T09:03:35.000Z</time>
      </trkpt>
      <trkpt lat="43.78347" lon="7.39726">
        <ele>610</ele>
        <time>2012-05-08T09:03:42.000Z</time>
      </trkpt>
      <trkpt lat="43.7835" lon="7.3973">
        <ele>613</ele>
        <time>2012-05-08T09:03:48.000Z</time>
      </trkpt>
      <trkpt lat="43.78354" lon="7.39733">
        <ele>608</ele>
        <time>2012-05-08T09:03:53.000Z</time>
      </trkpt>
      <trkpt lat="43.78358" lon="7.39735">
        <ele>611</ele>
        <time>2012-05-08T09:04:00.000Z</time>
      </trkpt>
      <trkpt lat="43.78361" lon="7.3974">
        <ele>598</ele>
        <time>2012-05-08T09:04:10.000Z</time>
      </trkpt>
      <trkpt lat="43.78366" lon="7.39742">
        <ele>593</ele>
        <time>2012-05-08T09:04:30.000Z</time>
      </trkpt>
      <trkpt lat="43.78372" lon="7.39742">
        <ele>595</ele>
        <time>2012-05-08T09:04:36.000Z</time>
      </trkpt>
      <trkpt lat="43.78376" lon="7.39744">
        <ele>591</ele>
        <time>2012-05-08T09:04:40.000Z</time>
      </trkpt>
      <trkpt lat="43.78381" lon="7.39745">
        <ele>594</ele>
        <time>2012-05-08T09:04:44.000Z</time>
      </trkpt>
      <trkpt lat="43.78385" lon="7.39745">
        <ele>593</ele>
        <time>2012-05-08T09:04:47.000Z</time>
      </trkpt>
      <trkpt lat="43.7839" lon="7.39746">
        <ele>594</ele>
        <time>2012-05-08T09:04:51.000Z</time>
      </trkpt>
      <trkpt lat="43.78395" lon="7.39746">
        <ele>598</ele>
        <time>2012-05-08T09:05:00.000Z</time>
      </trkpt>
      <trkpt lat="43.784" lon="7.39747">
        <ele>589</ele>
        <time>2012-05-08T09:05:06.000Z</time>
      </trkpt>
      <trkpt lat="43.78405" lon="7.39747">
        <ele>593</ele>
        <time>2012-05-08T09:05:12.000Z</time>
      </trkpt>
      <trkpt lat="43.7841" lon="7.39747">
        <ele>600</ele>
        <time>2012-05-08T09:05:22.000Z</time>
      </trkpt>
      <trkpt lat="43.78415" lon="7.39746">
        <ele>601</ele>
        <time>2012-05-08T09:05:30.000Z</time>
      </trkpt>
      <trkpt lat="43.7842" lon="7.39747">
        <ele>604</ele>
        <time>2012-05-08T09:05:37.000Z</time>
      </trkpt>
      <trkpt lat="43.78424" lon="7.3975">
        <ele>596</ele>
        <time>2012-05-08T09:05:48.000Z</time>
      </trkpt>
      <trkpt lat="43.78427" lon="7.39756">
        <ele>605</ele>
        <time>2012-05-08T09:06:14.000Z</time>
      </trkpt>
      <trkpt lat="43.7843" lon="7.39762">
        <ele>601</ele>
        <time>2012-05-08T09:06:20.000Z</time>
      </trkpt>
      <trkpt lat="43.78431" lon="7.3977">
        <ele>604</ele>
        <time>2012-05-08T09:06:23.000Z</time>
      </trkpt>
      <trkpt lat="43.78434" lon="7.39776">
        <ele>601</ele>
        <time>2012-05-08T09:06:28.000Z</time>
      </trkpt>
      <trkpt lat="43.78436" lon="7.39782">
        <ele>602</ele>
        <time>2012-05-08T09:06:33.000Z</time>
      </trkpt>
      <trkpt lat="43.78438" lon="7.39788">
        <ele>603</ele>
        <time>2012-05-08T09:06:37.000Z</time>
      </trkpt>
      <trkpt lat="43.78441" lon="7.39796">
        <ele>606</ele>
        <time>2012-05-08T09:06:40.000Z</time>
      </trkpt>
      <trkpt lat="43.78443" lon="7.39801">
        <ele>603</ele>
        <time>2012-05-08T09:06:42.000Z</time>
      </trkpt>
      <trkpt lat="43.78445" lon="7.3981">
        <ele>602</ele>
        <time>2012-05-08T09:06:45.000Z</time>
      </trkpt>
      <trkpt lat="43.78446" lon="7.39816">
        <ele>602</ele>
        <time>2012-05-08T09:06:48.000Z</time>
      </trkpt>
      <trkpt lat="43.78446" lon="7.39824">
        <ele>606</ele>
        <time>2012-05-08T09:06:51.000Z</time>
      </trkpt>
      <trkpt lat="43.78447" lon="7.39832">
        <ele>607</ele>
        <time>2012-05-08T09:06:55.000Z</time>
      </trkpt>
      <trkpt lat="43.78446" lon="7.39839">
        <ele>609</ele>
        <time>2012-05-08T09:07:00.000Z</time>
      </trkpt>
      <trkpt lat="43.78446" lon="7.39846">
        <ele>609</ele>
        <time>2012-05-08T09:07:06.000Z</time>
      </trkpt>
      <trkpt lat="43.78444" lon="7.39852">
        <ele>609</ele>
        <time>2012-05-08T09:07:11.000Z</time>
      </trkpt>
      <trkpt lat="43.78444" lon="7.39859">
        <ele>607</ele>
        <time>2012-05-08T09:07:18.000Z</time>
      </trkpt>
      <trkpt lat="43.7844" lon="7.39862">
        <ele>606</ele>
        <time>2012-05-08T09:07:24.000Z</time>
      </trkpt>
      <trkpt lat="43.78437" lon="7.39867">
        <ele>603</ele>
        <time>2012-05-08T09:07:33.000Z</time>
      </trkpt>
      <trkpt lat="43.78434" lon="7.39872">
        <ele>594</ele>
        <time>2012-05-08T09:07:48.000Z</time>
      </trkpt>
      <trkpt lat="43.78435" lon="7.39878">
        <ele>605</ele>
        <time>2012-05-08T09:08:02.000Z</time>
      </trkpt>
      <trkpt lat="43.78438" lon="7.39884">
        <ele>608</ele>
        <time>2012-05-08T09:08:29.000Z</time>
      </trkpt>
      <trkpt lat="43.78442" lon="7.39888">
        <ele>608</ele>
        <time>2012-05-08T09:08:59.000Z</time>
      </trkpt>
      <trkpt lat="43.78442" lon="7.39888">
        <ele>608</ele>
        <time>2012-05-08T09:08:59.000Z</time>
      </trkpt>
      <trkpt lat="43.78442" lon="7.39888">
        <ele>608</ele>
        <time>2012-05-08T09:09:00.000Z</time>
      </trkpt>
      <trkpt lat="43.78446" lon="7.39892">
        <ele>626</ele>
        <time>2012-05-08T09:09:13.000Z</time>
      </trkpt>
      <trkpt lat="43.78448" lon="7.39896">
        <ele>604</ele>
        <time>2012-05-08T09:09:28.000Z</time>
      </trkpt>
      <trkpt lat="43.78448" lon="7.39903">
        <ele>605</ele>
        <time>2012-05-08T09:09:31.000Z</time>
      </trkpt>
      <trkpt lat="43.78448" lon="7.39909">
        <ele>602</ele>
        <time>2012-05-08T09:09:35.000Z</time>
      </trkpt>
      <trkpt lat="43.78448" lon="7.39916">
        <ele>602</ele>
        <time>2012-05-08T09:09:40.000Z</time>
      </trkpt>
      <trkpt lat="43.78446" lon="7.39922">
        <ele>606</ele>
        <time>2012-05-08T09:09:46.000Z</time>
      </trkpt>
      <trkpt lat="43.78447" lon="7.39929">
        <ele>603</ele>
        <time>2012-05-08T09:09:54.000Z</time>
      </trkpt>
      <trkpt lat="43.78445" lon="7.39935">
        <ele>606</ele>
        <time>2012-05-08T09:10:42.000Z</time>
      </trkpt>
      <trkpt lat="43.78444" lon="7.39941">
        <ele>615</ele>
        <time>2012-05-08T09:11:15.000Z</time>
      </trkpt>
      <trkpt lat="43.78447" lon="7.39947">
        <ele>607</ele>
        <time>2012-05-08T09:11:52.000Z</time>
      </trkpt>
      <trkpt lat="43.78447" lon="7.39947">
        <ele>607</ele>
        <time>2012-05-08T09:11:52.000Z</time>
      </trkpt>
      <trkpt lat="43.78447" lon="7.39947">
        <ele>607</ele>
        <time>2012-05-08T09:13:01.000Z</time>
      </trkpt>
      <trkpt lat="43.78451" lon="7.39949">
        <ele>601</ele>
        <time>2012-05-08T09:13:08.000Z</time>
      </trkpt>
      <trkpt lat="43.78454" lon="7.39955">
        <ele>609</ele>
        <time>2012-05-08T09:13:13.000Z</time>
      </trkpt>
      <trkpt lat="43.78459" lon="7.39957">
        <ele>602</ele>
        <time>2012-05-08T09:13:19.000Z</time>
      </trkpt>
      <trkpt lat="43.78458" lon="7.39963">
        <ele>607</ele>
        <time>2012-05-08T09:14:41.000Z</time>
      </trkpt>
      <trkpt lat="43.7846" lon="7.3997">
        <ele>610</ele>
        <time>2012-05-08T09:14:49.000Z</time>
      </trkpt>
      <trkpt lat="43.78461" lon="7.39976">
        <ele>607</ele>
        <time>2012-05-08T09:14:57.000Z</time>
      </trkpt>
      <trkpt lat="43.78462" lon="7.39982">
        <ele>612</ele>
        <time>2012-05-08T09:15:07.000Z</time>
      </trkpt>
      <trkpt lat="43.78465" lon="7.39987">
        <ele>613</ele>
        <time>2012-05-08T09:15:18.000Z</time>
      </trkpt>
      <trkpt lat="43.78465" lon="7.39981">
        <ele>609</ele>
        <time>2012-05-08T09:15:31.000Z</time>
      </trkpt>
      <trkpt lat="43.78466" lon="7.39974">
        <ele>610</ele>
        <time>2012-05-08T09:15:44.000Z</time>
      </trkpt>
      <trkpt lat="43.78469" lon="7.39968">
        <ele>612</ele>
        <time>2012-05-08T09:15:53.000Z</time>
      </trkpt>
      <trkpt lat="43.78471" lon="7.39963">
        <ele>616</ele>
        <time>2012-05-08T09:16:02.000Z</time>
      </trkpt>
      <trkpt lat="43.78471" lon="7.39956">
        <ele>614</ele>
        <time>2012-05-08T09:16:11.000Z</time>
      </trkpt>
      <trkpt lat="43.78473" lon="7.3995">
        <ele>614</ele>
        <time>2012-05-08T09:16:20.000Z</time>
      </trkpt>
      <trkpt lat="43.78475" lon="7.39944">
        <ele>613</ele>
        <time>2012-05-08T09:16:29.000Z</time>
      </trkpt>
      <trkpt lat="43.78477" lon="7.39938">
        <ele>616</ele>
        <time>2012-05-08T09:16:39.000Z</time>
      </trkpt>
      <trkpt lat="43.7848" lon="7.39943">
        <ele>621</ele>
        <time>2012-05-08T09:16:50.000Z</time>
      </trkpt>
      <trkpt lat="43.78484" lon="7.39947">
        <ele>626</ele>
        <time>2012-05-08T09:17:01.000Z</time>
      </trkpt>
      <trkpt lat="43.78484" lon="7.39954">
        <ele>623</ele>
        <time>2012-05-08T09:17:09.000Z</time>
      </trkpt>
      <trkpt lat="43.78485" lon="7.3996">
        <ele>622</ele>
        <time>2012-05-08T09:17:18.000Z</time>
      </trkpt>
      <trkpt lat="43.78486" lon="7.39966">
        <ele>626</ele>
        <time>2012-05-08T09:17:30.000Z</time>
      </trkpt>
      <trkpt lat="43.78486" lon="7.39966">
        <ele>626</ele>
        <time>2012-05-08T09:17:30.000Z</time>
      </trkpt>
      <trkpt lat="43.78486" lon="7.39966">
        <ele>626</ele>
        <time>2012-05-08T09:17:47.000Z</time>
      </trkpt>
      <trkpt lat="43.78489" lon="7.39972">
        <ele>629</ele>
        <time>2012-05-08T09:17:57.000Z</time>
      </trkpt>
      <trkpt lat="43.78491" lon="7.39977">
        <ele>625</ele>
        <time>2012-05-08T09:18:23.000Z</time>
      </trkpt>
      <trkpt lat="43.78495" lon="7.39982">
        <ele>628</ele>
        <time>2012-05-08T09:18:30.000Z</time>
      </trkpt>
      <trkpt lat="43.785" lon="7.39983">
        <ele>632</ele>
        <time>2012-05-08T09:18:48.000Z</time>
      </trkpt>
      <trkpt lat="43.78504" lon="7.39985">
        <ele>628</ele>
        <time>2012-05-08T09:18:54.000Z</time>
      </trkpt>
      <trkpt lat="43.78509" lon="7.39984">
        <ele>626</ele>
        <time>2012-05-08T09:18:58.000Z</time>
      </trkpt>
      <trkpt lat="43.78514" lon="7.39986">
        <ele>632</ele>
        <time>2012-05-08T09:19:03.000Z</time>
      </trkpt>
      <trkpt lat="43.78518" lon="7.39986">
        <ele>631</ele>
        <time>2012-05-08T09:19:12.000Z</time>
      </trkpt>
      <trkpt lat="43.78523" lon="7.39985">
        <ele>631</ele>
        <time>2012-05-08T09:19:24.000Z</time>
      </trkpt>
      <trkpt lat="43.78527" lon="7.39984">
        <ele>631</ele>
        <time>2012-05-08T09:19:33.000Z</time>
      </trkpt>
      <trkpt lat="43.78532" lon="7.39984">
        <ele>632</ele>
        <time>2012-05-08T09:19:39.000Z</time>
      </trkpt>
      <trkpt lat="43.78537" lon="7.39982">
        <ele>632</ele>
        <time>2012-05-08T09:19:46.000Z</time>
      </trkpt>
      <trkpt lat="43.78542" lon="7.39984">
        <ele>631</ele>
        <time>2012-05-08T09:19:53.000Z</time>
      </trkpt>
      <trkpt lat="43.78547" lon="7.39985">
        <ele>635</ele>
        <time>2012-05-08T09:20:02.000Z</time>
      </trkpt>
      <trkpt lat="43.78551" lon="7.39986">
        <ele>633</ele>
        <time>2012-05-08T09:23:45.000Z</time>
      </trkpt>
      <trkpt lat="43.78556" lon="7.39985">
        <ele>639</ele>
        <time>2012-05-08T09:23:54.000Z</time>
      </trkpt>
      <trkpt lat="43.78561" lon="7.39987">
        <ele>635</ele>
        <time>2012-05-08T09:24:14.000Z</time>
      </trkpt>
      <trkpt lat="43.78565" lon="7.39988">
        <ele>634</ele>
        <time>2012-05-08T09:24:34.000Z</time>
      </trkpt>
      <trkpt lat="43.7857" lon="7.39989">
        <ele>640</ele>
        <time>2012-05-08T09:25:13.000Z</time>
      </trkpt>
      <trkpt lat="43.7857" lon="7.39989">
        <ele>640</ele>
        <time>2012-05-08T09:25:13.000Z</time>
      </trkpt>
      <trkpt lat="43.7857" lon="7.39989">
        <ele>640</ele>
        <time>2012-05-08T09:25:14.000Z</time>
      </trkpt>
      <trkpt lat="43.78574" lon="7.39989">
        <ele>634</ele>
        <time>2012-05-08T09:25:20.000Z</time>
      </trkpt>
      <trkpt lat="43.78579" lon="7.39986">
        <ele>635</ele>
        <time>2012-05-08T09:25:25.000Z</time>
      </trkpt>
      <trkpt lat="43.78583" lon="7.39988">
        <ele>641</ele>
        <time>2012-05-08T09:25:31.000Z</time>
      </trkpt>
      <trkpt lat="43.78588" lon="7.3999">
        <ele>643</ele>
        <time>2012-05-08T09:25:40.000Z</time>
      </trkpt>
      <trkpt lat="43.78592" lon="7.39993">
        <ele>645</ele>
        <time>2012-05-08T09:25:49.000Z</time>
      </trkpt>
      <trkpt lat="43.78597" lon="7.39994">
        <ele>646</ele>
        <time>2012-05-08T09:26:01.000Z</time>
      </trkpt>
      <trkpt lat="43.78601" lon="7.39996">
        <ele>645</ele>
        <time>2012-05-08T09:26:06.000Z</time>
      </trkpt>
      <trkpt lat="43.78606" lon="7.39999">
        <ele>643</ele>
        <time>2012-05-08T09:26:11.000Z</time>
      </trkpt>
      <trkpt lat="43.78611" lon="7.40002">
        <ele>643</ele>
        <time>2012-05-08T09:26:16.000Z</time>
      </trkpt>
      <trkpt lat="43.78615" lon="7.40004">
        <ele>645</ele>
        <time>2012-05-08T09:26:22.000Z</time>
      </trkpt>
      <trkpt lat="43.7862" lon="7.40007">
        <ele>645</ele>
        <time>2012-05-08T09:26:31.000Z</time>
      </trkpt>
      <trkpt lat="43.78624" lon="7.40009">
        <ele>647</ele>
        <time>2012-05-08T09:26:38.000Z</time>
      </trkpt>
      <trkpt lat="43.78629" lon="7.40011">
        <ele>645</ele>
        <time>2012-05-08T09:26:44.000Z</time>
      </trkpt>
      <trkpt lat="43.78634" lon="7.40014">
        <ele>645</ele>
        <time>2012-05-08T09:26:51.000Z</time>
      </trkpt>
      <trkpt lat="43.78638" lon="7.40017">
        <ele>646</ele>
        <time>2012-05-08T09:26:59.000Z</time>
      </trkpt>
      <trkpt lat="43.78642" lon="7.40018">
        <ele>646</ele>
        <time>2012-05-08T09:27:07.000Z</time>
      </trkpt>
      <trkpt lat="43.78647" lon="7.40021">
        <ele>649</ele>
        <time>2012-05-08T09:27:14.000Z</time>
      </trkpt>
      <trkpt lat="43.78652" lon="7.40022">
        <ele>650</ele>
        <time>2012-05-08T09:27:23.000Z</time>
      </trkpt>
      <trkpt lat="43.78657" lon="7.4002">
        <ele>655</ele>
        <time>2012-05-08T09:27:29.000Z</time>
      </trkpt>
      <trkpt lat="43.78662" lon="7.40019">
        <ele>650</ele>
        <time>2012-05-08T09:27:35.000Z</time>
      </trkpt>
      <trkpt lat="43.78667" lon="7.40018">
        <ele>651</ele>
        <time>2012-05-08T09:27:42.000Z</time>
      </trkpt>
      <trkpt lat="43.78672" lon="7.40018">
        <ele>650</ele>
        <time>2012-05-08T09:27:48.000Z</time>
      </trkpt>
      <trkpt lat="43.78676" lon="7.40016">
        <ele>652</ele>
        <time>2012-05-08T09:27:57.000Z</time>
      </trkpt>
      <trkpt lat="43.78681" lon="7.40013">
        <ele>652</ele>
        <time>2012-05-08T09:28:10.000Z</time>
      </trkpt>
      <trkpt lat="43.78686" lon="7.40012">
        <ele>653</ele>
        <time>2012-05-08T09:28:18.000Z</time>
      </trkpt>
      <trkpt lat="43.78691" lon="7.40013">
        <ele>655</ele>
        <time>2012-05-08T09:28:25.000Z</time>
      </trkpt>
      <trkpt lat="43.78696" lon="7.40014">
        <ele>658</ele>
        <time>2012-05-08T09:28:32.000Z</time>
      </trkpt>
      <trkpt lat="43.787" lon="7.40018">
        <ele>659</ele>
        <time>2012-05-08T09:28:38.000Z</time>
      </trkpt>
      <trkpt lat="43.78703" lon="7.40022">
        <ele>662</ele>
        <time>2012-05-08T09:28:43.000Z</time>
      </trkpt>
      <trkpt lat="43.78706" lon="7.40027">
        <ele>662</ele>
        <time>2012-05-08T09:28:48.000Z</time>
      </trkpt>
      <trkpt lat="43.7871" lon="7.40032">
        <ele>660</ele>
        <time>2012-05-08T09:28:54.000Z</time>
      </trkpt>
      <trkpt lat="43.78713" lon="7.40037">
        <ele>664</ele>
        <time>2012-05-08T09:29:01.000Z</time>
      </trkpt>
      <trkpt lat="43.78714" lon="7.40044">
        <ele>664</ele>
        <time>2012-05-08T09:29:08.000Z</time>
      </trkpt>
      <trkpt lat="43.78712" lon="7.4005">
        <ele>661</ele>
        <time>2012-05-08T09:30:06.000Z</time>
      </trkpt>
      <trkpt lat="43.7871" lon="7.40057">
        <ele>660</ele>
        <time>2012-05-08T09:30:12.000Z</time>
      </trkpt>
      <trkpt lat="43.78712" lon="7.40062">
        <ele>652</ele>
        <time>2012-05-08T09:30:20.000Z</time>
      </trkpt>
      <trkpt lat="43.78716" lon="7.40065">
        <ele>650</ele>
        <time>2012-05-08T09:30:31.000Z</time>
      </trkpt>
      <trkpt lat="43.78718" lon="7.40071">
        <ele>660</ele>
        <time>2012-05-08T09:30:48.000Z</time>
      </trkpt>
      <trkpt lat="43.78724" lon="7.40074">
        <ele>664</ele>
        <time>2012-05-08T09:30:53.000Z</time>
      </trkpt>
      <trkpt lat="43.78728" lon="7.40077">
        <ele>665</ele>
        <time>2012-05-08T09:30:57.000Z</time>
      </trkpt>
      <trkpt lat="43.78734" lon="7.40078">
        <ele>661</ele>
        <time>2012-05-08T09:31:02.000Z</time>
      </trkpt>
      <trkpt lat="43.78739" lon="7.40076">
        <ele>656</ele>
        <time>2012-05-08T09:31:07.000Z</time>
      </trkpt>
      <trkpt lat="43.78742" lon="7.40069">
        <ele>662</ele>
        <time>2012-05-08T09:31:13.000Z</time>
      </trkpt>
      <trkpt lat="43.78745" lon="7.40064">
        <ele>664</ele>
        <time>2012-05-08T09:31:19.000Z</time>
      </trkpt>
      <trkpt lat="43.78749" lon="7.4006">
        <ele>665</ele>
        <time>2012-05-08T09:31:26.000Z</time>
      </trkpt>
      <trkpt lat="43.78754" lon="7.4006">
        <ele>668</ele>
        <time>2012-05-08T09:31:33.000Z</time>
      </trkpt>
      <trkpt lat="43.78758" lon="7.40063">
        <ele>665</ele>
        <time>2012-05-08T09:31:41.000Z</time>
      </trkpt>
      <trkpt lat="43.78761" lon="7.40066">
        <ele>669</ele>
        <time>2012-05-08T09:31:47.000Z</time>
      </trkpt>
      <trkpt lat="43.78766" lon="7.40068">
        <ele>671</ele>
        <time>2012-05-08T09:31:52.000Z</time>
      </trkpt>
      <trkpt lat="43.7877" lon="7.4007">
        <ele>673</ele>
        <time>2012-05-08T09:31:57.000Z</time>
      </trkpt>
      <trkpt lat="43.78773" lon="7.40074">
        <ele>674</ele>
        <time>2012-05-08T09:32:08.000Z</time>
      </trkpt>
      <trkpt lat="43.78776" lon="7.40078">
        <ele>672</ele>
        <time>2012-05-08T09:32:15.000Z</time>
      </trkpt>
      <trkpt lat="43.78782" lon="7.4008">
        <ele>673</ele>
        <time>2012-05-08T09:32:21.000Z</time>
      </trkpt>
      <trkpt lat="43.78786" lon="7.40082">
        <ele>674</ele>
        <time>2012-05-08T09:32:26.000Z</time>
      </trkpt>
      <trkpt lat="43.78791" lon="7.40083">
        <ele>674</ele>
        <time>2012-05-08T09:32:32.000Z</time>
      </trkpt>
      <trkpt lat="43.78796" lon="7.4008">
        <ele>673</ele>
        <time>2012-05-08T09:32:40.000Z</time>
      </trkpt>
      <trkpt lat="43.78798" lon="7.40085">
        <ele>673</ele>
        <time>2012-05-08T09:33:15.000Z</time>
      </trkpt>
      <trkpt lat="43.78803" lon="7.40084">
        <ele>671</ele>
        <time>2012-05-08T09:33:18.000Z</time>
      </trkpt>
      <trkpt lat="43.78809" lon="7.40085">
        <ele>676</ele>
        <time>2012-05-08T09:33:22.000Z</time>
      </trkpt>
      <trkpt lat="43.78813" lon="7.40084">
        <ele>684</ele>
        <time>2012-05-08T09:33:27.000Z</time>
      </trkpt>
      <trkpt lat="43.78818" lon="7.40084">
        <ele>684</ele>
        <time>2012-05-08T09:33:34.000Z</time>
      </trkpt>
      <trkpt lat="43.78823" lon="7.40087">
        <ele>670</ele>
        <time>2012-05-08T09:34:05.000Z</time>
      </trkpt>
      <trkpt lat="43.78827" lon="7.40089">
        <ele>669</ele>
        <time>2012-05-08T09:34:10.000Z</time>
      </trkpt>
      <trkpt lat="43.78832" lon="7.40091">
        <ele>669</ele>
        <time>2012-05-08T09:34:17.000Z</time>
      </trkpt>
      <trkpt lat="43.78837" lon="7.40091">
        <ele>671</ele>
        <time>2012-05-08T09:34:23.000Z</time>
      </trkpt>
      <trkpt lat="43.78841" lon="7.40088">
        <ele>676</ele>
        <time>2012-05-08T09:34:52.000Z</time>
      </trkpt>
      <trkpt lat="43.78841" lon="7.40088">
        <ele>676</ele>
        <time>2012-05-08T09:34:52.000Z</time>
      </trkpt>
      <trkpt lat="43.78841" lon="7.40088">
        <ele>676</ele>
        <time>2012-05-08T09:34:55.000Z</time>
      </trkpt>
      <trkpt lat="43.78846" lon="7.40085">
        <ele>675</ele>
        <time>2012-05-08T09:35:01.000Z</time>
      </trkpt>
      <trkpt lat="43.78849" lon="7.40082">
        <ele>668</ele>
        <time>2012-05-08T09:35:12.000Z</time>
      </trkpt>
      <trkpt lat="43.78854" lon="7.40078">
        <ele>679</ele>
        <time>2012-05-08T09:35:18.000Z</time>
      </trkpt>
      <trkpt lat="43.78858" lon="7.40075">
        <ele>674</ele>
        <time>2012-05-08T09:35:24.000Z</time>
      </trkpt>
      <trkpt lat="43.78862" lon="7.40073">
        <ele>678</ele>
        <time>2012-05-08T09:35:33.000Z</time>
      </trkpt>
      <trkpt lat="43.78867" lon="7.40072">
        <ele>685</ele>
        <time>2012-05-08T09:35:40.000Z</time>
      </trkpt>
      <trkpt lat="43.78869" lon="7.40078">
        <ele>677</ele>
        <time>2012-05-08T09:35:47.000Z</time>
      </trkpt>
      <trkpt lat="43.78874" lon="7.40081">
        <ele>671</ele>
        <time>2012-05-08T09:36:11.000Z</time>
      </trkpt>
      <trkpt lat="43.78878" lon="7.40083">
        <ele>676</ele>
        <time>2012-05-08T09:36:32.000Z</time>
      </trkpt>
      <trkpt lat="43.78883" lon="7.40085">
        <ele>682</ele>
        <time>2012-05-08T09:36:37.000Z</time>
      </trkpt>
      <trkpt lat="43.78887" lon="7.40088">
        <ele>686</ele>
        <time>2012-05-08T09:36:42.000Z</time>
      </trkpt>
      <trkpt lat="43.78892" lon="7.4009">
        <ele>688</ele>
        <time>2012-05-08T09:36:48.000Z</time>
      </trkpt>
      <trkpt lat="43.78897" lon="7.4009">
        <ele>681</ele>
        <time>2012-05-08T09:36:53.000Z</time>
      </trkpt>
      <trkpt lat="43.78902" lon="7.4009">
        <ele>682</ele>
        <time>2012-05-08T09:36:58.000Z</time>
      </trkpt>
      <trkpt lat="43.78906" lon="7.40093">
        <ele>686</ele>
        <time>2012-05-08T09:37:03.000Z</time>
      </trkpt>
      <trkpt lat="43.78908" lon="7.40099">
        <ele>691</ele>
        <time>2012-05-08T09:37:18.000Z</time>
      </trkpt>
      <trkpt lat="43.78911" lon="7.40105">
        <ele>685</ele>
        <time>2012-05-08T09:37:25.000Z</time>
      </trkpt>
      <trkpt lat="43.78912" lon="7.40111">
        <ele>693</ele>
        <time>2012-05-08T09:37:34.000Z</time>
      </trkpt>
      <trkpt lat="43.7891" lon="7.40117">
        <ele>691</ele>
        <time>2012-05-08T09:37:44.000Z</time>
      </trkpt>
      <trkpt lat="43.78905" lon="7.4012">
        <ele>689</ele>
        <time>2012-05-08T09:37:49.000Z</time>
      </trkpt>
      <trkpt lat="43.789" lon="7.40125">
        <ele>691</ele>
        <time>2012-05-08T09:37:56.000Z</time>
      </trkpt>
      <trkpt lat="43.78897" lon="7.40132">
        <ele>694</ele>
        <time>2012-05-08T09:38:02.000Z</time>
      </trkpt>
      <trkpt lat="43.78899" lon="7.40138">
        <ele>687</ele>
        <time>2012-05-08T09:38:09.000Z</time>
      </trkpt>
      <trkpt lat="43.78903" lon="7.40141">
        <ele>682</ele>
        <time>2012-05-08T09:38:18.000Z</time>
      </trkpt>
      <trkpt lat="43.78908" lon="7.40141">
        <ele>679</ele>
        <time>2012-05-08T09:38:23.000Z</time>
      </trkpt>
      <trkpt lat="43.78913" lon="7.40141">
        <ele>683</ele>
        <time>2012-05-08T09:38:30.000Z</time>
      </trkpt>
      <trkpt lat="43.78915" lon="7.40146">
        <ele>690</ele>
        <time>2012-05-08T09:38:38.000Z</time>
      </trkpt>
      <trkpt lat="43.78918" lon="7.40152">
        <ele>696</ele>
        <time>2012-05-08T09:38:47.000Z</time>
      </trkpt>
      <trkpt lat="43.78923" lon="7.40152">
        <ele>701</ele>
        <time>2012-05-08T09:41:32.000Z</time>
      </trkpt>
      <trkpt lat="43.78923" lon="7.40152">
        <ele>701</ele>
        <time>2012-05-08T09:41:32.000Z</time>
      </trkpt>
      <trkpt lat="43.78923" lon="7.40152">
        <ele>701</ele>
        <time>2012-05-08T09:42:50.000Z</time>
      </trkpt>
      <trkpt lat="43.78922" lon="7.40144">
        <ele>697</ele>
        <time>2012-05-08T09:44:44.000Z</time>
      </trkpt>
      <trkpt lat="43.7892" lon="7.40139">
        <ele>694</ele>
        <time>2012-05-08T09:44:50.000Z</time>
      </trkpt>
      <trkpt lat="43.78915" lon="7.40138">
        <ele>695</ele>
        <time>2012-05-08T09:44:58.000Z</time>
      </trkpt>
      <trkpt lat="43.78911" lon="7.40143">
        <ele>698</ele>
        <time>2012-05-08T09:45:05.000Z</time>
      </trkpt>
      <trkpt lat="43.78906" lon="7.40145">
        <ele>693</ele>
        <time>2012-05-08T09:45:10.000Z</time>
      </trkpt>
      <trkpt lat="43.78902" lon="7.40145">
        <ele>690</ele>
        <time>2012-05-08T09:45:17.000Z</time>
      </trkpt>
      <trkpt lat="43.78897" lon="7.40143">
        <ele>690</ele>
        <time>2012-05-08T09:45:23.000Z</time>
      </trkpt>
      <trkpt lat="43.78895" lon="7.40137">
        <ele>689</ele>
        <time>2012-05-08T09:45:30.000Z</time>
      </trkpt>
      <trkpt lat="43.78891" lon="7.40133">
        <ele>690</ele>
        <time>2012-05-08T09:45:38.000Z</time>
      </trkpt>
      <trkpt lat="43.78892" lon="7.40126">
        <ele>687</ele>
        <time>2012-05-08T09:45:50.000Z</time>
      </trkpt>
      <trkpt lat="43.78895" lon="7.40121">
        <ele>686</ele>
        <time>2012-05-08T09:45:57.000Z</time>
      </trkpt>
      <trkpt lat="43.78899" lon="7.40118">
        <ele>684</ele>
        <time>2012-05-08T09:46:07.000Z</time>
      </trkpt>
      <trkpt lat="43.78903" lon="7.40119">
        <ele>680</ele>
        <time>2012-05-08T09:46:15.000Z</time>
      </trkpt>
      <trkpt lat="43.78908" lon="7.40118">
        <ele>682</ele>
        <time>2012-05-08T09:46:23.000Z</time>
      </trkpt>
      <trkpt lat="43.78912" lon="7.40115">
        <ele>681</ele>
        <time>2012-05-08T09:46:30.000Z</time>
      </trkpt>
      <trkpt lat="43.78908" lon="7.40113">
        <ele>680</ele>
        <time>2012-05-08T09:46:51.000Z</time>
      </trkpt>
      <trkpt lat="43.78905" lon="7.40108">
        <ele>682</ele>
        <time>2012-05-08T09:47:00.000Z</time>
      </trkpt>
      <trkpt lat="43.78902" lon="7.40102">
        <ele>683</ele>
        <time>2012-05-08T09:47:15.000Z</time>
      </trkpt>
      <trkpt lat="43.78898" lon="7.40098">
        <ele>683</ele>
        <time>2012-05-08T09:47:27.000Z</time>
      </trkpt>
      <trkpt lat="43.78894" lon="7.40095">
        <ele>681</ele>
        <time>2012-05-08T09:47:39.000Z</time>
      </trkpt>
      <trkpt lat="43.7889" lon="7.40092">
        <ele>681</ele>
        <time>2012-05-08T09:47:48.000Z</time>
      </trkpt>
      <trkpt lat="43.78888" lon="7.40086">
        <ele>683</ele>
        <time>2012-05-08T09:48:04.000Z</time>
      </trkpt>
      <trkpt lat="43.78884" lon="7.40084">
        <ele>682</ele>
        <time>2012-05-08T09:48:15.000Z</time>
      </trkpt>
      <trkpt lat="43.78879" lon="7.40081">
        <ele>680</ele>
        <time>2012-05-08T09:48:24.000Z</time>
      </trkpt>
      <trkpt lat="43.78875" lon="7.4008">
        <ele>680</ele>
        <time>2012-05-08T09:48:33.000Z</time>
      </trkpt>
      <trkpt lat="43.7887" lon="7.40077">
        <ele>681</ele>
        <time>2012-05-08T09:48:41.000Z</time>
      </trkpt>
      <trkpt lat="43.78866" lon="7.40073">
        <ele>682</ele>
        <time>2012-05-08T09:48:47.000Z</time>
      </trkpt>
      <trkpt lat="43.78861" lon="7.40071">
        <ele>681</ele>
        <time>2012-05-08T09:48:55.000Z</time>
      </trkpt>
      <trkpt lat="43.78856" lon="7.40074">
        <ele>677</ele>
        <time>2012-05-08T09:49:04.000Z</time>
      </trkpt>
      <trkpt lat="43.78857" lon="7.4008">
        <ele>678</ele>
        <time>2012-05-08T09:49:11.000Z</time>
      </trkpt>
      <trkpt lat="43.78853" lon="7.40084">
        <ele>679</ele>
        <time>2012-05-08T09:49:18.000Z</time>
      </trkpt>
      <trkpt lat="43.78849" lon="7.40088">
        <ele>679</ele>
        <time>2012-05-08T09:49:26.000Z</time>
      </trkpt>
      <trkpt lat="43.78846" lon="7.40092">
        <ele>675</ele>
        <time>2012-05-08T09:49:42.000Z</time>
      </trkpt>
      <trkpt lat="43.78843" lon="7.40097">
        <ele>671</ele>
        <time>2012-05-08T09:49:56.000Z</time>
      </trkpt>
      <trkpt lat="43.78843" lon="7.40097">
        <ele>671</ele>
        <time>2012-05-08T09:49:56.000Z</time>
      </trkpt>
      <trkpt lat="43.78843" lon="7.40097">
        <ele>671</ele>
        <time>2012-05-08T09:49:58.000Z</time>
      </trkpt>
      <trkpt lat="43.78838" lon="7.40099">
        <ele>671</ele>
        <time>2012-05-08T09:50:07.000Z</time>
      </trkpt>
      <trkpt lat="43.78834" lon="7.40096">
        <ele>674</ele>
        <time>2012-05-08T09:50:14.000Z</time>
      </trkpt>
      <trkpt lat="43.78829" lon="7.40093">
        <ele>672</ele>
        <time>2012-05-08T09:50:22.000Z</time>
      </trkpt>
      <trkpt lat="43.78824" lon="7.40092">
        <ele>673</ele>
        <time>2012-05-08T09:50:29.000Z</time>
      </trkpt>
      <trkpt lat="43.78819" lon="7.40092">
        <ele>674</ele>
        <time>2012-05-08T09:50:36.000Z</time>
      </trkpt>
      <trkpt lat="43.78814" lon="7.4009">
        <ele>675</ele>
        <time>2012-05-08T09:50:42.000Z</time>
      </trkpt>
      <trkpt lat="43.78809" lon="7.40089">
        <ele>673</ele>
        <time>2012-05-08T09:50:49.000Z</time>
      </trkpt>
      <trkpt lat="43.78804" lon="7.40087">
        <ele>671</ele>
        <time>2012-05-08T09:50:58.000Z</time>
      </trkpt>
      <trkpt lat="43.788" lon="7.40086">
        <ele>672</ele>
        <time>2012-05-08T09:51:04.000Z</time>
      </trkpt>
      <trkpt lat="43.78795" lon="7.40085">
        <ele>669</ele>
        <time>2012-05-08T09:51:11.000Z</time>
      </trkpt>
      <trkpt lat="43.7879" lon="7.40085">
        <ele>671</ele>
        <time>2012-05-08T09:51:19.000Z</time>
      </trkpt>
      <trkpt lat="43.78786" lon="7.40083">
        <ele>671</ele>
        <time>2012-05-08T09:51:26.000Z</time>
      </trkpt>
      <trkpt lat="43.78781" lon="7.4008">
        <ele>671</ele>
        <time>2012-05-08T09:51:33.000Z</time>
      </trkpt>
      <trkpt lat="43.78777" lon="7.40076">
        <ele>672</ele>
        <time>2012-05-08T09:51:38.000Z</time>
      </trkpt>
      <trkpt lat="43.78772" lon="7.40073">
        <ele>673</ele>
        <time>2012-05-08T09:51:43.000Z</time>
      </trkpt>
      <trkpt lat="43.78768" lon="7.40069">
        <ele>674</ele>
        <time>2012-05-08T09:51:48.000Z</time>
      </trkpt>
      <trkpt lat="43.78763" lon="7.40068">
        <ele>669</ele>
        <time>2012-05-08T09:51:55.000Z</time>
      </trkpt>
      <trkpt lat="43.78759" lon="7.40065">
        <ele>670</ele>
        <time>2012-05-08T09:52:01.000Z</time>
      </trkpt>
      <trkpt lat="43.78755" lon="7.4006">
        <ele>671</ele>
        <time>2012-05-08T09:52:07.000Z</time>
      </trkpt>
      <trkpt lat="43.7875" lon="7.40062">
        <ele>666</ele>
        <time>2012-05-08T09:52:14.000Z</time>
      </trkpt>
      <trkpt lat="43.78746" lon="7.40063">
        <ele>663</ele>
        <time>2012-05-08T09:52:21.000Z</time>
      </trkpt>
      <trkpt lat="43.78742" lon="7.40067">
        <ele>666</ele>
        <time>2012-05-08T09:52:27.000Z</time>
      </trkpt>
      <trkpt lat="43.78738" lon="7.40072">
        <ele>668</ele>
        <time>2012-05-08T09:52:31.000Z</time>
      </trkpt>
      <trkpt lat="43.78734" lon="7.40077">
        <ele>668</ele>
        <time>2012-05-08T09:52:35.000Z</time>
      </trkpt>
      <trkpt lat="43.7873" lon="7.40082">
        <ele>669</ele>
        <time>2012-05-08T09:52:41.000Z</time>
      </trkpt>
      <trkpt lat="43.78725" lon="7.40081">
        <ele>666</ele>
        <time>2012-05-08T09:52:47.000Z</time>
      </trkpt>
      <trkpt lat="43.78722" lon="7.40075">
        <ele>664</ele>
        <time>2012-05-08T09:52:53.000Z</time>
      </trkpt>
      <trkpt lat="43.7872" lon="7.40068">
        <ele>666</ele>
        <time>2012-05-08T09:52:58.000Z</time>
      </trkpt>
      <trkpt lat="43.78719" lon="7.40062">
        <ele>663</ele>
        <time>2012-05-08T09:53:08.000Z</time>
      </trkpt>
      <trkpt lat="43.78714" lon="7.40062">
        <ele>661</ele>
        <time>2012-05-08T09:53:32.000Z</time>
      </trkpt>
      <trkpt lat="43.78711" lon="7.40057">
        <ele>661</ele>
        <time>2012-05-08T09:53:41.000Z</time>
      </trkpt>
      <trkpt lat="43.78711" lon="7.4005">
        <ele>660</ele>
        <time>2012-05-08T09:53:51.000Z</time>
      </trkpt>
      <trkpt lat="43.78712" lon="7.40043">
        <ele>662</ele>
        <time>2012-05-08T09:53:59.000Z</time>
      </trkpt>
      <trkpt lat="43.78712" lon="7.40035">
        <ele>662</ele>
        <time>2012-05-08T09:54:06.000Z</time>
      </trkpt>
      <trkpt lat="43.78709" lon="7.4003">
        <ele>660</ele>
        <time>2012-05-08T09:54:13.000Z</time>
      </trkpt>
      <trkpt lat="43.78705" lon="7.40026">
        <ele>660</ele>
        <time>2012-05-08T09:54:20.000Z</time>
      </trkpt>
      <trkpt lat="43.78701" lon="7.40021">
        <ele>660</ele>
        <time>2012-05-08T09:54:26.000Z</time>
      </trkpt>
      <trkpt lat="43.78698" lon="7.40016">
        <ele>658</ele>
        <time>2012-05-08T09:54:32.000Z</time>
      </trkpt>
      <trkpt lat="43.78693" lon="7.40014">
        <ele>657</ele>
        <time>2012-05-08T09:54:37.000Z</time>
      </trkpt>
      <trkpt lat="43.78689" lon="7.40013">
        <ele>655</ele>
        <time>2012-05-08T09:54:43.000Z</time>
      </trkpt>
      <trkpt lat="43.78684" lon="7.40015">
        <ele>658</ele>
        <time>2012-05-08T09:54:52.000Z</time>
      </trkpt>
      <trkpt lat="43.7868" lon="7.40017">
        <ele>658</ele>
        <time>2012-05-08T09:54:59.000Z</time>
      </trkpt>
      <trkpt lat="43.78675" lon="7.40019">
        <ele>657</ele>
        <time>2012-05-08T09:55:08.000Z</time>
      </trkpt>
      <trkpt lat="43.7867" lon="7.4002">
        <ele>656</ele>
        <time>2012-05-08T09:55:16.000Z</time>
      </trkpt>
      <trkpt lat="43.78665" lon="7.40022">
        <ele>655</ele>
        <time>2012-05-08T09:55:23.000Z</time>
      </trkpt>
      <trkpt lat="43.78661" lon="7.40022">
        <ele>655</ele>
        <time>2012-05-08T09:55:31.000Z</time>
      </trkpt>
      <trkpt lat="43.78656" lon="7.40024">
        <ele>653</ele>
        <time>2012-05-08T09:55:41.000Z</time>
      </trkpt>
      <trkpt lat="43.78651" lon="7.40021">
        <ele>653</ele>
        <time>2012-05-08T09:55:52.000Z</time>
      </trkpt>
      <trkpt lat="43.78647" lon="7.40019">
        <ele>649</ele>
        <time>2012-05-08T09:56:02.000Z</time>
      </trkpt>
      <trkpt lat="43.78642" lon="7.4002">
        <ele>649</ele>
        <time>2012-05-08T09:56:12.000Z</time>
      </trkpt>
      <trkpt lat="43.78637" lon="7.40016">
        <ele>651</ele>
        <time>2012-05-08T09:56:21.000Z</time>
      </trkpt>
      <trkpt lat="43.78633" lon="7.40014">
        <ele>651</ele>
        <time>2012-05-08T09:56:28.000Z</time>
      </trkpt>
      <trkpt lat="43.78629" lon="7.40012">
        <ele>649</ele>
        <time>2012-05-08T09:56:35.000Z</time>
      </trkpt>
      <trkpt lat="43.78624" lon="7.4001">
        <ele>651</ele>
        <time>2012-05-08T09:56:43.000Z</time>
      </trkpt>
      <trkpt lat="43.78619" lon="7.40008">
        <ele>648</ele>
        <time>2012-05-08T09:56:53.000Z</time>
      </trkpt>
      <trkpt lat="43.78615" lon="7.40004">
        <ele>647</ele>
        <time>2012-05-08T09:57:03.000Z</time>
      </trkpt>
      <trkpt lat="43.7861" lon="7.40003">
        <ele>649</ele>
        <time>2012-05-08T09:57:10.000Z</time>
      </trkpt>
      <trkpt lat="43.78606" lon="7.40001">
        <ele>646</ele>
        <time>2012-05-08T09:57:21.000Z</time>
      </trkpt>
      <trkpt lat="43.78602" lon="7.39997">
        <ele>646</ele>
        <time>2012-05-08T09:57:30.000Z</time>
      </trkpt>
      <trkpt lat="43.78597" lon="7.39994">
        <ele>648</ele>
        <time>2012-05-08T09:57:36.000Z</time>
      </trkpt>
      <trkpt lat="43.78592" lon="7.39993">
        <ele>643</ele>
        <time>2012-05-08T09:57:43.000Z</time>
      </trkpt>
      <trkpt lat="43.78587" lon="7.39993">
        <ele>645</ele>
        <time>2012-05-08T09:57:54.000Z</time>
      </trkpt>
      <trkpt lat="43.78583" lon="7.39989">
        <ele>646</ele>
        <time>2012-05-08T09:58:01.000Z</time>
      </trkpt>
      <trkpt lat="43.78579" lon="7.39987">
        <ele>644</ele>
        <time>2012-05-08T09:58:11.000Z</time>
      </trkpt>
      <trkpt lat="43.78574" lon="7.39988">
        <ele>645</ele>
        <time>2012-05-08T09:58:22.000Z</time>
      </trkpt>
      <trkpt lat="43.78568" lon="7.39987">
        <ele>643</ele>
        <time>2012-05-08T09:58:33.000Z</time>
      </trkpt>
      <trkpt lat="43.78564" lon="7.39989">
        <ele>642</ele>
        <time>2012-05-08T09:58:40.000Z</time>
      </trkpt>
      <trkpt lat="43.78559" lon="7.39989">
        <ele>642</ele>
        <time>2012-05-08T09:58:51.000Z</time>
      </trkpt>
      <trkpt lat="43.78554" lon="7.3999">
        <ele>643</ele>
        <time>2012-05-08T09:58:57.000Z</time>
      </trkpt>
      <trkpt lat="43.78551" lon="7.39986">
        <ele>641</ele>
        <time>2012-05-08T09:59:04.000Z</time>
      </trkpt>
      <trkpt lat="43.78546" lon="7.39988">
        <ele>638</ele>
        <time>2012-05-08T09:59:13.000Z</time>
      </trkpt>
      <trkpt lat="43.78541" lon="7.39988">
        <ele>636</ele>
        <time>2012-05-08T09:59:21.000Z</time>
      </trkpt>
      <trkpt lat="43.78537" lon="7.39985">
        <ele>637</ele>
        <time>2012-05-08T09:59:29.000Z</time>
      </trkpt>
      <trkpt lat="43.78532" lon="7.39984">
        <ele>638</ele>
        <time>2012-05-08T09:59:37.000Z</time>
      </trkpt>
      <trkpt lat="43.78528" lon="7.39986">
        <ele>638</ele>
        <time>2012-05-08T09:59:50.000Z</time>
      </trkpt>
      <trkpt lat="43.78523" lon="7.39986">
        <ele>636</ele>
        <time>2012-05-08T10:00:00.000Z</time>
      </trkpt>
      <trkpt lat="43.78518" lon="7.39985">
        <ele>635</ele>
        <time>2012-05-08T10:00:10.000Z</time>
      </trkpt>
      <trkpt lat="43.78514" lon="7.39986">
        <ele>636</ele>
        <time>2012-05-08T10:00:18.000Z</time>
      </trkpt>
      <trkpt lat="43.7851" lon="7.39981">
        <ele>637</ele>
        <time>2012-05-08T10:02:55.000Z</time>
      </trkpt>
      <trkpt lat="43.78506" lon="7.39981">
        <ele>633</ele>
        <time>2012-05-08T10:03:07.000Z</time>
      </trkpt>
      <trkpt lat="43.78501" lon="7.3998">
        <ele>630</ele>
        <time>2012-05-08T10:03:15.000Z</time>
      </trkpt>
      <trkpt lat="43.78496" lon="7.39981">
        <ele>629</ele>
        <time>2012-05-08T10:03:25.000Z</time>
      </trkpt>
      <trkpt lat="43.78492" lon="7.39976">
        <ele>631</ele>
        <time>2012-05-08T10:03:38.000Z</time>
      </trkpt>
      <trkpt lat="43.78492" lon="7.39969">
        <ele>623</ele>
        <time>2012-05-08T10:04:14.000Z</time>
      </trkpt>
      <trkpt lat="43.78489" lon="7.39964">
        <ele>620</ele>
        <time>2012-05-08T10:04:28.000Z</time>
      </trkpt>
      <trkpt lat="43.78486" lon="7.39959">
        <ele>620</ele>
        <time>2012-05-08T10:04:36.000Z</time>
      </trkpt>
      <trkpt lat="43.78484" lon="7.39952">
        <ele>621</ele>
        <time>2012-05-08T10:04:46.000Z</time>
      </trkpt>
      <trkpt lat="43.78484" lon="7.39946">
        <ele>619</ele>
        <time>2012-05-08T10:05:02.000Z</time>
      </trkpt>
      <trkpt lat="43.78482" lon="7.39939">
        <ele>625</ele>
        <time>2012-05-08T10:05:25.000Z</time>
      </trkpt>
      <trkpt lat="43.78478" lon="7.39943">
        <ele>615</ele>
        <time>2012-05-08T10:06:03.000Z</time>
      </trkpt>
      <trkpt lat="43.78478" lon="7.39943">
        <ele>615</ele>
        <time>2012-05-08T10:06:03.000Z</time>
      </trkpt>
      <trkpt lat="43.78478" lon="7.39943">
        <ele>615</ele>
        <time>2012-05-08T10:06:04.000Z</time>
      </trkpt>
      <trkpt lat="43.78475" lon="7.39949">
        <ele>622</ele>
        <time>2012-05-08T10:06:13.000Z</time>
      </trkpt>
      <trkpt lat="43.78472" lon="7.39954">
        <ele>626</ele>
        <time>2012-05-08T10:06:20.000Z</time>
      </trkpt>
      <trkpt lat="43.78469" lon="7.3996">
        <ele>626</ele>
        <time>2012-05-08T10:06:24.000Z</time>
      </trkpt>
      <trkpt lat="43.78467" lon="7.39965">
        <ele>622</ele>
        <time>2012-05-08T10:06:29.000Z</time>
      </trkpt>
      <trkpt lat="43.78466" lon="7.39971">
        <ele>623</ele>
        <time>2012-05-08T10:06:38.000Z</time>
      </trkpt>
      <trkpt lat="43.78464" lon="7.39977">
        <ele>625</ele>
        <time>2012-05-08T10:06:47.000Z</time>
      </trkpt>
      <trkpt lat="43.78462" lon="7.39984">
        <ele>623</ele>
        <time>2012-05-08T10:06:53.000Z</time>
      </trkpt>
      <trkpt lat="43.78462" lon="7.3999">
        <ele>618</ele>
        <time>2012-05-08T10:07:01.000Z</time>
      </trkpt>
      <trkpt lat="43.78461" lon="7.39996">
        <ele>619</ele>
        <time>2012-05-08T10:07:11.000Z</time>
      </trkpt>
      <trkpt lat="43.78459" lon="7.39991">
        <ele>614</ele>
        <time>2012-05-08T10:07:28.000Z</time>
      </trkpt>
      <trkpt lat="43.78459" lon="7.39983">
        <ele>614</ele>
        <time>2012-05-08T10:07:33.000Z</time>
      </trkpt>
      <trkpt lat="43.78461" lon="7.39976">
        <ele>617</ele>
        <time>2012-05-08T10:07:37.000Z</time>
      </trkpt>
      <trkpt lat="43.7846" lon="7.3997">
        <ele>614</ele>
        <time>2012-05-08T10:07:44.000Z</time>
      </trkpt>
      <trkpt lat="43.78458" lon="7.39964">
        <ele>613</ele>
        <time>2012-05-08T10:07:54.000Z</time>
      </trkpt>
      <trkpt lat="43.78456" lon="7.39958">
        <ele>611</ele>
        <time>2012-05-08T10:08:03.000Z</time>
      </trkpt>
      <trkpt lat="43.78455" lon="7.39952">
        <ele>617</ele>
        <time>2012-05-08T10:08:12.000Z</time>
      </trkpt>
      <trkpt lat="43.78451" lon="7.39947">
        <ele>611</ele>
        <time>2012-05-08T10:08:20.000Z</time>
      </trkpt>
      <trkpt lat="43.78447" lon="7.39945">
        <ele>602</ele>
        <time>2012-05-08T10:08:44.000Z</time>
      </trkpt>
      <trkpt lat="43.78444" lon="7.3995">
        <ele>624</ele>
        <time>2012-05-08T10:22:11.000Z</time>
      </trkpt>
      <trkpt lat="43.78447" lon="7.39955">
        <ele>622</ele>
        <time>2012-05-08T10:22:15.000Z</time>
      </trkpt>
      <trkpt lat="43.78452" lon="7.39953">
        <ele>621</ele>
        <time>2012-05-08T10:22:26.000Z</time>
      </trkpt>
      <trkpt lat="43.78452" lon="7.39953">
        <ele>621</ele>
        <time>2012-05-08T10:22:26.000Z</time>
      </trkpt>
      <trkpt lat="43.78452" lon="7.39953">
        <ele>621</ele>
        <time>2012-05-08T10:22:27.000Z</time>
      </trkpt>
      <trkpt lat="43.78447" lon="7.39953">
        <ele>603</ele>
        <time>2012-05-08T10:23:51.000Z</time>
      </trkpt>
      <trkpt lat="43.78451" lon="7.3995">
        <ele>617</ele>
        <time>2012-05-08T10:31:13.000Z</time>
      </trkpt>
      <trkpt lat="43.78453" lon="7.39943">
        <ele>604</ele>
        <time>2012-05-08T10:36:23.000Z</time>
      </trkpt>
      <trkpt lat="43.7845" lon="7.39949">
        <ele>610</ele>
        <time>2012-05-08T10:36:37.000Z</time>
      </trkpt>
      <trkpt lat="43.7845" lon="7.39955">
        <ele>607</ele>
        <time>2012-05-08T10:39:56.000Z</time>
      </trkpt>
      <trkpt lat="43.78455" lon="7.39956">
        <ele>612</ele>
        <time>2012-05-08T10:41:14.000Z</time>
      </trkpt>
      <trkpt lat="43.78452" lon="7.39951">
        <ele>602</ele>
        <time>2012-05-08T10:43:23.000Z</time>
      </trkpt>
      <trkpt lat="43.78456" lon="7.39953">
        <ele>601</ele>
        <time>2012-05-08T10:44:19.000Z</time>
      </trkpt>
      <trkpt lat="43.7846" lon="7.39957">
        <ele>601</ele>
        <time>2012-05-08T10:44:25.000Z</time>
      </trkpt>
      <trkpt lat="43.78456" lon="7.39953">
        <ele>621</ele>
        <time>2012-05-08T10:47:43.000Z</time>
      </trkpt>
      <trkpt lat="43.78456" lon="7.39953">
        <ele>621</ele>
        <time>2012-05-08T10:47:43.000Z</time>
      </trkpt>
      <trkpt lat="43.78456" lon="7.39953">
        <ele>621</ele>
        <time>2012-05-08T10:47:50.000Z</time>
      </trkpt>
      <trkpt lat="43.7845" lon="7.39952">
        <ele>615</ele>
        <time>2012-05-08T10:47:57.000Z</time>
      </trkpt>
      <trkpt lat="43.78446" lon="7.39949">
        <ele>613</ele>
        <time>2012-05-08T10:48:04.000Z</time>
      </trkpt>
      <trkpt lat="43.78452" lon="7.39951">
        <ele>607</ele>
        <time>2012-05-08T10:56:17.000Z</time>
      </trkpt>
      <trkpt lat="43.78452" lon="7.39951">
        <ele>607</ele>
        <time>2012-05-08T10:56:17.000Z</time>
      </trkpt>
      <trkpt lat="43.78452" lon="7.39951">
        <ele>607</ele>
        <time>2012-05-08T10:56:18.000Z</time>
      </trkpt>
      <trkpt lat="43.78459" lon="7.39948">
        <ele>612</ele>
        <time>2012-05-08T10:56:21.000Z</time>
      </trkpt>
      <trkpt lat="43.78459" lon="7.39948">
        <ele>612</ele>
        <time>2012-05-08T10:56:21.000Z</time>
      </trkpt>
      <trkpt lat="43.78459" lon="7.39948">
        <ele>612</ele>
        <time>2012-05-08T10:57:17.000Z</time>
      </trkpt>
      <trkpt lat="43.78465" lon="7.39946">
        <ele>600</ele>
        <time>2012-05-08T10:58:21.000Z</time>
      </trkpt>
      <trkpt lat="43.78469" lon="7.39946">
        <ele>609</ele>
        <time>2012-05-08T10:58:24.000Z</time>
      </trkpt>
      <trkpt lat="43.78474" lon="7.39944">
        <ele>615</ele>
        <time>2012-05-08T10:58:38.000Z</time>
      </trkpt>
      <trkpt lat="43.7847" lon="7.39951">
        <ele>625</ele>
        <time>2012-05-08T11:03:10.000Z</time>
      </trkpt>
      <trkpt lat="43.7847" lon="7.39951">
        <ele>625</ele>
        <time>2012-05-08T11:03:10.000Z</time>
      </trkpt>
      <trkpt lat="43.7847" lon="7.39951">
        <ele>625</ele>
        <time>2012-05-08T11:03:34.000Z</time>
      </trkpt>
      <trkpt lat="43.78466" lon="7.39955">
        <ele>631</ele>
        <time>2012-05-08T11:03:43.000Z</time>
      </trkpt>
      <trkpt lat="43.78462" lon="7.39958">
        <ele>625</ele>
        <time>2012-05-08T11:03:47.000Z</time>
      </trkpt>
      <trkpt lat="43.78457" lon="7.3996">
        <ele>629</ele>
        <time>2012-05-08T11:03:55.000Z</time>
      </trkpt>
      <trkpt lat="43.78454" lon="7.39954">
        <ele>602</ele>
        <time>2012-05-08T11:04:34.000Z</time>
      </trkpt>
      <trkpt lat="43.7845" lon="7.39951">
        <ele>621</ele>
        <time>2012-05-08T11:07:12.000Z</time>
      </trkpt>
      <trkpt lat="43.78446" lon="7.39954">
        <ele>623</ele>
        <time>2012-05-08T11:07:24.000Z</time>
      </trkpt>
      <trkpt lat="43.78441" lon="7.39957">
        <ele>613</ele>
        <time>2012-05-08T11:07:40.000Z</time>
      </trkpt>
      <trkpt lat="43.78441" lon="7.39957">
        <ele>613</ele>
        <time>2012-05-08T11:07:40.000Z</time>
      </trkpt>
      <trkpt lat="43.78441" lon="7.39957">
        <ele>613</ele>
        <time>2012-05-08T11:07:42.000Z</time>
      </trkpt>
      <trkpt lat="43.78446" lon="7.39954">
        <ele>615</ele>
        <time>2012-05-08T11:10:26.000Z</time>
      </trkpt>
      <trkpt lat="43.78446" lon="7.39954">
        <ele>615</ele>
        <time>2012-05-08T11:10:26.000Z</time>
      </trkpt>
      <trkpt lat="43.78446" lon="7.39954">
        <ele>615</ele>
        <time>2012-05-08T11:10:45.000Z</time>
      </trkpt>
      <trkpt lat="43.7845" lon="7.39957">
        <ele>611</ele>
        <time>2012-05-08T11:10:50.000Z</time>
      </trkpt>
      <trkpt lat="43.78445" lon="7.39959">
        <ele>636</ele>
        <time>2012-05-08T11:13:38.000Z</time>
      </trkpt>
      <trkpt lat="43.78445" lon="7.39952">
        <ele>616</ele>
        <time>2012-05-08T11:15:56.000Z</time>
      </trkpt>
      <trkpt lat="43.78441" lon="7.39954">
        <ele>602</ele>
        <time>2012-05-08T11:17:38.000Z</time>
      </trkpt>
      <trkpt lat="43.78438" lon="7.3996">
        <ele>608</ele>
        <time>2012-05-08T11:21:06.000Z</time>
      </trkpt>
      <trkpt lat="43.78438" lon="7.3996">
        <ele>608</ele>
        <time>2012-05-08T11:21:06.000Z</time>
      </trkpt>
      <trkpt lat="43.78438" lon="7.3996">
        <ele>608</ele>
        <time>2012-05-08T11:21:11.000Z</time>
      </trkpt>
      <trkpt lat="43.78443" lon="7.39958">
        <ele>610</ele>
        <time>2012-05-08T11:23:07.000Z</time>
      </trkpt>
      <trkpt lat="43.78448" lon="7.39958">
        <ele>610</ele>
        <time>2012-05-08T11:23:25.000Z</time>
      </trkpt>
      <trkpt lat="43.78453" lon="7.39956">
        <ele>617</ele>
        <time>2012-05-08T11:24:26.000Z</time>
      </trkpt>
      <trkpt lat="43.78453" lon="7.39956">
        <ele>617</ele>
        <time>2012-05-08T11:24:26.000Z</time>
      </trkpt>
      <trkpt lat="43.78453" lon="7.39956">
        <ele>617</ele>
        <time>2012-05-08T11:24:28.000Z</time>
      </trkpt>
      <trkpt lat="43.78456" lon="7.39952">
        <ele>614</ele>
        <time>2012-05-08T11:25:09.000Z</time>
      </trkpt>
      <trkpt lat="43.78456" lon="7.39952">
        <ele>614</ele>
        <time>2012-05-08T11:25:09.000Z</time>
      </trkpt>
      <trkpt lat="43.78456" lon="7.39952">
        <ele>614</ele>
        <time>2012-05-08T11:25:11.000Z</time>
      </trkpt>
      <trkpt lat="43.78451" lon="7.39954">
        <ele>600</ele>
        <time>2012-05-08T11:26:47.000Z</time>
      </trkpt>
      <trkpt lat="43.78447" lon="7.39952">
        <ele>596</ele>
        <time>2012-05-08T11:27:07.000Z</time>
      </trkpt>
      <trkpt lat="43.78443" lon="7.39947">
        <ele>600</ele>
        <time>2012-05-08T11:34:36.000Z</time>
      </trkpt>
      <trkpt lat="43.78448" lon="7.39948">
        <ele>596</ele>
        <time>2012-05-08T11:35:19.000Z</time>
      </trkpt>
      <trkpt lat="43.78448" lon="7.39948">
        <ele>596</ele>
        <time>2012-05-08T11:35:19.000Z</time>
      </trkpt>
      <trkpt lat="43.78448" lon="7.39948">
        <ele>596</ele>
        <time>2012-05-08T11:35:52.000Z</time>
      </trkpt>
      <trkpt lat="43.78452" lon="7.39952">
        <ele>608</ele>
        <time>2012-05-08T11:36:03.000Z</time>
      </trkpt>
      <trkpt lat="43.78447" lon="7.39951">
        <ele>608</ele>
        <time>2012-05-08T11:39:36.000Z</time>
      </trkpt>
      <trkpt lat="43.78449" lon="7.39956">
        <ele>604</ele>
        <time>2012-05-08T11:40:52.000Z</time>
      </trkpt>
      <trkpt lat="43.78446" lon="7.39952">
        <ele>609</ele>
        <time>2012-05-08T11:45:58.000Z</time>
      </trkpt>
      <trkpt lat="43.78442" lon="7.39946">
        <ele>621</ele>
        <time>2012-05-08T11:46:12.000Z</time>
      </trkpt>
      <trkpt lat="43.78441" lon="7.3994">
        <ele>605</ele>
        <time>2012-05-08T11:46:22.000Z</time>
      </trkpt>
      <trkpt lat="43.78441" lon="7.39933">
        <ele>609</ele>
        <time>2012-05-08T11:46:33.000Z</time>
      </trkpt>
      <trkpt lat="43.78438" lon="7.39928">
        <ele>603</ele>
        <time>2012-05-08T11:46:41.000Z</time>
      </trkpt>
      <trkpt lat="43.78437" lon="7.3992">
        <ele>609</ele>
        <time>2012-05-08T11:46:47.000Z</time>
      </trkpt>
      <trkpt lat="43.78433" lon="7.39924">
        <ele>601</ele>
        <time>2012-05-08T11:46:59.000Z</time>
      </trkpt>
      <trkpt lat="43.78433" lon="7.39931">
        <ele>605</ele>
        <time>2012-05-08T11:47:08.000Z</time>
      </trkpt>
      <trkpt lat="43.78435" lon="7.39937">
        <ele>604</ele>
        <time>2012-05-08T11:47:15.000Z</time>
      </trkpt>
      <trkpt lat="43.78434" lon="7.39944">
        <ele>612</ele>
        <time>2012-05-08T11:47:23.000Z</time>
      </trkpt>
      <trkpt lat="43.78434" lon="7.39952">
        <ele>614</ele>
        <time>2012-05-08T11:47:30.000Z</time>
      </trkpt>
      <trkpt lat="43.78432" lon="7.39958">
        <ele>614</ele>
        <time>2012-05-08T11:47:37.000Z</time>
      </trkpt>
      <trkpt lat="43.78432" lon="7.39965">
        <ele>619</ele>
        <time>2012-05-08T11:47:45.000Z</time>
      </trkpt>
      <trkpt lat="43.7843" lon="7.39971">
        <ele>617</ele>
        <time>2012-05-08T11:47:53.000Z</time>
      </trkpt>
      <trkpt lat="43.78429" lon="7.39964">
        <ele>618</ele>
        <time>2012-05-08T11:48:03.000Z</time>
      </trkpt>
      <trkpt lat="43.78427" lon="7.39957">
        <ele>618</ele>
        <time>2012-05-08T11:48:14.000Z</time>
      </trkpt>
      <trkpt lat="43.78424" lon="7.39952">
        <ele>615</ele>
        <time>2012-05-08T11:48:23.000Z</time>
      </trkpt>
      <trkpt lat="43.78423" lon="7.39945">
        <ele>618</ele>
        <time>2012-05-08T11:48:30.000Z</time>
      </trkpt>
      <trkpt lat="43.78422" lon="7.39938">
        <ele>614</ele>
        <time>2012-05-08T11:48:37.000Z</time>
      </trkpt>
      <trkpt lat="43.7842" lon="7.39932">
        <ele>617</ele>
        <time>2012-05-08T11:48:48.000Z</time>
      </trkpt>
      <trkpt lat="43.78417" lon="7.39927">
        <ele>622</ele>
        <time>2012-05-08T11:48:54.000Z</time>
      </trkpt>
      <trkpt lat="43.78415" lon="7.39921">
        <ele>619</ele>
        <time>2012-05-08T11:49:00.000Z</time>
      </trkpt>
      <trkpt lat="43.78414" lon="7.39915">
        <ele>620</ele>
        <time>2012-05-08T11:49:07.000Z</time>
      </trkpt>
      <trkpt lat="43.78412" lon="7.39908">
        <ele>626</ele>
        <time>2012-05-08T11:49:15.000Z</time>
      </trkpt>
      <trkpt lat="43.7841" lon="7.39901">
        <ele>613</ele>
        <time>2012-05-08T11:49:23.000Z</time>
      </trkpt>
      <trkpt lat="43.7841" lon="7.39894">
        <ele>621</ele>
        <time>2012-05-08T11:49:28.000Z</time>
      </trkpt>
      <trkpt lat="43.78409" lon="7.39887">
        <ele>629</ele>
        <time>2012-05-08T11:49:33.000Z</time>
      </trkpt>
      <trkpt lat="43.78407" lon="7.3988">
        <ele>623</ele>
        <time>2012-05-08T11:49:39.000Z</time>
      </trkpt>
      <trkpt lat="43.78406" lon="7.39874">
        <ele>623</ele>
        <time>2012-05-08T11:49:47.000Z</time>
      </trkpt>
      <trkpt lat="43.78405" lon="7.39868">
        <ele>622</ele>
        <time>2012-05-08T11:49:54.000Z</time>
      </trkpt>
      <trkpt lat="43.78404" lon="7.39862">
        <ele>627</ele>
        <time>2012-05-08T11:50:00.000Z</time>
      </trkpt>
      <trkpt lat="43.78402" lon="7.39856">
        <ele>629</ele>
        <time>2012-05-08T11:50:06.000Z</time>
      </trkpt>
      <trkpt lat="43.78398" lon="7.39851">
        <ele>629</ele>
        <time>2012-05-08T11:50:14.000Z</time>
      </trkpt>
      <trkpt lat="43.78394" lon="7.39849">
        <ele>623</ele>
        <time>2012-05-08T11:50:20.000Z</time>
      </trkpt>
      <trkpt lat="43.78389" lon="7.39848">
        <ele>631</ele>
        <time>2012-05-08T11:50:28.000Z</time>
      </trkpt>
      <trkpt lat="43.78384" lon="7.39847">
        <ele>627</ele>
        <time>2012-05-08T11:50:34.000Z</time>
      </trkpt>
      <trkpt lat="43.7838" lon="7.39844">
        <ele>633</ele>
        <time>2012-05-08T11:50:40.000Z</time>
      </trkpt>
      <trkpt lat="43.78375" lon="7.39841">
        <ele>634</ele>
        <time>2012-05-08T11:50:47.000Z</time>
      </trkpt>
      <trkpt lat="43.7837" lon="7.3984">
        <ele>638</ele>
        <time>2012-05-08T11:50:54.000Z</time>
      </trkpt>
      <trkpt lat="43.78365" lon="7.39841">
        <ele>636</ele>
        <time>2012-05-08T11:51:02.000Z</time>
      </trkpt>
      <trkpt lat="43.7836" lon="7.39842">
        <ele>630</ele>
        <time>2012-05-08T11:51:08.000Z</time>
      </trkpt>
      <trkpt lat="43.78355" lon="7.39841">
        <ele>633</ele>
        <time>2012-05-08T11:51:17.000Z</time>
      </trkpt>
      <trkpt lat="43.78351" lon="7.39839">
        <ele>634</ele>
        <time>2012-05-08T11:51:23.000Z</time>
      </trkpt>
      <trkpt lat="43.78346" lon="7.39841">
        <ele>641</ele>
        <time>2012-05-08T11:51:36.000Z</time>
      </trkpt>
      <trkpt lat="43.78341" lon="7.39839">
        <ele>637</ele>
        <time>2012-05-08T11:51:46.000Z</time>
      </trkpt>
      <trkpt lat="43.78336" lon="7.39837">
        <ele>641</ele>
        <time>2012-05-08T11:51:53.000Z</time>
      </trkpt>
      <trkpt lat="43.78332" lon="7.39836">
        <ele>641</ele>
        <time>2012-05-08T11:52:02.000Z</time>
      </trkpt>
      <trkpt lat="43.78327" lon="7.39835">
        <ele>640</ele>
        <time>2012-05-08T11:52:08.000Z</time>
      </trkpt>
      <trkpt lat="43.78322" lon="7.39834">
        <ele>639</ele>
        <time>2012-05-08T11:52:16.000Z</time>
      </trkpt>
      <trkpt lat="43.78317" lon="7.39831">
        <ele>645</ele>
        <time>2012-05-08T11:52:31.000Z</time>
      </trkpt>
      <trkpt lat="43.78314" lon="7.39827">
        <ele>649</ele>
        <time>2012-05-08T11:52:41.000Z</time>
      </trkpt>
      <trkpt lat="43.78309" lon="7.39824">
        <ele>646</ele>
        <time>2012-05-08T11:52:49.000Z</time>
      </trkpt>
      <trkpt lat="43.78305" lon="7.39822">
        <ele>645</ele>
        <time>2012-05-08T11:52:56.000Z</time>
      </trkpt>
      <trkpt lat="43.783" lon="7.3982">
        <ele>647</ele>
        <time>2012-05-08T11:53:05.000Z</time>
      </trkpt>
      <trkpt lat="43.78296" lon="7.39817">
        <ele>648</ele>
        <time>2012-05-08T11:53:15.000Z</time>
      </trkpt>
      <trkpt lat="43.78292" lon="7.39811">
        <ele>648</ele>
        <time>2012-05-08T11:53:21.000Z</time>
      </trkpt>
      <trkpt lat="43.78289" lon="7.39806">
        <ele>652</ele>
        <time>2012-05-08T11:53:30.000Z</time>
      </trkpt>
      <trkpt lat="43.78286" lon="7.39801">
        <ele>649</ele>
        <time>2012-05-08T11:53:44.000Z</time>
      </trkpt>
      <trkpt lat="43.78282" lon="7.39797">
        <ele>656</ele>
        <time>2012-05-08T11:53:50.000Z</time>
      </trkpt>
      <trkpt lat="43.78278" lon="7.39793">
        <ele>657</ele>
        <time>2012-05-08T11:53:58.000Z</time>
      </trkpt>
      <trkpt lat="43.78273" lon="7.39791">
        <ele>657</ele>
        <time>2012-05-08T11:54:06.000Z</time>
      </trkpt>
      <trkpt lat="43.78269" lon="7.39787">
        <ele>651</ele>
        <time>2012-05-08T11:54:13.000Z</time>
      </trkpt>
      <trkpt lat="43.78264" lon="7.39786">
        <ele>650</ele>
        <time>2012-05-08T11:54:19.000Z</time>
      </trkpt>
      <trkpt lat="43.78259" lon="7.39783">
        <ele>655</ele>
        <time>2012-05-08T11:54:26.000Z</time>
      </trkpt>
      <trkpt lat="43.78254" lon="7.3978">
        <ele>658</ele>
        <time>2012-05-08T11:54:32.000Z</time>
      </trkpt>
      <trkpt lat="43.7825" lon="7.39777">
        <ele>656</ele>
        <time>2012-05-08T11:54:38.000Z</time>
      </trkpt>
      <trkpt lat="43.78244" lon="7.39776">
        <ele>654</ele>
        <time>2012-05-08T11:54:45.000Z</time>
      </trkpt>
      <trkpt lat="43.78239" lon="7.39776">
        <ele>657</ele>
        <time>2012-05-08T11:54:52.000Z</time>
      </trkpt>
      <trkpt lat="43.78234" lon="7.39776">
        <ele>660</ele>
        <time>2012-05-08T11:54:59.000Z</time>
      </trkpt>
      <trkpt lat="43.7823" lon="7.39777">
        <ele>656</ele>
        <time>2012-05-08T11:55:06.000Z</time>
      </trkpt>
      <trkpt lat="43.78225" lon="7.39779">
        <ele>661</ele>
        <time>2012-05-08T11:55:26.000Z</time>
      </trkpt>
      <trkpt lat="43.78219" lon="7.39778">
        <ele>658</ele>
        <time>2012-05-08T11:55:31.000Z</time>
      </trkpt>
      <trkpt lat="43.78214" lon="7.39777">
        <ele>661</ele>
        <time>2012-05-08T11:55:36.000Z</time>
      </trkpt>
      <trkpt lat="43.78209" lon="7.39778">
        <ele>659</ele>
        <time>2012-05-08T11:55:41.000Z</time>
      </trkpt>
      <trkpt lat="43.78203" lon="7.39777">
        <ele>657</ele>
        <time>2012-05-08T11:55:47.000Z</time>
      </trkpt>
      <trkpt lat="43.78199" lon="7.39776">
        <ele>658</ele>
        <time>2012-05-08T11:55:51.000Z</time>
      </trkpt>
      <trkpt lat="43.78194" lon="7.39775">
        <ele>661</ele>
        <time>2012-05-08T11:55:55.000Z</time>
      </trkpt>
      <trkpt lat="43.78189" lon="7.39772">
        <ele>659</ele>
        <time>2012-05-08T11:56:00.000Z</time>
      </trkpt>
      <trkpt lat="43.78184" lon="7.39771">
        <ele>659</ele>
        <time>2012-05-08T11:56:05.000Z</time>
      </trkpt>
      <trkpt lat="43.78179" lon="7.39769">
        <ele>657</ele>
        <time>2012-05-08T11:56:10.000Z</time>
      </trkpt>
      <trkpt lat="43.78174" lon="7.39769">
        <ele>658</ele>
        <time>2012-05-08T11:56:14.000Z</time>
      </trkpt>
      <trkpt lat="43.78179" lon="7.39771">
        <ele>653</ele>
        <time>2012-05-08T11:56:49.000Z</time>
      </trkpt>
      <trkpt lat="43.78176" lon="7.39766">
        <ele>662</ele>
        <time>2012-05-08T11:57:34.000Z</time>
      </trkpt>
      <trkpt lat="43.78171" lon="7.39768">
        <ele>658</ele>
        <time>2012-05-08T11:59:12.000Z</time>
      </trkpt>
      <trkpt lat="43.78166" lon="7.39766">
        <ele>660</ele>
        <time>2012-05-08T11:59:16.000Z</time>
      </trkpt>
      <trkpt lat="43.78161" lon="7.39765">
        <ele>664</ele>
        <time>2012-05-08T11:59:21.000Z</time>
      </trkpt>
      <trkpt lat="43.78156" lon="7.39763">
        <ele>658</ele>
        <time>2012-05-08T11:59:29.000Z</time>
      </trkpt>
      <trkpt lat="43.78151" lon="7.39759">
        <ele>660</ele>
        <time>2012-05-08T11:59:34.000Z</time>
      </trkpt>
      <trkpt lat="43.78146" lon="7.39759">
        <ele>661</ele>
        <time>2012-05-08T11:59:39.000Z</time>
      </trkpt>
      <trkpt lat="43.78142" lon="7.3976">
        <ele>662</ele>
        <time>2012-05-08T11:59:43.000Z</time>
      </trkpt>
      <trkpt lat="43.78137" lon="7.3976">
        <ele>659</ele>
        <time>2012-05-08T11:59:47.000Z</time>
      </trkpt>
      <trkpt lat="43.78132" lon="7.39759">
        <ele>657</ele>
        <time>2012-05-08T11:59:52.000Z</time>
      </trkpt>
      <trkpt lat="43.78126" lon="7.39759">
        <ele>656</ele>
        <time>2012-05-08T11:59:57.000Z</time>
      </trkpt>
      <trkpt lat="43.78122" lon="7.3976">
        <ele>656</ele>
        <time>2012-05-08T12:00:01.000Z</time>
      </trkpt>
      <trkpt lat="43.78116" lon="7.3976">
        <ele>657</ele>
        <time>2012-05-08T12:00:05.000Z</time>
      </trkpt>
      <trkpt lat="43.78112" lon="7.39763">
        <ele>657</ele>
        <time>2012-05-08T12:00:09.000Z</time>
      </trkpt>
      <trkpt lat="43.78108" lon="7.39766">
        <ele>656</ele>
        <time>2012-05-08T12:00:13.000Z</time>
      </trkpt>
      <trkpt lat="43.78104" lon="7.3977">
        <ele>658</ele>
        <time>2012-05-08T12:00:17.000Z</time>
      </trkpt>
      <trkpt lat="43.78098" lon="7.39773">
        <ele>654</ele>
        <time>2012-05-08T12:00:22.000Z</time>
      </trkpt>
      <trkpt lat="43.78094" lon="7.39776">
        <ele>657</ele>
        <time>2012-05-08T12:00:27.000Z</time>
      </trkpt>
      <trkpt lat="43.78088" lon="7.39779">
        <ele>655</ele>
        <time>2012-05-08T12:00:32.000Z</time>
      </trkpt>
      <trkpt lat="43.78084" lon="7.39781">
        <ele>656</ele>
        <time>2012-05-08T12:00:36.000Z</time>
      </trkpt>
      <trkpt lat="43.78078" lon="7.39784">
        <ele>655</ele>
        <time>2012-05-08T12:00:40.000Z</time>
      </trkpt>
      <trkpt lat="43.78074" lon="7.39786">
        <ele>654</ele>
        <time>2012-05-08T12:00:44.000Z</time>
      </trkpt>
      <trkpt lat="43.78068" lon="7.39787">
        <ele>652</ele>
        <time>2012-05-08T12:00:49.000Z</time>
      </trkpt>
      <trkpt lat="43.78063" lon="7.39789">
        <ele>655</ele>
        <time>2012-05-08T12:00:54.000Z</time>
      </trkpt>
      <trkpt lat="43.78058" lon="7.3979">
        <ele>658</ele>
        <time>2012-05-08T12:00:58.000Z</time>
      </trkpt>
      <trkpt lat="43.78053" lon="7.39793">
        <ele>655</ele>
        <time>2012-05-08T12:01:02.000Z</time>
      </trkpt>
      <trkpt lat="43.78048" lon="7.39795">
        <ele>656</ele>
        <time>2012-05-08T12:01:06.000Z</time>
      </trkpt>
      <trkpt lat="43.78044" lon="7.39797">
        <ele>655</ele>
        <time>2012-05-08T12:01:10.000Z</time>
      </trkpt>
      <trkpt lat="43.78039" lon="7.39797">
        <ele>658</ele>
        <time>2012-05-08T12:01:14.000Z</time>
      </trkpt>
      <trkpt lat="43.78034" lon="7.39797">
        <ele>655</ele>
        <time>2012-05-08T12:01:18.000Z</time>
      </trkpt>
      <trkpt lat="43.78028" lon="7.39796">
        <ele>652</ele>
        <time>2012-05-08T12:01:26.000Z</time>
      </trkpt>
      <trkpt lat="43.78024" lon="7.39794">
        <ele>651</ele>
        <time>2012-05-08T12:01:30.000Z</time>
      </trkpt>
      <trkpt lat="43.78018" lon="7.39793">
        <ele>650</ele>
        <time>2012-05-08T12:01:35.000Z</time>
      </trkpt>
      <trkpt lat="43.78014" lon="7.39789">
        <ele>649</ele>
        <time>2012-05-08T12:01:40.000Z</time>
      </trkpt>
      <trkpt lat="43.78009" lon="7.39787">
        <ele>647</ele>
        <time>2012-05-08T12:01:45.000Z</time>
      </trkpt>
      <trkpt lat="43.78005" lon="7.39785">
        <ele>641</ele>
        <time>2012-05-08T12:01:50.000Z</time>
      </trkpt>
      <trkpt lat="43.78" lon="7.39783">
        <ele>648</ele>
        <time>2012-05-08T12:01:54.000Z</time>
      </trkpt>
      <trkpt lat="43.77995" lon="7.39781">
        <ele>650</ele>
        <time>2012-05-08T12:01:58.000Z</time>
      </trkpt>
      <trkpt lat="43.7799" lon="7.39778">
        <ele>651</ele>
        <time>2012-05-08T12:02:02.000Z</time>
      </trkpt>
      <trkpt lat="43.77984" lon="7.39777">
        <ele>656</ele>
        <time>2012-05-08T12:02:07.000Z</time>
      </trkpt>
      <trkpt lat="43.7798" lon="7.39776">
        <ele>653</ele>
        <time>2012-05-08T12:02:11.000Z</time>
      </trkpt>
      <trkpt lat="43.77974" lon="7.39773">
        <ele>649</ele>
        <time>2012-05-08T12:02:16.000Z</time>
      </trkpt>
      <trkpt lat="43.7797" lon="7.39776">
        <ele>650</ele>
        <time>2012-05-08T12:03:08.000Z</time>
      </trkpt>
      <trkpt lat="43.77967" lon="7.39772">
        <ele>651</ele>
        <time>2012-05-08T12:03:12.000Z</time>
      </trkpt>
      <trkpt lat="43.77963" lon="7.39768">
        <ele>649</ele>
        <time>2012-05-08T12:03:16.000Z</time>
      </trkpt>
      <trkpt lat="43.77959" lon="7.39764">
        <ele>655</ele>
        <time>2012-05-08T12:03:20.000Z</time>
      </trkpt>
      <trkpt lat="43.77955" lon="7.3976">
        <ele>649</ele>
        <time>2012-05-08T12:03:25.000Z</time>
      </trkpt>
      <trkpt lat="43.77951" lon="7.39754">
        <ele>649</ele>
        <time>2012-05-08T12:03:29.000Z</time>
      </trkpt>
      <trkpt lat="43.77947" lon="7.3975">
        <ele>649</ele>
        <time>2012-05-08T12:03:33.000Z</time>
      </trkpt>
      <trkpt lat="43.77943" lon="7.39746">
        <ele>651</ele>
        <time>2012-05-08T12:03:37.000Z</time>
      </trkpt>
      <trkpt lat="43.77939" lon="7.39741">
        <ele>654</ele>
        <time>2012-05-08T12:03:42.000Z</time>
      </trkpt>
      <trkpt lat="43.77936" lon="7.39735">
        <ele>656</ele>
        <time>2012-05-08T12:03:47.000Z</time>
      </trkpt>
      <trkpt lat="43.77931" lon="7.39731">
        <ele>654</ele>
        <time>2012-05-08T12:03:51.000Z</time>
      </trkpt>
      <trkpt lat="43.77928" lon="7.39726">
        <ele>657</ele>
        <time>2012-05-08T12:03:55.000Z</time>
      </trkpt>
      <trkpt lat="43.77924" lon="7.39721">
        <ele>657</ele>
        <time>2012-05-08T12:04:00.000Z</time>
      </trkpt>
      <trkpt lat="43.77919" lon="7.39718">
        <ele>656</ele>
        <time>2012-05-08T12:04:04.000Z</time>
      </trkpt>
      <trkpt lat="43.77914" lon="7.39716">
        <ele>657</ele>
        <time>2012-05-08T12:04:08.000Z</time>
      </trkpt>
      <trkpt lat="43.7791" lon="7.39714">
        <ele>651</ele>
        <time>2012-05-08T12:04:12.000Z</time>
      </trkpt>
      <trkpt lat="43.77906" lon="7.3971">
        <ele>650</ele>
        <time>2012-05-08T12:04:16.000Z</time>
      </trkpt>
      <trkpt lat="43.77902" lon="7.39705">
        <ele>652</ele>
        <time>2012-05-08T12:04:21.000Z</time>
      </trkpt>
      <trkpt lat="43.77897" lon="7.39701">
        <ele>652</ele>
        <time>2012-05-08T12:04:26.000Z</time>
      </trkpt>
      <trkpt lat="43.77893" lon="7.39697">
        <ele>654</ele>
        <time>2012-05-08T12:04:31.000Z</time>
      </trkpt>
      <trkpt lat="43.77889" lon="7.39692">
        <ele>652</ele>
        <time>2012-05-08T12:04:35.000Z</time>
      </trkpt>
      <trkpt lat="43.77886" lon="7.39688">
        <ele>653</ele>
        <time>2012-05-08T12:04:39.000Z</time>
      </trkpt>
      <trkpt lat="43.77881" lon="7.39686">
        <ele>652</ele>
        <time>2012-05-08T12:04:43.000Z</time>
      </trkpt>
      <trkpt lat="43.77876" lon="7.39685">
        <ele>651</ele>
        <time>2012-05-08T12:04:47.000Z</time>
      </trkpt>
      <trkpt lat="43.77871" lon="7.39684">
        <ele>652</ele>
        <time>2012-05-08T12:04:51.000Z</time>
      </trkpt>
      <trkpt lat="43.77867" lon="7.39684">
        <ele>654</ele>
        <time>2012-05-08T12:04:54.000Z</time>
      </trkpt>
      <trkpt lat="43.77862" lon="7.39685">
        <ele>651</ele>
        <time>2012-05-08T12:04:58.000Z</time>
      </trkpt>
      <trkpt lat="43.77857" lon="7.39684">
        <ele>651</ele>
        <time>2012-05-08T12:05:03.000Z</time>
      </trkpt>
      <trkpt lat="43.77852" lon="7.39683">
        <ele>647</ele>
        <time>2012-05-08T12:05:08.000Z</time>
      </trkpt>
      <trkpt lat="43.77847" lon="7.39684">
        <ele>651</ele>
        <time>2012-05-08T12:05:13.000Z</time>
      </trkpt>
      <trkpt lat="43.77842" lon="7.39683">
        <ele>649</ele>
        <time>2012-05-08T12:05:17.000Z</time>
      </trkpt>
      <trkpt lat="43.77837" lon="7.39681">
        <ele>647</ele>
        <time>2012-05-08T12:05:21.000Z</time>
      </trkpt>
      <trkpt lat="43.77832" lon="7.39679">
        <ele>648</ele>
        <time>2012-05-08T12:05:25.000Z</time>
      </trkpt>
      <trkpt lat="43.77827" lon="7.39678">
        <ele>649</ele>
        <time>2012-05-08T12:05:29.000Z</time>
      </trkpt>
      <trkpt lat="43.77821" lon="7.39677">
        <ele>649</ele>
        <time>2012-05-08T12:05:34.000Z</time>
      </trkpt>
      <trkpt lat="43.77816" lon="7.39677">
        <ele>653</ele>
        <time>2012-05-08T12:05:38.000Z</time>
      </trkpt>
      <trkpt lat="43.77812" lon="7.39677">
        <ele>652</ele>
        <time>2012-05-08T12:05:42.000Z</time>
      </trkpt>
      <trkpt lat="43.77806" lon="7.39677">
        <ele>652</ele>
        <time>2012-05-08T12:05:47.000Z</time>
      </trkpt>
      <trkpt lat="43.77802" lon="7.39676">
        <ele>654</ele>
        <time>2012-05-08T12:05:51.000Z</time>
      </trkpt>
      <trkpt lat="43.77797" lon="7.39678">
        <ele>650</ele>
        <time>2012-05-08T12:05:56.000Z</time>
      </trkpt>
      <trkpt lat="43.77792" lon="7.39679">
        <ele>646</ele>
        <time>2012-05-08T12:06:00.000Z</time>
      </trkpt>
      <trkpt lat="43.77788" lon="7.39682">
        <ele>645</ele>
        <time>2012-05-08T12:06:04.000Z</time>
      </trkpt>
      <trkpt lat="43.77783" lon="7.39682">
        <ele>641</ele>
        <time>2012-05-08T12:06:09.000Z</time>
      </trkpt>
      <trkpt lat="43.77778" lon="7.39681">
        <ele>639</ele>
        <time>2012-05-08T12:06:14.000Z</time>
      </trkpt>
      <trkpt lat="43.77774" lon="7.3968">
        <ele>646</ele>
        <time>2012-05-08T12:06:20.000Z</time>
      </trkpt>
      <trkpt lat="43.77768" lon="7.3968">
        <ele>648</ele>
        <time>2012-05-08T12:06:25.000Z</time>
      </trkpt>
      <trkpt lat="43.77763" lon="7.39678">
        <ele>648</ele>
        <time>2012-05-08T12:06:29.000Z</time>
      </trkpt>
      <trkpt lat="43.77758" lon="7.39676">
        <ele>646</ele>
        <time>2012-05-08T12:06:33.000Z</time>
      </trkpt>
      <trkpt lat="43.77753" lon="7.39675">
        <ele>647</ele>
        <time>2012-05-08T12:06:38.000Z</time>
      </trkpt>
      <trkpt lat="43.77748" lon="7.39673">
        <ele>643</ele>
        <time>2012-05-08T12:06:45.000Z</time>
      </trkpt>
      <trkpt lat="43.77743" lon="7.39671">
        <ele>647</ele>
        <time>2012-05-08T12:06:50.000Z</time>
      </trkpt>
      <trkpt lat="43.77738" lon="7.3967">
        <ele>651</ele>
        <time>2012-05-08T12:06:53.000Z</time>
      </trkpt>
      <trkpt lat="43.77733" lon="7.39669">
        <ele>653</ele>
        <time>2012-05-08T12:06:56.000Z</time>
      </trkpt>
      <trkpt lat="43.77728" lon="7.39669">
        <ele>653</ele>
        <time>2012-05-08T12:06:59.000Z</time>
      </trkpt>
      <trkpt lat="43.77723" lon="7.39671">
        <ele>651</ele>
        <time>2012-05-08T12:07:03.000Z</time>
      </trkpt>
      <trkpt lat="43.77717" lon="7.39672">
        <ele>648</ele>
        <time>2012-05-08T12:07:07.000Z</time>
      </trkpt>
      <trkpt lat="43.77712" lon="7.39675">
        <ele>646</ele>
        <time>2012-05-08T12:07:12.000Z</time>
      </trkpt>
      <trkpt lat="43.77708" lon="7.39677">
        <ele>653</ele>
        <time>2012-05-08T12:07:16.000Z</time>
      </trkpt>
      <trkpt lat="43.77703" lon="7.39679">
        <ele>654</ele>
        <time>2012-05-08T12:07:20.000Z</time>
      </trkpt>
      <trkpt lat="43.77698" lon="7.39681">
        <ele>656</ele>
        <time>2012-05-08T12:07:24.000Z</time>
      </trkpt>
      <trkpt lat="43.77693" lon="7.39681">
        <ele>651</ele>
        <time>2012-05-08T12:07:28.000Z</time>
      </trkpt>
      <trkpt lat="43.77688" lon="7.39679">
        <ele>650</ele>
        <time>2012-05-08T12:07:32.000Z</time>
      </trkpt>
      <trkpt lat="43.77682" lon="7.39676">
        <ele>647</ele>
        <time>2012-05-08T12:07:36.000Z</time>
      </trkpt>
      <trkpt lat="43.77678" lon="7.39672">
        <ele>644</ele>
        <time>2012-05-08T12:07:40.000Z</time>
      </trkpt>
      <trkpt lat="43.77673" lon="7.39668">
        <ele>648</ele>
        <time>2012-05-08T12:07:45.000Z</time>
      </trkpt>
      <trkpt lat="43.77669" lon="7.39668">
        <ele>648</ele>
        <time>2012-05-08T12:07:50.000Z</time>
      </trkpt>
      <trkpt lat="43.77664" lon="7.39667">
        <ele>649</ele>
        <time>2012-05-08T12:07:54.000Z</time>
      </trkpt>
      <trkpt lat="43.77659" lon="7.39667">
        <ele>643</ele>
        <time>2012-05-08T12:07:59.000Z</time>
      </trkpt>
      <trkpt lat="43.77654" lon="7.39668">
        <ele>639</ele>
        <time>2012-05-08T12:08:04.000Z</time>
      </trkpt>
      <trkpt lat="43.77649" lon="7.39666">
        <ele>639</ele>
        <time>2012-05-08T12:08:08.000Z</time>
      </trkpt>
      <trkpt lat="43.77645" lon="7.39665">
        <ele>639</ele>
        <time>2012-05-08T12:08:12.000Z</time>
      </trkpt>
      <trkpt lat="43.7764" lon="7.39664">
        <ele>641</ele>
        <time>2012-05-08T12:08:16.000Z</time>
      </trkpt>
      <trkpt lat="43.77635" lon="7.39663">
        <ele>643</ele>
        <time>2012-05-08T12:08:20.000Z</time>
      </trkpt>
      <trkpt lat="43.7763" lon="7.39662">
        <ele>640</ele>
        <time>2012-05-08T12:08:25.000Z</time>
      </trkpt>
      <trkpt lat="43.77625" lon="7.39661">
        <ele>640</ele>
        <time>2012-05-08T12:08:29.000Z</time>
      </trkpt>
      <trkpt lat="43.7762" lon="7.39658">
        <ele>639</ele>
        <time>2012-05-08T12:08:33.000Z</time>
      </trkpt>
      <trkpt lat="43.77616" lon="7.39656">
        <ele>639</ele>
        <time>2012-05-08T12:08:36.000Z</time>
      </trkpt>
      <trkpt lat="43.77612" lon="7.39654">
        <ele>638</ele>
        <time>2012-05-08T12:08:39.000Z</time>
      </trkpt>
      <trkpt lat="43.77607" lon="7.39651">
        <ele>640</ele>
        <time>2012-05-08T12:08:43.000Z</time>
      </trkpt>
      <trkpt lat="43.77602" lon="7.39649">
        <ele>640</ele>
        <time>2012-05-08T12:08:47.000Z</time>
      </trkpt>
      <trkpt lat="43.77597" lon="7.39649">
        <ele>638</ele>
        <time>2012-05-08T12:08:53.000Z</time>
      </trkpt>
      <trkpt lat="43.77592" lon="7.39649">
        <ele>642</ele>
        <time>2012-05-08T12:08:58.000Z</time>
      </trkpt>
      <trkpt lat="43.77587" lon="7.39648">
        <ele>639</ele>
        <time>2012-05-08T12:09:02.000Z</time>
      </trkpt>
      <trkpt lat="43.77582" lon="7.39647">
        <ele>641</ele>
        <time>2012-05-08T12:09:06.000Z</time>
      </trkpt>
      <trkpt lat="43.77577" lon="7.39644">
        <ele>640</ele>
        <time>2012-05-08T12:09:11.000Z</time>
      </trkpt>
      <trkpt lat="43.77572" lon="7.39643">
        <ele>641</ele>
        <time>2012-05-08T12:09:14.000Z</time>
      </trkpt>
      <trkpt lat="43.77567" lon="7.39642">
        <ele>641</ele>
        <time>2012-05-08T12:09:19.000Z</time>
      </trkpt>
      <trkpt lat="43.77562" lon="7.39641">
        <ele>638</ele>
        <time>2012-05-08T12:09:23.000Z</time>
      </trkpt>
      <trkpt lat="43.77556" lon="7.3964">
        <ele>634</ele>
        <time>2012-05-08T12:09:28.000Z</time>
      </trkpt>
      <trkpt lat="43.77552" lon="7.39637">
        <ele>637</ele>
        <time>2012-05-08T12:09:32.000Z</time>
      </trkpt>
      <trkpt lat="43.77547" lon="7.39633">
        <ele>636</ele>
        <time>2012-05-08T12:09:36.000Z</time>
      </trkpt>
      <trkpt lat="43.77542" lon="7.3963">
        <ele>638</ele>
        <time>2012-05-08T12:09:40.000Z</time>
      </trkpt>
      <trkpt lat="43.77538" lon="7.39626">
        <ele>639</ele>
        <time>2012-05-08T12:09:45.000Z</time>
      </trkpt>
      <trkpt lat="43.77532" lon="7.39624">
        <ele>642</ele>
        <time>2012-05-08T12:09:49.000Z</time>
      </trkpt>
      <trkpt lat="43.77527" lon="7.39624">
        <ele>638</ele>
        <time>2012-05-08T12:09:53.000Z</time>
      </trkpt>
      <trkpt lat="43.77522" lon="7.39626">
        <ele>640</ele>
        <time>2012-05-08T12:09:57.000Z</time>
      </trkpt>
      <trkpt lat="43.77517" lon="7.39626">
        <ele>642</ele>
        <time>2012-05-08T12:10:01.000Z</time>
      </trkpt>
      <trkpt lat="43.77512" lon="7.39627">
        <ele>641</ele>
        <time>2012-05-08T12:10:05.000Z</time>
      </trkpt>
      <trkpt lat="43.77506" lon="7.3963">
        <ele>641</ele>
        <time>2012-05-08T12:10:10.000Z</time>
      </trkpt>
      <trkpt lat="43.77502" lon="7.39631">
        <ele>636</ele>
        <time>2012-05-08T12:10:14.000Z</time>
      </trkpt>
      <trkpt lat="43.77497" lon="7.39633">
        <ele>633</ele>
        <time>2012-05-08T12:10:19.000Z</time>
      </trkpt>
      <trkpt lat="43.77492" lon="7.39634">
        <ele>628</ele>
        <time>2012-05-08T12:10:23.000Z</time>
      </trkpt>
      <trkpt lat="43.77487" lon="7.39635">
        <ele>629</ele>
        <time>2012-05-08T12:10:27.000Z</time>
      </trkpt>
      <trkpt lat="43.77482" lon="7.39636">
        <ele>632</ele>
        <time>2012-05-08T12:10:31.000Z</time>
      </trkpt>
      <trkpt lat="43.77477" lon="7.39635">
        <ele>632</ele>
        <time>2012-05-08T12:10:36.000Z</time>
      </trkpt>
      <trkpt lat="43.77472" lon="7.39636">
        <ele>637</ele>
        <time>2012-05-08T12:10:40.000Z</time>
      </trkpt>
      <trkpt lat="43.77467" lon="7.39637">
        <ele>637</ele>
        <time>2012-05-08T12:10:44.000Z</time>
      </trkpt>
      <trkpt lat="43.77462" lon="7.39638">
        <ele>632</ele>
        <time>2012-05-08T12:10:48.000Z</time>
      </trkpt>
      <trkpt lat="43.77457" lon="7.3964">
        <ele>631</ele>
        <time>2012-05-08T12:10:53.000Z</time>
      </trkpt>
      <trkpt lat="43.77452" lon="7.39643">
        <ele>634</ele>
        <time>2012-05-08T12:10:57.000Z</time>
      </trkpt>
      <trkpt lat="43.77447" lon="7.39646">
        <ele>632</ele>
        <time>2012-05-08T12:11:01.000Z</time>
      </trkpt>
      <trkpt lat="43.77442" lon="7.39649">
        <ele>638</ele>
        <time>2012-05-08T12:11:06.000Z</time>
      </trkpt>
      <trkpt lat="43.77438" lon="7.39652">
        <ele>633</ele>
        <time>2012-05-08T12:11:11.000Z</time>
      </trkpt>
      <trkpt lat="43.77434" lon="7.39655">
        <ele>634</ele>
        <time>2012-05-08T12:11:16.000Z</time>
      </trkpt>
      <trkpt lat="43.7743" lon="7.39657">
        <ele>635</ele>
        <time>2012-05-08T12:11:20.000Z</time>
      </trkpt>
      <trkpt lat="43.77425" lon="7.39661">
        <ele>634</ele>
        <time>2012-05-08T12:11:24.000Z</time>
      </trkpt>
      <trkpt lat="43.7742" lon="7.39664">
        <ele>637</ele>
        <time>2012-05-08T12:11:28.000Z</time>
      </trkpt>
      <trkpt lat="43.77415" lon="7.39665">
        <ele>637</ele>
        <time>2012-05-08T12:11:33.000Z</time>
      </trkpt>
      <trkpt lat="43.7741" lon="7.39665">
        <ele>635</ele>
        <time>2012-05-08T12:11:37.000Z</time>
      </trkpt>
      <trkpt lat="43.77405" lon="7.39663">
        <ele>634</ele>
        <time>2012-05-08T12:11:42.000Z</time>
      </trkpt>
      <trkpt lat="43.774" lon="7.39662">
        <ele>626</ele>
        <time>2012-05-08T12:11:57.000Z</time>
      </trkpt>
      <trkpt lat="43.77396" lon="7.3966">
        <ele>626</ele>
        <time>2012-05-08T12:12:00.000Z</time>
      </trkpt>
      <trkpt lat="43.77391" lon="7.39657">
        <ele>633</ele>
        <time>2012-05-08T12:12:03.000Z</time>
      </trkpt>
      <trkpt lat="43.77386" lon="7.39655">
        <ele>637</ele>
        <time>2012-05-08T12:12:07.000Z</time>
      </trkpt>
      <trkpt lat="43.77382" lon="7.39654">
        <ele>630</ele>
        <time>2012-05-08T12:12:12.000Z</time>
      </trkpt>
      <trkpt lat="43.77376" lon="7.39652">
        <ele>634</ele>
        <time>2012-05-08T12:12:18.000Z</time>
      </trkpt>
      <trkpt lat="43.77371" lon="7.3965">
        <ele>633</ele>
        <time>2012-05-08T12:12:22.000Z</time>
      </trkpt>
      <trkpt lat="43.77366" lon="7.39648">
        <ele>634</ele>
        <time>2012-05-08T12:12:26.000Z</time>
      </trkpt>
      <trkpt lat="43.77361" lon="7.39648">
        <ele>632</ele>
        <time>2012-05-08T12:12:30.000Z</time>
      </trkpt>
      <trkpt lat="43.77356" lon="7.39647">
        <ele>628</ele>
        <time>2012-05-08T12:12:35.000Z</time>
      </trkpt>
      <trkpt lat="43.77351" lon="7.39647">
        <ele>632</ele>
        <time>2012-05-08T12:12:39.000Z</time>
      </trkpt>
      <trkpt lat="43.77346" lon="7.39647">
        <ele>629</ele>
        <time>2012-05-08T12:12:43.000Z</time>
      </trkpt>
      <trkpt lat="43.77341" lon="7.39646">
        <ele>626</ele>
        <time>2012-05-08T12:12:47.000Z</time>
      </trkpt>
      <trkpt lat="43.77336" lon="7.39647">
        <ele>623</ele>
        <time>2012-05-08T12:12:52.000Z</time>
      </trkpt>
      <trkpt lat="43.77331" lon="7.39648">
        <ele>627</ele>
        <time>2012-05-08T12:12:57.000Z</time>
      </trkpt>
      <trkpt lat="43.77326" lon="7.39648">
        <ele>630</ele>
        <time>2012-05-08T12:13:01.000Z</time>
      </trkpt>
      <trkpt lat="43.77321" lon="7.39648">
        <ele>628</ele>
        <time>2012-05-08T12:13:05.000Z</time>
      </trkpt>
      <trkpt lat="43.77317" lon="7.39647">
        <ele>627</ele>
        <time>2012-05-08T12:13:09.000Z</time>
      </trkpt>
      <trkpt lat="43.77312" lon="7.39648">
        <ele>624</ele>
        <time>2012-05-08T12:13:14.000Z</time>
      </trkpt>
      <trkpt lat="43.77307" lon="7.3965">
        <ele>623</ele>
        <time>2012-05-08T12:13:19.000Z</time>
      </trkpt>
      <trkpt lat="43.77302" lon="7.39651">
        <ele>622</ele>
        <time>2012-05-08T12:13:24.000Z</time>
      </trkpt>
      <trkpt lat="43.77297" lon="7.39652">
        <ele>624</ele>
        <time>2012-05-08T12:13:28.000Z</time>
      </trkpt>
      <trkpt lat="43.77292" lon="7.39654">
        <ele>625</ele>
        <time>2012-05-08T12:13:32.000Z</time>
      </trkpt>
      <trkpt lat="43.77288" lon="7.39657">
        <ele>624</ele>
        <time>2012-05-08T12:13:36.000Z</time>
      </trkpt>
      <trkpt lat="43.77284" lon="7.39661">
        <ele>626</ele>
        <time>2012-05-08T12:13:40.000Z</time>
      </trkpt>
      <trkpt lat="43.77279" lon="7.39664">
        <ele>630</ele>
        <time>2012-05-08T12:13:45.000Z</time>
      </trkpt>
      <trkpt lat="43.77275" lon="7.39667">
        <ele>625</ele>
        <time>2012-05-08T12:13:51.000Z</time>
      </trkpt>
      <trkpt lat="43.7727" lon="7.3967">
        <ele>621</ele>
        <time>2012-05-08T12:13:56.000Z</time>
      </trkpt>
      <trkpt lat="43.77266" lon="7.39673">
        <ele>622</ele>
        <time>2012-05-08T12:14:00.000Z</time>
      </trkpt>
      <trkpt lat="43.77263" lon="7.39679">
        <ele>623</ele>
        <time>2012-05-08T12:14:06.000Z</time>
      </trkpt>
      <trkpt lat="43.77258" lon="7.39682">
        <ele>623</ele>
        <time>2012-05-08T12:14:10.000Z</time>
      </trkpt>
      <trkpt lat="43.77254" lon="7.39685">
        <ele>621</ele>
        <time>2012-05-08T12:14:13.000Z</time>
      </trkpt>
      <trkpt lat="43.7725" lon="7.39688">
        <ele>622</ele>
        <time>2012-05-08T12:14:16.000Z</time>
      </trkpt>
      <trkpt lat="43.77245" lon="7.3969">
        <ele>625</ele>
        <time>2012-05-08T12:14:19.000Z</time>
      </trkpt>
      <trkpt lat="43.77239" lon="7.3969">
        <ele>628</ele>
        <time>2012-05-08T12:14:23.000Z</time>
      </trkpt>
      <trkpt lat="43.77234" lon="7.3969">
        <ele>628</ele>
        <time>2012-05-08T12:14:27.000Z</time>
      </trkpt>
      <trkpt lat="43.77229" lon="7.39688">
        <ele>629</ele>
        <time>2012-05-08T12:14:31.000Z</time>
      </trkpt>
      <trkpt lat="43.77225" lon="7.39686">
        <ele>626</ele>
        <time>2012-05-08T12:14:35.000Z</time>
      </trkpt>
      <trkpt lat="43.77221" lon="7.3968">
        <ele>626</ele>
        <time>2012-05-08T12:14:39.000Z</time>
      </trkpt>
      <trkpt lat="43.77217" lon="7.39677">
        <ele>626</ele>
        <time>2012-05-08T12:14:43.000Z</time>
      </trkpt>
      <trkpt lat="43.77212" lon="7.39674">
        <ele>624</ele>
        <time>2012-05-08T12:14:48.000Z</time>
      </trkpt>
      <trkpt lat="43.77207" lon="7.3967">
        <ele>621</ele>
        <time>2012-05-08T12:14:52.000Z</time>
      </trkpt>
      <trkpt lat="43.77203" lon="7.39666">
        <ele>623</ele>
        <time>2012-05-08T12:14:56.000Z</time>
      </trkpt>
      <trkpt lat="43.77198" lon="7.39662">
        <ele>621</ele>
        <time>2012-05-08T12:15:00.000Z</time>
      </trkpt>
      <trkpt lat="43.77193" lon="7.3966">
        <ele>622</ele>
        <time>2012-05-08T12:15:04.000Z</time>
      </trkpt>
      <trkpt lat="43.77188" lon="7.39661">
        <ele>621</ele>
        <time>2012-05-08T12:15:08.000Z</time>
      </trkpt>
      <trkpt lat="43.77183" lon="7.39664">
        <ele>622</ele>
        <time>2012-05-08T12:15:12.000Z</time>
      </trkpt>
      <trkpt lat="43.77178" lon="7.39667">
        <ele>621</ele>
        <time>2012-05-08T12:15:17.000Z</time>
      </trkpt>
      <trkpt lat="43.77174" lon="7.3967">
        <ele>620</ele>
        <time>2012-05-08T12:15:22.000Z</time>
      </trkpt>
      <trkpt lat="43.7717" lon="7.39673">
        <ele>618</ele>
        <time>2012-05-08T12:15:27.000Z</time>
      </trkpt>
      <trkpt lat="43.77166" lon="7.39675">
        <ele>613</ele>
        <time>2012-05-08T12:15:31.000Z</time>
      </trkpt>
      <trkpt lat="43.77162" lon="7.39678">
        <ele>616</ele>
        <time>2012-05-08T12:15:35.000Z</time>
      </trkpt>
      <trkpt lat="43.77156" lon="7.3968">
        <ele>620</ele>
        <time>2012-05-08T12:15:39.000Z</time>
      </trkpt>
      <trkpt lat="43.7715" lon="7.3968">
        <ele>620</ele>
        <time>2012-05-08T12:15:43.000Z</time>
      </trkpt>
      <trkpt lat="43.77145" lon="7.39679">
        <ele>620</ele>
        <time>2012-05-08T12:15:47.000Z</time>
      </trkpt>
      <trkpt lat="43.7714" lon="7.39678">
        <ele>620</ele>
        <time>2012-05-08T12:15:51.000Z</time>
      </trkpt>
      <trkpt lat="43.77135" lon="7.39677">
        <ele>619</ele>
        <time>2012-05-08T12:15:56.000Z</time>
      </trkpt>
      <trkpt lat="43.77129" lon="7.39677">
        <ele>620</ele>
        <time>2012-05-08T12:16:00.000Z</time>
      </trkpt>
      <trkpt lat="43.77125" lon="7.39675">
        <ele>620</ele>
        <time>2012-05-08T12:16:04.000Z</time>
      </trkpt>
      <trkpt lat="43.7712" lon="7.3967">
        <ele>619</ele>
        <time>2012-05-08T12:16:08.000Z</time>
      </trkpt>
      <trkpt lat="43.77118" lon="7.39663">
        <ele>620</ele>
        <time>2012-05-08T12:16:12.000Z</time>
      </trkpt>
      <trkpt lat="43.77118" lon="7.39656">
        <ele>609</ele>
        <time>2012-05-08T12:16:17.000Z</time>
      </trkpt>
      <trkpt lat="43.7712" lon="7.3965">
        <ele>611</ele>
        <time>2012-05-08T12:16:21.000Z</time>
      </trkpt>
      <trkpt lat="43.7712" lon="7.39642">
        <ele>607</ele>
        <time>2012-05-08T12:16:27.000Z</time>
      </trkpt>
      <trkpt lat="43.77117" lon="7.39637">
        <ele>602</ele>
        <time>2012-05-08T12:16:31.000Z</time>
      </trkpt>
      <trkpt lat="43.77111" lon="7.39634">
        <ele>608</ele>
        <time>2012-05-08T12:16:35.000Z</time>
      </trkpt>
      <trkpt lat="43.77106" lon="7.39631">
        <ele>609</ele>
        <time>2012-05-08T12:16:39.000Z</time>
      </trkpt>
      <trkpt lat="43.77101" lon="7.39628">
        <ele>613</ele>
        <time>2012-05-08T12:16:43.000Z</time>
      </trkpt>
      <trkpt lat="43.77096" lon="7.39626">
        <ele>613</ele>
        <time>2012-05-08T12:16:47.000Z</time>
      </trkpt>
      <trkpt lat="43.77092" lon="7.39624">
        <ele>615</ele>
        <time>2012-05-08T12:16:51.000Z</time>
      </trkpt>
      <trkpt lat="43.77087" lon="7.39622">
        <ele>619</ele>
        <time>2012-05-08T12:16:55.000Z</time>
      </trkpt>
      <trkpt lat="43.77082" lon="7.3962">
        <ele>617</ele>
        <time>2012-05-08T12:16:59.000Z</time>
      </trkpt>
      <trkpt lat="43.77077" lon="7.39618">
        <ele>616</ele>
        <time>2012-05-08T12:17:03.000Z</time>
      </trkpt>
      <trkpt lat="43.77072" lon="7.39616">
        <ele>616</ele>
        <time>2012-05-08T12:17:08.000Z</time>
      </trkpt>
      <trkpt lat="43.77067" lon="7.39614">
        <ele>615</ele>
        <time>2012-05-08T12:17:12.000Z</time>
      </trkpt>
      <trkpt lat="43.77062" lon="7.39614">
        <ele>612</ele>
        <time>2012-05-08T12:17:16.000Z</time>
      </trkpt>
      <trkpt lat="43.77058" lon="7.39615">
        <ele>612</ele>
        <time>2012-05-08T12:17:21.000Z</time>
      </trkpt>
      <trkpt lat="43.77052" lon="7.39615">
        <ele>610</ele>
        <time>2012-05-08T12:17:25.000Z</time>
      </trkpt>
      <trkpt lat="43.77047" lon="7.39615">
        <ele>611</ele>
        <time>2012-05-08T12:17:29.000Z</time>
      </trkpt>
      <trkpt lat="43.77042" lon="7.39614">
        <ele>611</ele>
        <time>2012-05-08T12:17:33.000Z</time>
      </trkpt>
      <trkpt lat="43.77037" lon="7.39613">
        <ele>612</ele>
        <time>2012-05-08T12:17:37.000Z</time>
      </trkpt>
      <trkpt lat="43.77032" lon="7.3961">
        <ele>610</ele>
        <time>2012-05-08T12:17:42.000Z</time>
      </trkpt>
      <trkpt lat="43.77028" lon="7.39605">
        <ele>614</ele>
        <time>2012-05-08T12:17:48.000Z</time>
      </trkpt>
      <trkpt lat="43.77023" lon="7.39605">
        <ele>611</ele>
        <time>2012-05-08T12:17:52.000Z</time>
      </trkpt>
      <trkpt lat="43.77018" lon="7.39604">
        <ele>613</ele>
        <time>2012-05-08T12:17:56.000Z</time>
      </trkpt>
      <trkpt lat="43.77013" lon="7.39602">
        <ele>613</ele>
        <time>2012-05-08T12:18:00.000Z</time>
      </trkpt>
      <trkpt lat="43.77008" lon="7.396">
        <ele>617</ele>
        <time>2012-05-08T12:18:04.000Z</time>
      </trkpt>
      <trkpt lat="43.77003" lon="7.39598">
        <ele>616</ele>
        <time>2012-05-08T12:18:08.000Z</time>
      </trkpt>
      <trkpt lat="43.76998" lon="7.39602">
        <ele>610</ele>
        <time>2012-05-08T12:19:44.000Z</time>
      </trkpt>
      <trkpt lat="43.76993" lon="7.396">
        <ele>611</ele>
        <time>2012-05-08T12:19:47.000Z</time>
      </trkpt>
      <trkpt lat="43.76989" lon="7.39596">
        <ele>609</ele>
        <time>2012-05-08T12:19:51.000Z</time>
      </trkpt>
      <trkpt lat="43.76984" lon="7.39592">
        <ele>617</ele>
        <time>2012-05-08T12:19:55.000Z</time>
      </trkpt>
      <trkpt lat="43.7698" lon="7.3959">
        <ele>617</ele>
        <time>2012-05-08T12:20:00.000Z</time>
      </trkpt>
      <trkpt lat="43.76975" lon="7.39588">
        <ele>610</ele>
        <time>2012-05-08T12:20:04.000Z</time>
      </trkpt>
      <trkpt lat="43.76971" lon="7.39584">
        <ele>610</ele>
        <time>2012-05-08T12:20:08.000Z</time>
      </trkpt>
      <trkpt lat="43.76966" lon="7.39583">
        <ele>608</ele>
        <time>2012-05-08T12:20:12.000Z</time>
      </trkpt>
      <trkpt lat="43.7696" lon="7.39584">
        <ele>606</ele>
        <time>2012-05-08T12:20:17.000Z</time>
      </trkpt>
      <trkpt lat="43.76955" lon="7.39586">
        <ele>605</ele>
        <time>2012-05-08T12:20:22.000Z</time>
      </trkpt>
      <trkpt lat="43.7695" lon="7.39587">
        <ele>603</ele>
        <time>2012-05-08T12:20:26.000Z</time>
      </trkpt>
      <trkpt lat="43.76945" lon="7.39588">
        <ele>604</ele>
        <time>2012-05-08T12:20:30.000Z</time>
      </trkpt>
      <trkpt lat="43.7694" lon="7.39592">
        <ele>605</ele>
        <time>2012-05-08T12:20:34.000Z</time>
      </trkpt>
      <trkpt lat="43.76935" lon="7.39592">
        <ele>608</ele>
        <time>2012-05-08T12:20:38.000Z</time>
      </trkpt>
      <trkpt lat="43.7693" lon="7.39591">
        <ele>613</ele>
        <time>2012-05-08T12:20:42.000Z</time>
      </trkpt>
      <trkpt lat="43.76924" lon="7.3959">
        <ele>612</ele>
        <time>2012-05-08T12:20:46.000Z</time>
      </trkpt>
      <trkpt lat="43.7692" lon="7.39589">
        <ele>609</ele>
        <time>2012-05-08T12:20:50.000Z</time>
      </trkpt>
      <trkpt lat="43.76914" lon="7.39588">
        <ele>607</ele>
        <time>2012-05-08T12:20:54.000Z</time>
      </trkpt>
      <trkpt lat="43.76909" lon="7.39585">
        <ele>611</ele>
        <time>2012-05-08T12:20:59.000Z</time>
      </trkpt>
      <trkpt lat="43.76904" lon="7.39582">
        <ele>610</ele>
        <time>2012-05-08T12:21:03.000Z</time>
      </trkpt>
      <trkpt lat="43.769" lon="7.39586">
        <ele>611</ele>
        <time>2012-05-08T12:21:09.000Z</time>
      </trkpt>
      <trkpt lat="43.76899" lon="7.39591">
        <ele>615</ele>
        <time>2012-05-08T12:21:15.000Z</time>
      </trkpt>
      <trkpt lat="43.76895" lon="7.39595">
        <ele>612</ele>
        <time>2012-05-08T12:21:21.000Z</time>
      </trkpt>
      <trkpt lat="43.7689" lon="7.39598">
        <ele>609</ele>
        <time>2012-05-08T12:21:25.000Z</time>
      </trkpt>
      <trkpt lat="43.76885" lon="7.39601">
        <ele>608</ele>
        <time>2012-05-08T12:21:29.000Z</time>
      </trkpt>
      <trkpt lat="43.7688" lon="7.39604">
        <ele>609</ele>
        <time>2012-05-08T12:21:32.000Z</time>
      </trkpt>
      <trkpt lat="43.76876" lon="7.39608">
        <ele>611</ele>
        <time>2012-05-08T12:21:36.000Z</time>
      </trkpt>
      <trkpt lat="43.76873" lon="7.39613">
        <ele>610</ele>
        <time>2012-05-08T12:21:40.000Z</time>
      </trkpt>
      <trkpt lat="43.76872" lon="7.39621">
        <ele>608</ele>
        <time>2012-05-08T12:21:44.000Z</time>
      </trkpt>
      <trkpt lat="43.76872" lon="7.39628">
        <ele>606</ele>
        <time>2012-05-08T12:21:49.000Z</time>
      </trkpt>
      <trkpt lat="43.76873" lon="7.39635">
        <ele>604</ele>
        <time>2012-05-08T12:21:54.000Z</time>
      </trkpt>
      <trkpt lat="43.76873" lon="7.39641">
        <ele>607</ele>
        <time>2012-05-08T12:21:58.000Z</time>
      </trkpt>
      <trkpt lat="43.76874" lon="7.39648">
        <ele>606</ele>
        <time>2012-05-08T12:22:03.000Z</time>
      </trkpt>
      <trkpt lat="43.76874" lon="7.39655">
        <ele>604</ele>
        <time>2012-05-08T12:22:08.000Z</time>
      </trkpt>
      <trkpt lat="43.76875" lon="7.39662">
        <ele>605</ele>
        <time>2012-05-08T12:22:12.000Z</time>
      </trkpt>
      <trkpt lat="43.76875" lon="7.39668">
        <ele>610</ele>
        <time>2012-05-08T12:22:17.000Z</time>
      </trkpt>
      <trkpt lat="43.76874" lon="7.39676">
        <ele>608</ele>
        <time>2012-05-08T12:22:23.000Z</time>
      </trkpt>
      <trkpt lat="43.76872" lon="7.39682">
        <ele>607</ele>
        <time>2012-05-08T12:22:28.000Z</time>
      </trkpt>
      <trkpt lat="43.76868" lon="7.39684">
        <ele>610</ele>
        <time>2012-05-08T12:22:34.000Z</time>
      </trkpt>
      <trkpt lat="43.76864" lon="7.39689">
        <ele>612</ele>
        <time>2012-05-08T12:22:40.000Z</time>
      </trkpt>
      <trkpt lat="43.76859" lon="7.39692">
        <ele>610</ele>
        <time>2012-05-08T12:22:45.000Z</time>
      </trkpt>
      <trkpt lat="43.76854" lon="7.39694">
        <ele>611</ele>
        <time>2012-05-08T12:22:49.000Z</time>
      </trkpt>
      <trkpt lat="43.76849" lon="7.39696">
        <ele>610</ele>
        <time>2012-05-08T12:22:53.000Z</time>
      </trkpt>
      <trkpt lat="43.76844" lon="7.39696">
        <ele>611</ele>
        <time>2012-05-08T12:22:57.000Z</time>
      </trkpt>
      <trkpt lat="43.7684" lon="7.39697">
        <ele>609</ele>
        <time>2012-05-08T12:23:01.000Z</time>
      </trkpt>
      <trkpt lat="43.76835" lon="7.39696">
        <ele>609</ele>
        <time>2012-05-08T12:23:06.000Z</time>
      </trkpt>
      <trkpt lat="43.7683" lon="7.39697">
        <ele>609</ele>
        <time>2012-05-08T12:23:10.000Z</time>
      </trkpt>
      <trkpt lat="43.76825" lon="7.39697">
        <ele>611</ele>
        <time>2012-05-08T12:23:14.000Z</time>
      </trkpt>
      <trkpt lat="43.7682" lon="7.39698">
        <ele>611</ele>
        <time>2012-05-08T12:23:18.000Z</time>
      </trkpt>
      <trkpt lat="43.76816" lon="7.39701">
        <ele>613</ele>
        <time>2012-05-08T12:23:22.000Z</time>
      </trkpt>
      <trkpt lat="43.76811" lon="7.39703">
        <ele>610</ele>
        <time>2012-05-08T12:23:26.000Z</time>
      </trkpt>
      <trkpt lat="43.76807" lon="7.39706">
        <ele>612</ele>
        <time>2012-05-08T12:23:30.000Z</time>
      </trkpt>
      <trkpt lat="43.76803" lon="7.3971">
        <ele>614</ele>
        <time>2012-05-08T12:23:35.000Z</time>
      </trkpt>
      <trkpt lat="43.768" lon="7.39715">
        <ele>617</ele>
        <time>2012-05-08T12:23:39.000Z</time>
      </trkpt>
      <trkpt lat="43.76794" lon="7.39716">
        <ele>617</ele>
        <time>2012-05-08T12:23:44.000Z</time>
      </trkpt>
      <trkpt lat="43.76789" lon="7.39719">
        <ele>617</ele>
        <time>2012-05-08T12:23:48.000Z</time>
      </trkpt>
      <trkpt lat="43.76784" lon="7.39722">
        <ele>613</ele>
        <time>2012-05-08T12:23:51.000Z</time>
      </trkpt>
      <trkpt lat="43.7678" lon="7.39726">
        <ele>612</ele>
        <time>2012-05-08T12:23:54.000Z</time>
      </trkpt>
      <trkpt lat="43.76775" lon="7.39729">
        <ele>614</ele>
        <time>2012-05-08T12:23:58.000Z</time>
      </trkpt>
      <trkpt lat="43.76771" lon="7.39731">
        <ele>616</ele>
        <time>2012-05-08T12:24:02.000Z</time>
      </trkpt>
      <trkpt lat="43.76766" lon="7.39733">
        <ele>619</ele>
        <time>2012-05-08T12:24:06.000Z</time>
      </trkpt>
      <trkpt lat="43.76761" lon="7.39735">
        <ele>617</ele>
        <time>2012-05-08T12:24:11.000Z</time>
      </trkpt>
      <trkpt lat="43.76757" lon="7.39738">
        <ele>619</ele>
        <time>2012-05-08T12:24:16.000Z</time>
      </trkpt>
      <trkpt lat="43.76753" lon="7.39741">
        <ele>617</ele>
        <time>2012-05-08T12:24:20.000Z</time>
      </trkpt>
      <trkpt lat="43.76748" lon="7.39744">
        <ele>616</ele>
        <time>2012-05-08T12:24:26.000Z</time>
      </trkpt>
      <trkpt lat="43.76745" lon="7.3975">
        <ele>618</ele>
        <time>2012-05-08T12:24:32.000Z</time>
      </trkpt>
      <trkpt lat="43.76743" lon="7.39756">
        <ele>615</ele>
        <time>2012-05-08T12:24:37.000Z</time>
      </trkpt>
      <trkpt lat="43.7674" lon="7.39763">
        <ele>615</ele>
        <time>2012-05-08T12:24:42.000Z</time>
      </trkpt>
      <trkpt lat="43.76736" lon="7.39767">
        <ele>612</ele>
        <time>2012-05-08T12:24:46.000Z</time>
      </trkpt>
      <trkpt lat="43.76732" lon="7.3977">
        <ele>613</ele>
        <time>2012-05-08T12:24:51.000Z</time>
      </trkpt>
      <trkpt lat="43.76728" lon="7.39774">
        <ele>611</ele>
        <time>2012-05-08T12:24:56.000Z</time>
      </trkpt>
      <trkpt lat="43.76723" lon="7.39778">
        <ele>608</ele>
        <time>2012-05-08T12:25:01.000Z</time>
      </trkpt>
      <trkpt lat="43.7672" lon="7.39782">
        <ele>612</ele>
        <time>2012-05-08T12:25:05.000Z</time>
      </trkpt>
      <trkpt lat="43.76716" lon="7.39786">
        <ele>616</ele>
        <time>2012-05-08T12:25:09.000Z</time>
      </trkpt>
      <trkpt lat="43.76713" lon="7.39791">
        <ele>617</ele>
        <time>2012-05-08T12:25:13.000Z</time>
      </trkpt>
      <trkpt lat="43.76711" lon="7.39797">
        <ele>617</ele>
        <time>2012-05-08T12:25:18.000Z</time>
      </trkpt>
      <trkpt lat="43.7671" lon="7.39803">
        <ele>616</ele>
        <time>2012-05-08T12:25:22.000Z</time>
      </trkpt>
      <trkpt lat="43.76707" lon="7.39808">
        <ele>613</ele>
        <time>2012-05-08T12:25:26.000Z</time>
      </trkpt>
      <trkpt lat="43.76703" lon="7.39814">
        <ele>612</ele>
        <time>2012-05-08T12:25:31.000Z</time>
      </trkpt>
      <trkpt lat="43.76699" lon="7.39817">
        <ele>617</ele>
        <time>2012-05-08T12:25:35.000Z</time>
      </trkpt>
      <trkpt lat="43.76694" lon="7.39819">
        <ele>616</ele>
        <time>2012-05-08T12:25:39.000Z</time>
      </trkpt>
      <trkpt lat="43.76689" lon="7.39823">
        <ele>620</ele>
        <time>2012-05-08T12:25:44.000Z</time>
      </trkpt>
      <trkpt lat="43.76684" lon="7.39827">
        <ele>617</ele>
        <time>2012-05-08T12:25:48.000Z</time>
      </trkpt>
      <trkpt lat="43.76678" lon="7.3983">
        <ele>619</ele>
        <time>2012-05-08T12:25:52.000Z</time>
      </trkpt>
      <trkpt lat="43.76673" lon="7.39832">
        <ele>620</ele>
        <time>2012-05-08T12:25:56.000Z</time>
      </trkpt>
      <trkpt lat="43.76669" lon="7.39832">
        <ele>619</ele>
        <time>2012-05-08T12:26:00.000Z</time>
      </trkpt>
      <trkpt lat="43.76664" lon="7.39833">
        <ele>615</ele>
        <time>2012-05-08T12:26:05.000Z</time>
      </trkpt>
      <trkpt lat="43.76659" lon="7.39831">
        <ele>612</ele>
        <time>2012-05-08T12:26:11.000Z</time>
      </trkpt>
      <trkpt lat="43.76655" lon="7.3983">
        <ele>616</ele>
        <time>2012-05-08T12:26:26.000Z</time>
      </trkpt>
      <trkpt lat="43.7665" lon="7.3983">
        <ele>617</ele>
        <time>2012-05-08T12:26:30.000Z</time>
      </trkpt>
      <trkpt lat="43.76645" lon="7.39831">
        <ele>615</ele>
        <time>2012-05-08T12:26:34.000Z</time>
      </trkpt>
      <trkpt lat="43.7664" lon="7.39831">
        <ele>618</ele>
        <time>2012-05-08T12:26:40.000Z</time>
      </trkpt>
      <trkpt lat="43.76637" lon="7.39835">
        <ele>618</ele>
        <time>2012-05-08T12:26:45.000Z</time>
      </trkpt>
      <trkpt lat="43.76636" lon="7.39842">
        <ele>617</ele>
        <time>2012-05-08T12:26:51.000Z</time>
      </trkpt>
      <trkpt lat="43.76635" lon="7.39849">
        <ele>616</ele>
        <time>2012-05-08T12:26:57.000Z</time>
      </trkpt>
      <trkpt lat="43.76634" lon="7.39855">
        <ele>618</ele>
        <time>2012-05-08T12:27:02.000Z</time>
      </trkpt>
      <trkpt lat="43.76636" lon="7.39862">
        <ele>619</ele>
        <time>2012-05-08T12:27:09.000Z</time>
      </trkpt>
      <trkpt lat="43.76636" lon="7.39869">
        <ele>620</ele>
        <time>2012-05-08T12:27:15.000Z</time>
      </trkpt>
      <trkpt lat="43.76636" lon="7.39875">
        <ele>615</ele>
        <time>2012-05-08T12:27:19.000Z</time>
      </trkpt>
      <trkpt lat="43.76636" lon="7.39881">
        <ele>607</ele>
        <time>2012-05-08T12:27:23.000Z</time>
      </trkpt>
      <trkpt lat="43.76637" lon="7.39888">
        <ele>608</ele>
        <time>2012-05-08T12:27:28.000Z</time>
      </trkpt>
      <trkpt lat="43.76639" lon="7.39893">
        <ele>610</ele>
        <time>2012-05-08T12:27:33.000Z</time>
      </trkpt>
      <trkpt lat="43.76641" lon="7.399">
        <ele>614</ele>
        <time>2012-05-08T12:27:39.000Z</time>
      </trkpt>
      <trkpt lat="43.76641" lon="7.39907">
        <ele>620</ele>
        <time>2012-05-08T12:27:45.000Z</time>
      </trkpt>
      <trkpt lat="43.76642" lon="7.39914">
        <ele>618</ele>
        <time>2012-05-08T12:27:51.000Z</time>
      </trkpt>
      <trkpt lat="43.76642" lon="7.3992">
        <ele>617</ele>
        <time>2012-05-08T12:27:57.000Z</time>
      </trkpt>
      <trkpt lat="43.76644" lon="7.39926">
        <ele>616</ele>
        <time>2012-05-08T12:28:04.000Z</time>
      </trkpt>
      <trkpt lat="43.76646" lon="7.39933">
        <ele>618</ele>
        <time>2012-05-08T12:28:11.000Z</time>
      </trkpt>
      <trkpt lat="43.76647" lon="7.39939">
        <ele>626</ele>
        <time>2012-05-08T12:28:18.000Z</time>
      </trkpt>
      <trkpt lat="43.76649" lon="7.39946">
        <ele>635</ele>
        <time>2012-05-08T12:28:26.000Z</time>
      </trkpt>
      <trkpt lat="43.76651" lon="7.39951">
        <ele>635</ele>
        <time>2012-05-08T12:28:32.000Z</time>
      </trkpt>
      <trkpt lat="43.76654" lon="7.39956">
        <ele>628</ele>
        <time>2012-05-08T12:28:38.000Z</time>
      </trkpt>
      <trkpt lat="43.76658" lon="7.3996">
        <ele>623</ele>
        <time>2012-05-08T12:28:44.000Z</time>
      </trkpt>
      <trkpt lat="43.7666" lon="7.39966">
        <ele>626</ele>
        <time>2012-05-08T12:28:57.000Z</time>
      </trkpt>
      <trkpt lat="43.76663" lon="7.39971">
        <ele>627</ele>
        <time>2012-05-08T12:29:03.000Z</time>
      </trkpt>
      <trkpt lat="43.76667" lon="7.39972">
        <ele>621</ele>
        <time>2012-05-08T12:29:08.000Z</time>
      </trkpt>
      <trkpt lat="43.76672" lon="7.39974">
        <ele>624</ele>
        <time>2012-05-08T12:29:14.000Z</time>
      </trkpt>
      <trkpt lat="43.76676" lon="7.39975">
        <ele>619</ele>
        <time>2012-05-08T12:29:20.000Z</time>
      </trkpt>
      <trkpt lat="43.76681" lon="7.39974">
        <ele>611</ele>
        <time>2012-05-08T12:29:28.000Z</time>
      </trkpt>
      <trkpt lat="43.76686" lon="7.39973">
        <ele>613</ele>
        <time>2012-05-08T12:29:33.000Z</time>
      </trkpt>
      <trkpt lat="43.76691" lon="7.39974">
        <ele>621</ele>
        <time>2012-05-08T12:29:39.000Z</time>
      </trkpt>
      <trkpt lat="43.76696" lon="7.39975">
        <ele>623</ele>
        <time>2012-05-08T12:29:45.000Z</time>
      </trkpt>
      <trkpt lat="43.76701" lon="7.39977">
        <ele>622</ele>
        <time>2012-05-08T12:29:52.000Z</time>
      </trkpt>
      <trkpt lat="43.76705" lon="7.39977">
        <ele>629</ele>
        <time>2012-05-08T12:29:57.000Z</time>
      </trkpt>
      <trkpt lat="43.7671" lon="7.39977">
        <ele>631</ele>
        <time>2012-05-08T12:30:04.000Z</time>
      </trkpt>
      <trkpt lat="43.76715" lon="7.39978">
        <ele>630</ele>
        <time>2012-05-08T12:30:12.000Z</time>
      </trkpt>
      <trkpt lat="43.7672" lon="7.39979">
        <ele>629</ele>
        <time>2012-05-08T12:30:19.000Z</time>
      </trkpt>
      <trkpt lat="43.76724" lon="7.3998">
        <ele>629</ele>
        <time>2012-05-08T12:30:25.000Z</time>
      </trkpt>
      <trkpt lat="43.76728" lon="7.39983">
        <ele>629</ele>
        <time>2012-05-08T12:30:31.000Z</time>
      </trkpt>
      <trkpt lat="43.76733" lon="7.39985">
        <ele>637</ele>
        <time>2012-05-08T12:30:38.000Z</time>
      </trkpt>
      <trkpt lat="43.76737" lon="7.39988">
        <ele>631</ele>
        <time>2012-05-08T12:30:57.000Z</time>
      </trkpt>
      <trkpt lat="43.76742" lon="7.39992">
        <ele>632</ele>
        <time>2012-05-08T12:31:03.000Z</time>
      </trkpt>
      <trkpt lat="43.76745" lon="7.39996">
        <ele>630</ele>
        <time>2012-05-08T12:31:11.000Z</time>
      </trkpt>
      <trkpt lat="43.7675" lon="7.39999">
        <ele>641</ele>
        <time>2012-05-08T12:31:18.000Z</time>
      </trkpt>
      <trkpt lat="43.76754" lon="7.40002">
        <ele>637</ele>
        <time>2012-05-08T12:31:35.000Z</time>
      </trkpt>
      <trkpt lat="43.76759" lon="7.40002">
        <ele>647</ele>
        <time>2012-05-08T12:31:41.000Z</time>
      </trkpt>
      <trkpt lat="43.76764" lon="7.40004">
        <ele>648</ele>
        <time>2012-05-08T12:31:46.000Z</time>
      </trkpt>
      <trkpt lat="43.7677" lon="7.40003">
        <ele>640</ele>
        <time>2012-05-08T12:31:50.000Z</time>
      </trkpt>
      <trkpt lat="43.76775" lon="7.40004">
        <ele>638</ele>
        <time>2012-05-08T12:31:55.000Z</time>
      </trkpt>
      <trkpt lat="43.7678" lon="7.40005">
        <ele>634</ele>
        <time>2012-05-08T12:32:00.000Z</time>
      </trkpt>
      <trkpt lat="43.76784" lon="7.40005">
        <ele>635</ele>
        <time>2012-05-08T12:32:05.000Z</time>
      </trkpt>
      <trkpt lat="43.76788" lon="7.40003">
        <ele>638</ele>
        <time>2012-05-08T12:32:10.000Z</time>
      </trkpt>
      <trkpt lat="43.76793" lon="7.39999">
        <ele>634</ele>
        <time>2012-05-08T12:32:16.000Z</time>
      </trkpt>
      <trkpt lat="43.76798" lon="7.39999">
        <ele>644</ele>
        <time>2012-05-08T12:32:22.000Z</time>
      </trkpt>
      <trkpt lat="43.76803" lon="7.4">
        <ele>646</ele>
        <time>2012-05-08T12:32:28.000Z</time>
      </trkpt>
      <trkpt lat="43.76807" lon="7.39999">
        <ele>653</ele>
        <time>2012-05-08T12:32:35.000Z</time>
      </trkpt>
      <trkpt lat="43.76812" lon="7.40001">
        <ele>645</ele>
        <time>2012-05-08T12:32:41.000Z</time>
      </trkpt>
      <trkpt lat="43.76817" lon="7.40005">
        <ele>646</ele>
        <time>2012-05-08T12:32:45.000Z</time>
      </trkpt>
      <trkpt lat="43.7682" lon="7.40009">
        <ele>644</ele>
        <time>2012-05-08T12:32:51.000Z</time>
      </trkpt>
      <trkpt lat="43.76824" lon="7.40014">
        <ele>645</ele>
        <time>2012-05-08T12:32:58.000Z</time>
      </trkpt>
      <trkpt lat="43.76826" lon="7.4002">
        <ele>661</ele>
        <time>2012-05-08T12:33:06.000Z</time>
      </trkpt>
      <trkpt lat="43.7683" lon="7.40024">
        <ele>666</ele>
        <time>2012-05-08T12:33:17.000Z</time>
      </trkpt>
      <trkpt lat="43.76834" lon="7.40026">
        <ele>664</ele>
        <time>2012-05-08T12:33:24.000Z</time>
      </trkpt>
      <trkpt lat="43.76839" lon="7.40022">
        <ele>649</ele>
        <time>2012-05-08T12:33:39.000Z</time>
      </trkpt>
      <trkpt lat="43.76843" lon="7.40018">
        <ele>640</ele>
        <time>2012-05-08T12:33:44.000Z</time>
      </trkpt>
      <trkpt lat="43.76847" lon="7.40014">
        <ele>638</ele>
        <time>2012-05-08T12:33:49.000Z</time>
      </trkpt>
      <trkpt lat="43.76852" lon="7.40012">
        <ele>645</ele>
        <time>2012-05-08T12:33:55.000Z</time>
      </trkpt>
      <trkpt lat="43.76857" lon="7.40009">
        <ele>648</ele>
        <time>2012-05-08T12:34:01.000Z</time>
      </trkpt>
      <trkpt lat="43.76862" lon="7.40006">
        <ele>645</ele>
        <time>2012-05-08T12:34:07.000Z</time>
      </trkpt>
      <trkpt lat="43.76866" lon="7.40003">
        <ele>644</ele>
        <time>2012-05-08T12:34:11.000Z</time>
      </trkpt>
      <trkpt lat="43.7687" lon="7.4">
        <ele>651</ele>
        <time>2012-05-08T12:34:15.000Z</time>
      </trkpt>
      <trkpt lat="43.76874" lon="7.39996">
        <ele>650</ele>
        <time>2012-05-08T12:34:20.000Z</time>
      </trkpt>
      <trkpt lat="43.76879" lon="7.39992">
        <ele>647</ele>
        <time>2012-05-08T12:34:26.000Z</time>
      </trkpt>
      <trkpt lat="43.76874" lon="7.39994">
        <ele>649</ele>
        <time>2012-05-08T12:38:07.000Z</time>
      </trkpt>
      <trkpt lat="43.76871" lon="7.39989">
        <ele>661</ele>
        <time>2012-05-08T12:38:24.000Z</time>
      </trkpt>
      <trkpt lat="43.76873" lon="7.39994">
        <ele>648</ele>
        <time>2012-05-08T12:38:51.000Z</time>
      </trkpt>
      <trkpt lat="43.76878" lon="7.39988">
        <ele>659</ele>
        <time>2012-05-08T12:39:07.000Z</time>
      </trkpt>
      <trkpt lat="43.76882" lon="7.39984">
        <ele>658</ele>
        <time>2012-05-08T12:39:09.000Z</time>
      </trkpt>
      <trkpt lat="43.76886" lon="7.3998">
        <ele>656</ele>
        <time>2012-05-08T12:39:13.000Z</time>
      </trkpt>
      <trkpt lat="43.76882" lon="7.39984">
        <ele>653</ele>
        <time>2012-05-08T12:39:33.000Z</time>
      </trkpt>
      <trkpt lat="43.76879" lon="7.39989">
        <ele>656</ele>
        <time>2012-05-08T12:39:43.000Z</time>
      </trkpt>
    </trkseg>
  </trk>
</gpx>